[[{"header":{"parameterUnit":"m.s-1","parameterCategory":1,"la1":30.6,"la2":28.766,"lo1":-90.7593,"lo2":-88.6598,"dy":0.0162,"dx":0.0183,"nx":116,"ny":114,"refTime":"2023-04-19T12:00:00:Z","depth":0,"parameterNumber":2,"parameterNumberName":"U-component_of_WINDS"},"data":[0.0,0.0,0.0,0.0,0.0,0.0,0.0,0.0,0.0,0.0,0.0,0.0,0.0,0.0,0.0,0.0,0.0,0.0,0.0,0.0,0.0,0.0,0.0,0.0,0.0,0.0,0.0,0.0,0.0,0.0,0.0,0.0,0.0,0.0,0.0,0.0,0.0,0.0,0.0,0.0,0.0,0.0,0.0,0.0,0.0,0.0,0.0,0.0,0.0,0.0,0.0,0.0,0.0,0.0,0.0,0.0,0.0,0.0,0.0,0.0,0.0,0.0,0.0,0.0,0.0,0.0,0.0,0.0,0.0,0.0,0.0,0.0,0.0,0.0,0.0,0.0,0.0,0.0,0.0,0.0,0.0,0.0,0.0,0.0,0.0,0.0,0.0,0.0,0.0,0.0,0.0,0.0,0.0,0.0,0.0,0.0,0.0,0.0,0.0,0.0,0.0,0.0,0.0,0.0,0.0,0.0,0.0,0.0,0.0,0.0,0.0,0.0,0.0,0.0,0.0,0.0,0.0,0.0,0.0,0.0,0.0,0.0,0.0,0.0,0.0,0.0,0.0,0.0,0.0,0.0,0.0,0.0,0.0,0.0,0.0,0.0,0.0,0.0,0.0,0.0,0.0,0.0,0.0,0.0,0.0,0.0,0.0,0.0,0.0,0.0,0.0,0.0,0.0,0.0,0.0,0.0,0.0,0.0,0.0,0.0,0.0,0.0,0.0,0.0,0.0,0.0,0.0,0.0,0.0,0.0,0.0,0.0,0.0,0.0,0.0,0.0,0.0,0.0,0.0,0.0,0.0,0.0,0.0,0.0,0.0,0.0,0.0,0.0,0.0,0.0,0.0,0.0,0.0,0.0,0.0,0.0,0.0,0.0,0.0,0.0,0.0,0.0,0.0,0.0,0.0,0.0,0.0,0.0,0.0,0.0,0.0,0.0,0.0,0.0,0.0,0.0,0.0,0.0,0.0,0.0,0.0,0.0,0.0,0.0,0.0,0.0,0.0,0.0,0.0,0.0,0.0,0.0,0.0,0.0,0.0,0.0,0.0,0.0,0.0,0.0,0.0,0.0,0.0,0.0,0.0,0.0,0.0,0.0,0.0,0.0,0.0,0.0,0.0,0.0,0.0,0.0,0.0,0.0,0.0,0.0,0.0,0.0,0.0,0.0,0.0,0.0,0.0,0.0,0.0,0.0,0.0,0.0,0.0,0.0,0.0,0.0,0.0,0.0,0.0,0.0,0.0,0.0,0.0,0.0,0.0,0.0,0.0,0.0,0.0,0.0,0.0,0.0,0.0,0.0,0.0,0.0,0.0,0.0,0.0,0.0,0.0,0.0,0.0,0.0,0.0,0.0,0.0,0.0,0.0,0.0,0.0,0.0,0.0,0.0,0.0,0.0,0.0,0.0,0.0,0.0,0.0,0.0,0.0,0.0,0.0,0.0,0.0,0.0,0.0,0.0,0.0,0.0,0.0,0.0,0.0,0.0,0.0,0.0,0.0,0.0,0.0,0.0,0.0,0.0,0.0,0.0,0.0,0.0,0.0,0.0,0.0,0.0,0.0,0.0,0.0,0.0,0.0,0.0,0.0,0.0,0.0,0.0,0.0,0.0,0.0,0.0,0.0,0.0,0.0,0.0,0.0,0.0,0.0,0.0,0.0,0.0,0.0,0.0,0.0,0.0,0.0,0.0,0.0,0.0,0.0,0.0,0.0,0.0,0.0,0.0,0.0,0.0,0.0,0.0,0.0,0.0,0.0,0.0,0.0,0.0,0.0,0.0,0.0,0.0,0.0,0.0,0.0,0.0,0.0,0.0,0.0,0.0,0.0,0.0,0.0,0.0,0.0,0.0,0.0,0.0,0.0,0.0,0.0,0.0,0.0,0.0,0.0,0.0,0.0,0.0,0.0,0.0,0.0,0.0,0.0,0.0,0.0,0.0,0.0,0.0,0.0,0.0,0.0,0.0,0.0,0.0,0.0,0.0,0.0,0.0,0.0,0.0,0.0,0.0,0.0,0.0,0.0,0.0,0.0,0.0,0.0,0.0,0.0,0.0,0.0,0.0,0.0,0.0,0.0,0.0,0.0,0.0,0.0,0.0,0.0,0.0,0.0,0.0,0.0,0.0,0.0,0.0,0.0,0.0,0.0,0.0,0.0,0.0,0.0,0.0,0.0,0.0,0.0,0.0,0.0,0.0,0.0,0.0,0.0,0.0,0.0,0.0,0.0,0.0,0.0,0.0,0.0,0.0,0.0,0.0,0.0,0.0,0.0,0.0,0.0,0.0,0.0,0.0,0.0,0.0,0.0,0.0,0.0,0.0,0.0,0.0,0.0,0.0,0.0,0.0,0.0,0.0,0.0,0.0,0.0,0.0,0.0,0.0,0.0,0.0,0.0,0.0,0.0,0.0,0.0,0.0,0.0,0.0,0.0,0.0,0.0,0.0,0.0,0.0,0.0,0.0,0.0,0.0,0.0,0.0,0.0,0.0,0.0,0.0,0.0,0.0,0.0,0.0,0.0,0.0,0.0,0.0,0.0,0.0,0.0,0.0,0.0,0.0,0.0,0.0,0.0,0.0,0.0,0.0,0.0,0.0,0.0,0.0,0.0,0.0,0.0,0.0,0.0,0.0,0.0,0.0,0.0,0.0,0.0,0.0,0.0,0.0,0.0,0.0,0.0,0.0,0.0,0.0,0.0,0.0,0.0,0.0,0.0,0.0,0.0,0.0,0.0,0.0,0.0,0.0,0.0,0.0,0.0,0.0,0.0,0.0,0.0,0.0,0.0,0.0,0.0,0.0,0.0,0.0,0.0,0.0,0.0,0.0,0.0,0.0,0.0,0.0,0.0,0.0,0.0,0.0,0.0,0.0,0.0,0.0,0.0,0.0,0.0,0.0,0.0,0.0,0.0,0.0,0.0,0.0,0.0,0.0,0.0,0.0,0.0,0.0,0.0,0.0,0.0,0.0,0.0,0.0,0.0,0.0,0.0,0.0,0.0,0.0,0.0,0.0,0.0,0.0,0.0,0.0,0.0,0.0,0.0,0.0,0.0,0.0,0.0,0.0,0.0,0.0,0.0,0.0,0.0,0.0,0.0,0.0,0.0,0.0,0.0,0.0,0.0,0.0,0.0,0.0,0.0,0.0,0.0,0.0,0.0,0.0,0.0,0.0,0.0,0.0,0.0,0.0,0.0,0.0,0.0,0.0,0.0,0.0,0.0,0.0,0.0,0.0,0.0,0.0,0.0,0.0,0.0,0.0,0.0,0.0,0.0,0.0,0.0,0.0,0.0,0.0,0.0,0.0,0.0,0.0,0.0,0.0,0.0,0.0,0.0,0.0,0.0,0.0,0.0,0.0,0.0,0.0,0.0,0.0,0.0,0.0,0.0,0.0,0.0,0.0,0.0,0.0,0.0,0.0,0.0,0.0,0.0,0.0,0.0,0.0,0.0,0.0,0.0,0.0,0.0,0.0,0.0,0.0,0.0,0.0,0.0,0.0,0.0,0.0,0.0,0.0,0.0,0.0,0.0,0.0,0.0,0.0,0.0,0.0,0.0,0.0,0.0,0.0,0.0,0.0,0.0,0.0,0.0,0.0,0.0,0.0,0.0,0.0,0.0,0.0,0.0,0.0,0.0,0.0,0.0,0.0,0.0,0.0,0.0,0.0,0.0,0.0,0.0,0.0,0.0,0.0,0.0,0.0,0.0,0.0,0.0,0.0,0.0,0.0,0.0,0.0,0.0,0.0,0.0,0.0,0.0,0.0,0.0,0.0,0.0,0.0,0.0,0.0,0.0,0.0,0.0,0.0,0.0,0.0,0.0,0.0,0.0,0.0,0.0,0.0,0.0,0.0,0.0,0.0,0.0,0.0,0.0,0.0,0.0,0.0,0.0,0.0,0.0,0.0,0.0,0.0,0.0,0.0,0.0,0.0,0.0,0.0,0.0,0.0,0.0,0.0,0.0,0.0,0.0,0.0,0.0,0.0,0.0,0.0,0.0,0.0,0.0,0.0,0.0,0.0,0.0,0.0,0.0,0.0,0.0,0.0,0.0,0.0,0.0,0.0,0.0,0.0,0.0,0.0,0.0,0.0,0.0,0.0,0.0,0.0,0.0,0.0,0.0,0.0,0.0,0.0,0.0,0.0,0.0,0.0,0.0,0.0,0.0,0.0,0.0,0.0,0.0,0.0,0.0,0.0,0.0,0.0,0.0,0.0,0.0,0.0,0.0,0.0,0.0,0.0,0.0,0.0,0.0,0.0,0.0,0.0,0.0,0.0,0.0,0.0,0.0,0.0,0.0,0.0,0.0,0.0,0.0,0.0,0.0,0.0,0.0,0.0,0.0,0.0,0.0,0.0,0.0,0.0,0.0,0.0,0.0,0.0,0.0,0.0,0.0,0.0,0.0,0.0,0.0,0.0,0.0,0.0,0.0,0.0,0.0,0.0,0.0,0.0,0.0,0.0,0.0,0.0,0.0,0.0,0.0,0.0,0.0,0.0,0.0,0.0,0.0,0.0,0.0,0.0,0.0,0.0,0.0,0.0,0.0,0.0,0.0,0.0,0.0,0.0,0.0,0.0,0.0,0.0,0.0,0.0,0.0,0.0,0.0,0.0,0.0,0.0,0.0,0.0,0.0,0.0,0.0,0.0,0.0,0.0,0.0,0.0,0.0,0.0,0.0,0.0,0.0,0.0,0.0,0.0,0.0,0.0,0.0,0.0,0.0,0.0,0.0,0.0,0.0,0.0,0.0,0.0,0.0,0.0,0.0,0.0,0.0,0.0,0.0,0.0,0.0,0.0,0.0,0.0,0.0,0.0,0.0,0.0,0.0,0.0,0.0,0.0,0.0,0.0,0.0,0.0,0.0,0.0,0.0,0.0,0.0,0.0,0.0,0.0,0.0,0.0,0.0,0.0,0.0,0.0,0.0,0.0,0.0,0.0,0.0,0.0,0.0,0.0,0.0,0.0,0.0,0.0,0.0,0.0,0.0,0.0,0.0,0.0,0.0,0.0,0.0,0.0,0.0,0.0,0.0,0.0,0.0,0.0,0.0,0.0,0.0,0.0,0.0,0.0,0.0,0.0,0.0,0.0,0.0,0.0,0.0,0.0,0.0,0.0,0.0,0.0,0.0,0.0,0.0,0.0,0.0,0.0,0.0,0.0,0.0,0.0,0.0,0.0,0.0,0.0,0.0,0.0,0.0,0.0,0.0,0.0,0.0,0.0,0.0,0.0,0.0,0.0,0.0,0.0,0.0,0.0,0.0,0.0,0.0,0.0,0.0,0.0,0.0,0.0,0.0,0.0,0.0,0.0,0.0,0.0,0.0,0.0,0.0,0.0,0.0,0.0,0.0,0.0,0.0,0.0,0.0,0.0,0.0,0.0,0.0,0.0,0.0,0.0,0.0,0.0,0.0,0.0,0.0,0.0,0.0,0.0,0.0,0.0,0.0,0.0,0.0,0.0,0.0,0.0,0.0,0.0,0.0,0.0,0.0,0.0,0.0,0.0,0.0,0.0,0.0,0.0,0.0,0.0,0.0,0.0,0.0,0.0,0.0,0.0,0.0,0.0,0.0,0.0,0.0,0.0,0.0,0.0,0.0,0.0,0.0,0.0,0.0,0.0,0.0,0.0,0.0,0.0,0.0,0.0,0.0,0.0,0.0,0.0,0.0,0.0,0.0,0.0,0.0,0.0,0.0,0.0,0.0,0.0,0.0,0.0,0.0,0.0,0.0,0.0,0.0,0.0,0.0,0.0,0.0,0.0,0.0,0.0,0.0,0.0,0.0,0.0,0.0,0.0,0.0,0.0,0.0,0.0,0.0,0.0,0.0,0.0,0.0,0.0,0.0,0.0,0.0,0.0,0.0,0.0,0.0,0.0,0.0,0.0,0.0,0.0,0.0,0.0,0.0,0.0,0.0,0.0,0.0,0.0,0.0,0.0,0.0,0.0,0.0,0.0,0.0,0.0,0.0,0.0,0.0,0.0,0.0,0.0,0.0,0.0,0.0,0.0,0.0,0.0,0.0,0.0,0.0,0.0,0.0,0.0,0.0,0.0,0.0,0.0,0.0,0.0,0.0,0.0,0.0,0.0,0.0,0.0,0.0,0.0,-2.9531,-2.7518,0.0,0.0,0.0,0.0,0.0,0.0,0.0,0.0,0.0,0.0,0.0,0.0,0.0,0.0,0.0,0.0,0.0,0.0,0.0,0.0,0.0,0.0,0.0,0.0,0.0,0.0,0.0,0.0,0.0,0.0,0.0,0.0,0.0,0.0,0.0,0.0,0.0,0.0,0.0,0.0,0.0,0.0,0.0,0.0,0.0,0.0,0.0,0.0,0.0,0.0,0.0,0.0,0.0,0.0,0.0,0.0,0.0,0.0,0.0,0.0,0.0,0.0,0.0,0.0,0.0,0.0,0.0,0.0,0.0,0.0,0.0,0.0,0.0,0.0,0.0,0.0,0.0,0.0,0.0,0.0,0.0,0.0,0.0,0.0,0.0,0.0,0.0,0.0,0.0,0.0,0.0,0.0,0.0,0.0,0.0,0.0,0.0,0.0,0.0,0.0,0.0,0.0,0.0,0.0,0.0,0.0,0.0,0.0,0.0,0.0,0.0,0.0,0.0,0.0,-2.889,-2.7338,0.0,0.0,0.0,0.0,0.0,0.0,0.0,0.0,0.0,0.0,0.0,0.0,0.0,0.0,0.0,0.0,0.0,0.0,0.0,0.0,0.0,0.0,0.0,0.0,0.0,0.0,0.0,0.0,0.0,0.0,0.0,0.0,0.0,0.0,0.0,0.0,0.0,0.0,0.0,0.0,0.0,0.0,0.0,0.0,0.0,0.0,0.0,0.0,0.0,0.0,0.0,0.0,0.0,0.0,0.0,0.0,0.0,0.0,0.0,0.0,0.0,0.0,0.0,0.0,0.0,0.0,0.0,0.0,0.0,0.0,0.0,0.0,0.0,0.0,0.0,0.0,0.0,0.0,0.0,0.0,0.0,0.0,0.0,0.0,0.0,0.0,0.0,0.0,0.0,0.0,0.0,0.0,0.0,0.0,0.0,0.0,0.0,0.0,0.0,0.0,0.0,0.0,0.0,0.0,0.0,0.0,0.0,0.0,-2.3763,-2.4722,-2.5926,-2.7369,-2.7757,-2.7328,-2.7326,-2.6397,-2.4636,-2.1701,0.0,0.0,0.0,0.0,0.0,0.0,0.0,0.0,0.0,0.0,0.0,0.0,0.0,0.0,0.0,0.0,0.0,0.0,0.0,0.0,0.0,0.0,0.0,0.0,0.0,0.0,0.0,0.0,0.0,0.0,0.0,0.0,0.0,0.0,0.0,0.0,0.0,0.0,-5.0406,-5.1088,-5.1331,-5.1153,0.0,0.0,0.0,0.0,0.0,0.0,0.0,0.0,0.0,0.0,0.0,0.0,0.0,0.0,0.0,0.0,0.0,0.0,0.0,0.0,0.0,0.0,0.0,0.0,0.0,0.0,0.0,0.0,0.0,0.0,0.0,0.0,0.0,0.0,0.0,0.0,0.0,0.0,0.0,0.0,0.0,0.0,0.0,0.0,-2.9453,-2.574,0.0,0.0,0.0,0.0,0.0,0.0,0.0,0.0,0.0,0.0,0.0,0.0,0.0,-1.6313,-1.9223,-2.056,-2.1753,-2.2859,-2.3734,-2.4709,-2.5767,-2.6368,-2.6464,-2.6062,-2.4952,0.0,-2.3346,-2.1118,0.0,0.0,0.0,0.0,0.0,0.0,0.0,0.0,0.0,0.0,0.0,0.0,0.0,0.0,0.0,0.0,0.0,0.0,0.0,0.0,0.0,0.0,0.0,0.0,0.0,0.0,0.0,0.0,0.0,0.0,0.0,0.0,0.0,0.0,0.0,0.0,-4.7108,-4.832,-4.9689,-4.9787,-4.9982,-5.0292,-4.9634,-4.8379,-4.646,-4.2565,0.0,0.0,0.0,0.0,0.0,0.0,0.0,0.0,0.0,0.0,0.0,0.0,0.0,0.0,0.0,0.0,0.0,0.0,0.0,0.0,0.0,0.0,0.0,0.0,0.0,0.0,0.0,0.0,0.0,0.0,0.0,0.0,0.0,0.0,0.0,0.0,0.0,0.0,0.0,-3.2132,-2.9098,-2.6166,-2.3504,-2.0594,0.0,0.0,0.0,0.0,0.0,0.0,0.0,0.0,0.0,-0.9525,-1.2176,-1.4837,-1.7522,-1.933,-2.0835,-2.1911,-2.2828,-2.3566,-2.4208,-2.459,-2.4471,-2.3958,-2.2991,-2.1773,-2.0436,-1.9154,-1.6904,-1.3994,0.0,0.0,0.0,0.0,0.1039,0.4166,0.0,0.0,0.0,0.0,0.0,0.0,0.0,0.0,0.0,0.0,0.0,0.0,0.0,0.0,0.0,-3.8476,0.0,0.0,0.0,0.0,0.0,0.0,0.0,0.0,0.0,0.0,0.0,0.0,-4.6767,-4.7395,-4.8405,-4.8368,-4.8531,-4.8745,-4.771,-4.6797,-4.5844,-4.1889,-3.7394,0.0,0.0,0.0,0.0,0.0,0.0,0.0,0.0,0.0,0.0,0.0,0.0,0.0,0.0,0.0,0.0,0.0,0.0,0.0,0.0,0.0,0.0,0.0,0.0,0.0,0.0,0.0,0.0,0.0,0.0,0.0,0.0,0.0,0.0,0.0,0.0,0.0,0.0,-3.1353,-2.912,-2.6349,-2.3695,-2.0878,0.0,0.0,0.0,0.0,0.0,0.0,-0.6289,-0.6155,-0.7053,-0.9059,-1.1546,-1.3961,-1.6369,-1.8295,-1.992,-2.1194,-2.1934,-2.2498,-2.3006,-2.3135,-2.2806,-2.2052,-2.1259,-1.9714,-1.7829,-1.7261,-1.5521,-1.3036,-1.018,-0.7344,-0.4507,-0.1668,0.1323,0.4221,0.0,0.0,0.0,0.0,0.0,0.0,0.0,0.0,0.0,0.0,0.0,0.0,0.0,0.0,-3.5134,-3.5996,-3.7033,-3.7555,0.0,0.0,0.0,0.0,0.0,0.0,0.0,0.0,0.0,-4.6251,-4.6022,-4.6132,-4.6541,-4.7152,-4.6898,-4.5802,-4.5757,-4.5362,-4.454,-4.0445,-3.5939,-3.1073,0.0,0.0,0.0,0.0,0.0,0.0,0.0,0.0,0.0,0.0,0.0,0.0,0.0,0.0,0.0,0.0,0.0,0.0,0.0,0.0,0.0,0.0,0.0,0.0,0.0,0.0,0.0,0.0,0.0,0.0,0.0,0.0,0.0,0.0,0.0,0.0,0.0,0.0,0.0,-2.6024,-2.3912,0.0,0.0,0.0,0.0,-1.1282,-0.9838,-0.8454,-0.6953,-0.7182,-0.7963,-0.9275,-1.1498,-1.3765,-1.6024,-1.7547,-1.9221,-2.1108,-2.1472,-2.2139,-2.2986,-2.2623,-2.1946,-2.1032,-1.9786,-1.8218,-1.644,-1.6046,-1.4134,-1.1204,-0.8952,-0.6404,-0.3646,-0.1004,0.1625,0.42,0.0,0.0,0.0,0.0,0.0,0.0,0.0,0.0,0.0,0.0,0.0,0.0,0.0,-3.3032,-3.3514,-3.4152,-3.4937,-3.5441,-3.5598,0.0,0.0,0.0,0.0,0.0,0.0,0.0,-4.2873,-4.4546,-4.3961,-4.4052,-4.4809,-4.485,-4.4642,-4.4214,-4.3475,-4.241,-4.1064,-3.8768,-3.5357,-3.112,-2.5583,-2.1143,0.0,0.0,0.0,0.0,0.0,0.0,0.0,0.0,0.0,0.0,0.0,0.0,0.0,0.0,0.0,0.0,0.0,0.0,0.0,0.0,0.0,0.0,0.0,0.0,0.0,0.0,0.0,0.0,0.0,0.0,0.0,0.0,0.0,0.0,0.0,0.0,0.0,-2.6537,-2.4574,0.0,-1.9397,-1.7529,-1.5675,-1.3765,-1.218,-1.0843,-0.9862,-0.9731,-1.0012,-1.0638,-1.2607,-1.4374,-1.5763,-1.7741,-1.9148,-2.0003,-2.12,-2.1724,-2.1634,-2.1727,-2.1162,-1.998,-1.8841,-1.7269,-1.5521,-1.4297,-1.2759,-1.0867,-0.8493,-0.6285,-0.4092,-0.1363,0.1071,0.331,0.0,0.0,0.0,0.0,0.0,0.0,0.0,0.0,0.0,0.0,0.0,-3.0564,-3.106,-3.1445,-3.186,-3.233,-3.3054,-3.3594,-3.3797,0.0,0.0,0.0,0.0,0.0,0.0,-4.0535,-4.1397,-4.2815,-4.2016,-4.2071,-4.2916,-4.2365,-4.2197,-4.2326,-4.119,-3.9873,-3.8364,-3.6908,-3.4285,-3.0713,-2.6075,-2.251,-1.9711,0.0,0.0,0.0,0.0,0.0,0.0,0.0,0.0,0.0,0.0,0.0,0.0,0.0,0.0,0.0,0.0,0.0,0.0,0.0,0.0,0.0,0.0,0.0,0.0,0.0,0.0,0.0,0.0,0.0,0.0,0.0,0.0,0.0,0.0,-3.1169,-2.9057,-2.669,-2.4984,-2.3083,-2.0646,-1.9186,-1.7742,-1.6107,-1.4512,-1.3317,-1.2551,-1.2107,-1.1988,-1.2377,-1.3775,-1.5077,-1.6111,-1.7741,-1.8924,-1.9736,-2.0806,-2.1318,-2.1353,-2.115,-2.0527,-1.9456,-1.8217,-1.6616,-1.4814,-1.3267,-1.1926,-1.0591,-0.8208,-0.6107,-0.4214,-0.1735,0.0504,0.2557,0.0,0.0,0.0,0.0,0.0,0.0,0.0,0.0,0.0,0.0,-2.8553,-2.8812,-2.916,-2.9592,-3.0016,-3.0375,-3.1394,-3.2047,0.0,-3.3129,0.0,0.0,0.0,0.0,-3.8288,-3.8708,-3.9623,-4.1128,-4.0353,-4.0282,-4.0795,-3.9796,-3.9561,-3.9904,-3.8887,-3.7792,-3.6598,-3.4886,-3.2608,-2.9926,-2.6611,-2.378,-2.1463,0.0,0.0,0.0,0.0,0.0,0.0,0.0,0.0,0.0,0.0,0.0,0.0,0.0,0.0,0.0,0.0,0.0,0.0,0.0,0.0,0.0,0.0,0.0,0.0,0.0,0.0,0.0,0.0,0.0,0.0,0.0,0.0,0.0,-3.2752,-3.0864,-2.8754,-2.6477,-2.526,-2.3839,-2.1797,-2.0978,-1.9881,-1.8236,-1.688,-1.5808,-1.4811,-1.418,-1.3997,-1.4318,-1.5035,-1.5852,-1.6925,-1.7492,-1.8609,-2.0303,-2.0154,-2.0822,-2.2122,-2.0993,-2.0145,-1.9518,-1.7927,-1.6121,-1.4333,-1.3099,-1.1853,-1.039,-0.8022,-0.5939,-0.403,-0.2088,-0.0053,0.2004,0.0,0.0,0.0,0.0,0.0,0.0,0.0,0.0,0.0,0.0,-2.667,-2.6725,-2.6306,-2.6842,-2.7405,-2.7728,-2.9268,0.0,0.0,0.0,0.0,0.0,0.0,0.0,-3.6135,-3.6516,-3.6985,-3.767,-3.7497,-3.7354,-3.7194,-3.7667,-3.7417,-3.6603,-3.648,-3.5909,-3.4981,-3.3401,-3.1883,-3.0292,-2.7979,-2.6214,-2.4875,0.0,0.0,0.0,0.0,0.0,0.0,0.0,0.0,0.0,0.0,0.0,0.0,0.0,0.0,0.0,0.0,0.0,0.0,0.0,0.0,0.0,0.0,0.0,0.0,0.0,0.0,0.0,0.0,0.0,0.0,0.0,-3.4592,-3.3979,-3.3017,-3.1244,-2.9585,-2.8242,-2.662,-2.5046,-2.3521,-2.2311,-2.1111,-1.9893,-1.8737,-1.7664,-1.6705,-1.6389,-1.5946,-1.5402,-1.6208,-1.6902,-1.7407,-1.8259,-1.8985,-1.9594,-2.026,-2.0697,-2.0839,-2.0767,-1.9952,-1.8703,-1.8004,-1.6499,-1.4551,-1.3555,-1.2297,-1.0707,-0.8334,-0.6722,-0.5518,-0.3272,-0.0976,0.1203,0.0,0.0,0.0,0.0,0.0,0.0,0.0,0.0,0.0,0.0,-2.5209,-2.5236,-2.4434,-2.4813,-2.5343,0.0,0.0,0.0,0.0,0.0,0.0,0.0,0.0,-3.3403,-3.3785,-3.3817,-3.396,-3.4379,-3.4336,-3.4334,-3.4293,-3.4896,-3.492,-3.4487,-3.458,-3.4225,-3.3529,-3.2784,-3.1698,-3.0414,-2.9444,-2.814,-2.6745,-2.666,-2.7094,-2.7923,-2.9179,-3.0151,-3.1059,-3.2385,0.0,0.0,0.0,0.0,0.0,0.0,0.0,0.0,0.0,0.0,0.0,0.0,0.0,0.0,0.0,0.0,0.0,0.0,0.0,0.0,0.0,0.0,0.0,0.0,-3.4085,-3.3621,-3.2775,-3.1175,-2.9784,-2.8907,-2.7383,-2.5859,-2.4573,-2.3447,-2.2347,-2.1191,-2.0325,-1.9487,-1.8515,-1.8106,-1.7623,-1.6996,-1.7391,-1.776,-1.8089,-1.8649,-1.9129,-1.9443,-1.9832,-2.0089,-2.0162,-1.9859,-1.9279,-1.8361,-1.7703,-1.6449,-1.4791,-1.3966,-1.2706,-1.12,0.0,0.0,0.0,0.0,-0.1947,-0.0109,0.0,0.0,0.0,0.0,0.0,0.0,0.0,0.0,0.0,0.0,0.0,-2.3899,-2.3005,-2.3128,0.0,0.0,0.0,0.0,0.0,0.0,0.0,-3.007,-3.026,-3.0629,-3.1234,-3.0791,-3.086,-3.1292,-3.1219,-3.1368,-3.1786,-3.1855,-3.2182,-3.2723,-3.2885,-3.2647,-3.2209,-3.2416,-3.1705,-3.0481,-3.071,-2.9494,-2.7655,-2.8472,-2.9239,-3.0145,-3.1591,-3.2524,-3.3237,-3.4212,0.0,0.0,0.0,0.0,0.0,0.0,0.0,0.0,0.0,0.0,0.0,0.0,0.0,0.0,0.0,0.0,0.0,0.0,0.0,0.0,0.0,0.0,0.0,0.0,-3.3644,-3.3244,-3.2316,-3.0871,-2.9724,-2.907,-2.7714,-2.6397,-2.536,-2.4456,-2.3445,-2.2266,-2.1726,-2.1009,-2.0112,-1.9472,0.0,0.0,0.0,-1.8508,-1.8892,-1.8925,-1.9199,-1.973,-1.9223,-1.933,-1.9936,-1.8872,-1.833,-1.8195,-1.7211,-1.6136,-1.5079,-1.4302,-1.313,-1.16,-0.9883,-0.8329,-0.6794,-0.4581,-0.2972,-0.1797,0.0,0.0,0.0,0.0,0.0,0.0,0.0,0.0,0.0,-2.3024,-2.2468,-2.1753,-2.0688,-2.093,0.0,0.0,0.0,-2.4166,0.0,0.0,-2.6858,-2.762,-2.7561,-2.7833,-2.8533,-2.8238,-2.8137,-2.8271,-2.8789,-2.8903,-2.8589,-2.9624,-2.9761,-2.9148,-3.0113,-3.0711,-3.0951,-3.0778,-3.0964,0.0,0.0,0.0,-2.8608,-2.9424,-3.0161,-3.0865,-3.1537,-3.251,-3.3548,-3.4029,-3.4346,-3.4585,-3.482,0.0,0.0,0.0,0.0,0.0,0.0,0.0,0.0,0.0,0.0,0.0,0.0,0.0,0.0,0.0,0.0,0.0,0.0,0.0,0.0,-3.3353,-3.3036,-3.2736,-3.2543,-3.1209,-3.0271,-3.0118,-2.8562,-2.7302,-2.6721,-2.5268,-2.4191,-2.3895,-2.2753,-2.179,-2.1071,-2.0577,-2.005,-1.9403,-1.9537,-1.9573,-1.9503,-1.9775,-1.9848,-1.9864,-1.9758,0.0,-1.9667,-1.926,-1.8546,-1.7767,-1.7463,-1.6625,-1.5523,-1.4867,-1.3457,-1.15,-0.9636,-0.8147,-0.6884,-0.5908,-0.4773,-0.3661,0.0,0.0,0.0,0.0,0.0,0.0,0.0,0.0,0.0,0.0,-2.197,-2.1159,-1.9974,0.0,0.0,0.0,-2.197,0.0,0.0,-2.3971,-2.4578,-2.5422,-2.5341,-2.5433,-2.5716,-2.5491,-2.5326,-2.5326,-2.5744,-2.5894,-2.5872,-2.6824,-2.713,-2.6906,-2.7856,-2.8649,-2.9255,0.0,0.0,0.0,0.0,0.0,-2.9972,-3.071,-3.1269,-3.1691,-3.2144,-3.3068,-3.4105,-3.4231,-3.4755,-3.5334,-3.528,-3.5241,-3.515,0.0,0.0,0.0,0.0,0.0,0.0,0.0,0.0,0.0,0.0,0.0,0.0,0.0,0.0,-3.3036,-3.307,0.0,-3.2934,-3.272,-3.2505,-3.2189,-3.1816,-3.0909,-3.0373,-3.0395,-2.8806,-2.757,-2.7128,-2.5768,-2.4734,-2.4309,-2.3544,-2.2758,-2.2128,-2.1698,-2.1131,-2.0368,-2.0427,-2.0327,-1.9903,-2.0025,-2.0054,-1.9919,-1.9693,-1.9378,-1.9111,-1.876,-1.8194,-1.7558,-1.7336,-1.6774,-1.5876,-1.47,-1.351,-1.2274,-1.0712,-0.9293,-0.8013,-0.7526,-0.6503,-0.5339,0.0,0.0,0.0,0.0,0.0,0.0,0.0,0.0,0.0,0.0,0.0,-2.0954,-1.981,0.0,0.0,0.0,0.0,0.0,0.0,-2.1881,-2.2259,-2.311,-2.3003,-2.2862,-2.2768,-2.259,-2.2491,-2.2491,-2.2574,-2.2878,-2.3289,-2.3929,-2.4429,-2.4843,-2.5691,0.0,0.0,0.0,0.0,0.0,0.0,0.0,-3.1604,-3.23,-3.2437,-3.2354,-3.2707,-3.3578,-3.4562,-3.4415,-3.5063,-3.5859,-3.5489,-3.5369,-3.522,-3.4448,-3.4594,0.0,0.0,0.0,0.0,0.0,0.0,0.0,0.0,0.0,-3.2868,-3.3057,-3.3181,-3.3266,-3.3229,-3.2804,-3.2402,-3.2124,-3.1955,-3.1655,-3.1137,-3.0527,-3.0219,-3.0316,-2.8785,-2.761,-2.7323,-2.62,-2.5226,-2.4618,-2.4137,-2.3647,-2.2972,-2.268,-2.2122,-2.1422,-2.1363,-2.109,-2.0455,-2.0307,-2.0206,-2.0071,-1.9616,-1.9191,-1.8851,-1.8495,-1.8017,-1.755,-1.7218,-1.674,-1.604,-1.4697,-1.3858,-1.331,-1.23,-1.1151,-0.9844,-0.9154,-0.7967,-0.6714,0.0,0.0,0.0,0.0,0.0,0.0,0.0,0.0,0.0,0.0,0.0,0.0,0.0,0.0,0.0,0.0,0.0,0.0,-1.9627,-1.9735,-1.9947,-2.0429,-1.9753,-1.9446,-1.9698,-1.9659,-1.9678,-1.9678,-2.0079,-2.0467,-2.082,-2.1291,-2.17,-2.2108,0.0,0.0,0.0,0.0,0.0,0.0,0.0,0.0,-3.3477,-3.4278,-3.3629,-3.2315,-3.2502,-3.3404,-3.4483,-3.4273,-3.4872,-3.5524,-3.4683,-3.4575,-3.4595,-3.4073,0.0,-3.4683,-3.4351,-3.3953,-3.3679,-3.3871,-3.3068,-3.2644,0.0,-3.3774,-3.3253,-3.4034,-3.4216,-3.4073,-3.3441,-3.2694,-3.2141,-3.2115,-3.1539,-3.1153,-3.142,-3.0537,-2.9884,-2.9853,-2.8755,-2.7924,-2.7924,-2.6692,-2.5841,-2.5726,-2.4816,-2.4083,-2.3617,-2.3319,-2.2865,-2.236,-2.236,-2.2068,-2.1538,-2.1176,-2.0925,-2.0703,-2.0243,-1.9976,-1.9855,-1.9569,-1.9013,-1.8222,-1.7426,-1.6666,-1.594,-1.5732,-1.5167,-1.4282,-1.3714,-1.3137,-1.2412,-1.0524,-0.9054,-0.7827,0.0,0.0,0.0,0.0,0.0,0.0,0.0,0.0,0.0,0.0,0.0,0.0,0.0,0.0,0.0,0.0,0.0,0.0,-1.8809,-1.8586,-1.8536,-1.8786,-1.8452,-1.823,-1.8113,-1.8113,-1.8037,-1.7924,-1.7794,-1.806,-1.862,-1.867,-1.9026,0.0,0.0,0.0,0.0,0.0,0.0,0.0,0.0,0.0,-3.4246,-3.5545,-3.5676,-3.5019,-3.401,-3.4339,0.0,0.0,-3.5272,-3.5959,-3.5083,-3.4856,-3.4725,-3.3789,-3.4134,0.0,-3.4805,-3.4281,-3.3689,-3.3675,-3.3377,-3.3204,-3.3505,-3.3335,-3.318,-3.3314,-3.3374,-3.318,-3.2662,-3.2137,-3.1643,-3.1424,-3.1162,-3.0766,-3.0521,-2.9828,-2.9302,-2.9062,-2.8253,-2.7748,-2.7774,-2.6867,-2.6199,-2.6199,-2.5396,-2.4856,-2.4712,-2.412,-2.3731,-2.3515,-2.3031,-2.2509,-2.2035,-2.1511,-2.1026,-2.0602,-2.0517,-2.016,-1.973,-1.9625,-1.9203,-1.8459,-1.7764,-1.7159,-1.6619,-1.6205,-1.5677,-1.4978,-1.4636,-1.4069,-1.3276,-1.1614,-1.0162,-0.8921,0.0,0.0,0.0,0.0,0.0,0.0,0.0,0.0,0.0,0.0,0.0,0.0,0.0,0.0,0.0,0.0,0.0,0.0,0.0,-1.7876,-1.7514,-1.7455,-1.7585,0.0,-1.6954,-1.6954,-1.6897,-1.6747,-1.6102,-1.6084,-1.6702,-1.6367,0.0,0.0,0.0,0.0,0.0,0.0,0.0,0.0,0.0,0.0,-3.5238,-3.704,-3.7898,-3.78,-3.5985,-3.582,0.0,0.0,-3.6108,-3.6596,-3.5572,-3.5168,-3.4932,-3.4079,-3.4411,-3.4967,-3.4939,-3.4348,-3.3657,-3.3608,-3.3606,-3.3433,-3.2786,-3.2804,-3.3008,-3.2668,-3.2608,-3.2509,-3.2208,-3.1762,-3.1367,-3.1086,-3.084,-3.0553,-2.9958,-2.9359,-2.8866,-2.8552,-2.7822,-2.7394,-2.7435,-2.691,-2.6502,-2.6416,-2.5983,-2.5652,-2.5568,-2.4925,-2.4521,-2.4289,-2.3658,-2.3014,-2.2408,-2.1912,-2.1383,-2.0834,-2.0792,-2.0436,-1.9891,-1.9738,-1.9305,-1.8709,-1.817,-1.7761,-1.7469,-1.7018,-1.6462,-1.5895,-1.5623,-1.4955,-1.3999,-1.2843,-1.1314,-0.985,0.0,0.0,0.0,0.0,0.0,0.0,0.0,0.0,0.0,0.0,0.0,0.0,0.0,0.0,0.0,0.0,0.0,0.0,0.0,-1.7379,-1.6754,-1.639,-1.6791,-1.6736,-1.6167,-1.615,-1.615,-1.613,-1.5213,-1.49,-1.5133,0.0,0.0,0.0,0.0,0.0,0.0,0.0,0.0,0.0,0.0,0.0,-3.6946,-3.9113,-4.0015,-3.9968,-3.8161,0.0,0.0,0.0,-3.729,-3.7246,-3.5833,-3.5234,0.0,-3.5351,-3.5244,-3.4884,-3.4389,-3.3853,-3.3475,-3.3688,-3.3418,-3.309,-3.2667,-3.2651,-3.2684,-3.2641,-3.2571,-3.2588,-3.2588,-3.1988,-3.1517,-3.1517,-3.0852,-3.0315,-3.0315,-2.938,-2.8679,-2.8679,-2.7716,-2.6998,-2.6983,-2.6983,-2.6852,-2.6544,-2.6431,-2.6242,-2.5927,-2.5413,-2.4991,-2.4623,-2.4179,-2.3587,-2.2856,-2.2408,-2.196,-2.1672,-2.1331,-2.1057,-2.0747,-1.9968,-1.9458,-1.9163,-1.8785,-1.8436,-1.8299,-1.8215,-1.7862,-1.7277,-1.6701,-1.5967,-1.5246,-1.418,-1.2525,-1.0644,0.0,0.0,0.0,0.0,0.0,0.0,0.0,0.0,0.0,0.0,0.0,0.0,0.0,0.0,0.0,0.0,0.0,0.0,0.0,-1.8487,-1.8062,-1.7788,-1.7917,-1.7788,-1.7308,-1.7291,-1.7105,-1.6693,-1.6031,-1.553,0.0,0.0,0.0,0.0,0.0,0.0,0.0,0.0,0.0,0.0,0.0,0.0,-3.8769,-4.0958,-4.157,-4.1218,0.0,0.0,0.0,0.0,-3.8613,-3.8175,-3.7377,-3.6366,-3.538,-3.4993,-3.4229,-3.3526,-3.3781,-3.348,-3.297,-3.2685,-3.2352,-3.1948,-3.1548,-3.1269,-3.1134,-3.1098,-3.0855,-3.0722,-3.0728,-3.0716,-3.064,-3.0403,-3.0541,-3.0521,-3.006,-2.9353,-2.889,-2.8722,-2.8112,-2.7643,-2.7725,-2.7274,-2.6939,-2.6837,-2.6779,-2.6619,-2.63,-2.6082,-2.5618,-2.4853,-2.4569,-2.4101,-2.3391,-2.2793,-2.2353,-2.2035,-2.1326,-2.1056,-2.1207,-2.0363,-1.9993,-1.9995,-1.9315,-1.8971,-1.8823,-1.8295,-1.7866,-1.7511,-1.6921,-1.6322,-1.566,-1.4903,-1.3706,-1.233,0.0,0.0,0.0,0.0,0.0,0.0,0.0,0.0,0.0,0.0,0.0,0.0,0.0,0.0,0.0,0.0,0.0,0.0,0.0,0.0,-1.9182,-1.9086,-1.9351,-1.9487,-1.939,-1.9447,-1.9215,-1.871,-1.7953,-1.7102,0.0,0.0,0.0,0.0,0.0,0.0,0.0,0.0,0.0,0.0,0.0,0.0,-4.0566,-4.3017,-4.3479,0.0,0.0,0.0,0.0,0.0,-3.9242,-3.8506,-3.8133,-3.7072,-3.5819,-3.4939,-3.4043,-3.3451,-3.3862,-3.3391,-3.2758,-3.2484,-3.2078,-3.1564,-3.0893,-3.0502,-3.024,-2.9943,-2.9681,-2.9547,-2.9557,-2.9771,-2.9895,-2.9787,-3.0015,-3.0103,-2.979,-2.9241,-2.8835,-2.8673,-2.8278,-2.8027,-2.8036,-2.7552,-2.7202,-2.7202,-2.7056,-2.6896,-2.6691,-2.6503,-2.6126,-2.5441,-2.5021,-2.4489,-2.3832,-2.3179,-2.2615,-2.2091,-2.1417,-2.1193,-2.1349,-2.0812,-2.0526,-2.0447,-2.007,-1.9768,-1.9617,-1.9088,-1.8693,-1.839,-1.7581,-1.68,-1.6131,-1.5355,-1.4396,-1.3183,0.0,0.0,0.0,0.0,0.0,0.0,0.0,0.0,0.0,0.0,0.0,0.0,0.0,0.0,0.0,0.0,0.0,0.0,0.0,0.0,0.0,-2.0297,-2.1062,-2.1727,-2.2226,-2.2347,-2.2243,-2.1953,-2.082,0.0,0.0,0.0,0.0,0.0,0.0,0.0,0.0,0.0,0.0,0.0,0.0,0.0,-4.2352,-4.5208,0.0,0.0,0.0,0.0,0.0,0.0,0.0,-3.8277,-3.8037,-3.7263,-3.6286,-3.508,-3.4597,-3.4417,-3.4307,-3.3568,-3.2815,-3.2979,-3.2536,-3.1664,-3.0582,-3.0355,-3.006,-2.9331,-2.9091,-2.9076,0.0,-2.9091,-2.9228,-2.9534,-2.929,-2.9229,-2.9503,-2.8988,-2.8567,-2.8507,-2.8238,-2.8043,-2.8014,-2.773,-2.7623,-2.7623,-2.7274,-2.6983,-2.6969,-2.6604,-2.6371,-2.6328,-2.5639,-2.4915,-2.4227,-2.3654,-2.298,-2.2013,-2.1778,-2.1639,-2.1479,-2.1174,-2.091,-2.0597,-2.091,-2.091,-2.0522,-2.0522,-2.0221,-1.9639,-1.8517,-1.7536,-1.6727,-1.5689,-1.457,-1.3299,0.0,0.0,0.0,0.0,0.0,0.0,0.0,0.0,0.0,0.0,0.0,0.0,0.0,0.0,0.0,0.0,0.0,0.0,0.0,0.0,0.0,0.0,0.0,0.0,0.0,0.0,0.0,0.0,0.0,0.0,0.0,0.0,0.0,0.0,0.0,0.0,0.0,0.0,0.0,0.0,0.0,0.0,-4.3771,0.0,0.0,0.0,0.0,0.0,0.0,0.0,0.0,0.0,-3.7472,-3.642,-3.5521,-3.4525,-3.4022,-3.3636,-3.2586,-3.2431,-3.2418,-3.198,-3.1113,-3.0335,-3.0034,-2.9299,-2.8612,-2.834,-2.7674,-2.7144,-2.7171,-2.7807,-2.8177,-2.7655,-2.8836,-2.967,-2.9198,-2.9241,-2.9077,-2.8639,0.0,-2.8282,-2.8094,-2.8046,-2.7985,-2.7985,-2.7347,-2.6881,-2.6647,-2.6779,-2.6359,-2.5354,-2.5522,-2.5184,-2.4303,-2.371,-2.3179,-2.2655,-2.1995,-2.1845,-2.2055,-2.1395,-2.121,-2.136,-2.121,-2.106,-2.091,-2.0597,-2.021,-1.9715,-1.8812,-1.7966,-1.7102,-1.6273,-1.538,-1.4464,0.0,0.0,0.0,0.0,0.0,0.0,0.0,0.0,0.0,0.0,0.0,0.0,0.0,0.0,0.0,0.0,0.0,0.0,0.0,0.0,0.0,0.0,0.0,0.0,0.0,0.0,0.0,0.0,0.0,0.0,0.0,0.0,0.0,0.0,0.0,0.0,0.0,0.0,0.0,0.0,0.0,0.0,0.0,0.0,0.0,0.0,0.0,0.0,0.0,0.0,0.0,-3.8687,-3.7321,-3.6217,-3.5402,-3.481,0.0,-3.3255,-3.2409,-3.198,-3.1653,-3.1105,-3.0054,-2.8979,-2.853,-2.7789,-2.7075,-2.6603,-2.6071,-2.5769,-2.5798,-2.6402,-2.6891,-2.6932,-2.8037,-2.889,-2.8916,-2.9094,-2.9082,0.0,-2.8747,0.0,-2.8323,-2.8297,-2.8274,-2.813,-2.7431,-2.7038,-2.6993,-2.6821,-2.6458,-2.5693,-2.5755,-2.5291,-2.4242,-2.3765,-2.3324,-2.3079,-2.2632,-2.2483,-2.2558,-2.2109,-2.181,-2.166,-2.166,-2.1522,-2.1372,-2.1048,-2.0748,-2.0252,-1.9253,-1.8477,-1.7842,-1.6972,-1.611,-1.5266,0.0,0.0,0.0,0.0,0.0,0.0,0.0,0.0,0.0,0.0,0.0,0.0,0.0,0.0,0.0,0.0,0.0,0.0,0.0,0.0,0.0,0.0,0.0,0.0,0.0,0.0,0.0,0.0,0.0,0.0,0.0,0.0,0.0,0.0,0.0,0.0,0.0,0.0,0.0,0.0,0.0,0.0,0.0,0.0,0.0,0.0,0.0,0.0,0.0,0.0,-3.8893,-3.821,-3.7429,-3.6379,-3.5496,-3.5352,-3.432,-3.3082,-3.2845,-3.179,-3.071,-3.0376,-2.9194,-2.7845,-2.6824,-2.6309,-2.5746,-2.4692,-2.4596,-2.4609,-2.4679,-2.4901,-2.5391,-2.6291,0.0,-2.7564,-2.8448,-2.8691,-2.8769,-2.8769,-2.8851,-2.8777,-2.8402,-2.8496,-2.8491,-2.813,-2.7493,-2.7203,-2.7548,-2.6818,-2.6457,-2.6429,-2.5984,-2.5254,-2.4182,-2.3832,-2.3598,-2.3462,-2.3426,-2.3228,-2.293,-2.293,-2.2558,-2.196,-2.2259,-2.2184,-2.1885,-2.1885,-2.1585,-2.1089,-1.983,-1.9133,-1.8643,-1.7684,-1.6887,-1.6037,0.0,0.0,0.0,0.0,0.0,0.0,0.0,0.0,0.0,0.0,-1.9692,-2.0402,0.0,0.0,0.0,0.0,0.0,0.0,0.0,0.0,0.0,0.0,0.0,0.0,0.0,0.0,0.0,0.0,0.0,0.0,0.0,0.0,0.0,0.0,0.0,0.0,0.0,0.0,0.0,0.0,0.0,0.0,0.0,0.0,0.0,0.0,0.0,0.0,0.0,0.0,-3.8736,-3.7993,-3.7582,-3.6314,-3.5055,-3.5033,-3.3935,-3.2588,-3.2152,-3.123,-3.0283,-2.9628,-2.8656,-2.7521,-2.6482,-2.5992,0.0,0.0,-2.3846,-2.3295,-2.3295,-2.3531,-2.3705,-2.3798,-2.5373,-2.6697,-2.705,-2.7654,-2.8034,0.0,-2.7938,-2.7777,-2.7703,-2.8009,-2.8202,-2.8145,-2.7494,-2.7155,-2.7203,-2.6479,-2.6081,-2.5984,-2.5412,-2.4961,-2.4688,-2.4268,-2.3859,-2.3546,-2.3484,-2.3364,-2.3302,-2.3005,-2.3005,-2.3079,-2.2856,-2.293,-2.3067,-2.2781,-2.2408,-2.19,-2.0646,-1.986,-1.9369,-1.8251,-1.7586,-1.7151,0.0,0.0,0.0,0.0,0.0,0.0,0.0,-1.8787,-1.9014,-1.9226,-1.9741,-2.0416,-2.1192,-2.1878,0.0,0.0,0.0,0.0,0.0,0.0,0.0,0.0,0.0,0.0,0.0,0.0,0.0,0.0,0.0,0.0,0.0,0.0,0.0,0.0,0.0,0.0,0.0,0.0,0.0,0.0,0.0,0.0,0.0,0.0,0.0,0.0,0.0,0.0,0.0,0.0,-3.7467,-3.6614,-3.7107,-3.6217,-3.4993,-3.4609,-3.3618,-3.2497,-3.1797,-3.0699,-2.9595,-2.8727,-2.7363,-2.6069,-2.4885,0.0,0.0,0.0,-2.2512,-2.2256,-2.2402,-2.2392,-2.254,-2.3179,-2.4282,-2.5478,-2.6627,-2.7162,-2.7592,-2.8093,-2.7909,-2.7748,-2.77,-2.8142,-2.8346,-2.813,-2.7885,-2.7599,-2.7413,-2.6546,-2.602,-2.5953,-2.5611,-2.5385,-2.541,-2.5129,-2.4788,-2.4436,-2.4556,-2.4327,-2.3748,-2.3748,-2.3674,-2.3364,-2.3228,-2.3228,-2.3364,-2.3228,-2.2781,-2.2124,-2.123,-2.0512,-1.9876,-1.8888,-1.8288,-1.7871,0.0,0.0,0.0,0.0,0.0,0.0,0.0,-1.8802,-1.9022,-1.9309,-1.9632,-2.024,-2.1267,-2.2089,-2.2746,0.0,0.0,0.0,0.0,0.0,0.0,0.0,0.0,0.0,0.0,0.0,0.0,0.0,0.0,0.0,0.0,0.0,0.0,0.0,0.0,0.0,0.0,0.0,0.0,0.0,0.0,0.0,0.0,0.0,0.0,0.0,0.0,0.0,0.0,0.0,-3.6122,-3.5201,-3.5817,-3.5447,-3.469,-3.3938,-3.3135,-3.231,-3.1588,-3.0343,-2.8905,-2.7766,-2.6253,-2.4679,-2.3243,-2.2649,0.0,-2.145,-2.124,-2.1238,-2.1458,-2.1309,-2.1501,0.0,-2.335,-2.4371,-2.6175,-2.6655,-2.7136,-2.8078,-2.7939,0.0,-2.7817,-2.8261,-2.8418,-2.813,-2.8104,-2.7943,-2.7605,-2.6583,-2.6084,-2.6158,-2.5838,-2.5712,-2.5712,-2.5739,-2.5531,-2.5107,-2.5597,-2.5286,-2.4267,-2.4562,-2.4327,-2.3661,-2.3735,-2.3735,-2.3661,-2.3661,-2.3215,-2.2496,-2.1873,-2.1234,-2.0598,-1.9594,-1.9063,-1.8578,0.0,0.0,0.0,0.0,0.0,0.0,0.0,-1.8807,-1.8595,-1.9455,-1.9438,-2.0088,-2.2078,-2.268,-2.3288,0.0,0.0,0.0,0.0,0.0,0.0,0.0,0.0,0.0,0.0,0.0,0.0,-3.039,-2.8433,0.0,0.0,0.0,0.0,0.0,0.0,-2.469,0.0,0.0,0.0,0.0,0.0,0.0,0.0,0.0,0.0,0.0,0.0,0.0,0.0,0.0,0.0,-3.4583,-3.3153,-3.316,-3.3572,-3.3053,0.0,0.0,-3.146,-3.0148,-2.851,-2.7035,-2.5871,-2.4547,-2.2586,0.0,-2.1779,-2.0811,-2.0356,-2.016,-2.0185,-2.0132,-2.0331,-2.1014,0.0,-2.3766,-2.4819,-2.5805,-2.6718,-2.7525,0.0,0.0,-2.7495,-2.7921,-2.813,-2.8057,-2.7903,-2.7602,-2.7253,-2.6517,-2.6195,-2.6549,-2.5682,-2.5124,-2.5054,-2.5298,-2.5243,-2.4903,-2.5534,-2.558,-2.5079,-2.5139,-2.4918,-2.4488,-2.4918,-2.4844,-2.4488,-2.4488,-2.4267,-2.3684,-2.2453,-2.1941,-2.1748,-2.0508,-1.997,-1.9762,0.0,0.0,0.0,0.0,0.0,0.0,-1.9575,-1.9679,-1.9752,-1.949,-1.9943,-2.0665,-2.1697,-2.2709,-2.3677,-2.4619,0.0,0.0,0.0,0.0,0.0,0.0,0.0,0.0,0.0,0.0,0.0,-2.8877,-2.6847,0.0,0.0,0.0,0.0,0.0,0.0,-2.5888,-2.6956,0.0,0.0,0.0,0.0,0.0,0.0,0.0,0.0,0.0,0.0,0.0,0.0,0.0,0.0,0.0,-3.1987,-3.1349,0.0,0.0,-3.0727,-3.0105,-3.0147,-2.9193,-2.7833,-2.6635,-2.524,-2.3708,-2.1806,0.0,-2.0696,-2.0045,-1.9662,-1.9601,-1.9955,-1.9856,-1.9931,-2.0488,0.0,0.0,-2.3752,-2.483,-2.5869,-2.6749,-2.6925,-2.7115,-2.7452,-2.7833,-2.8289,-2.8794,-2.8271,-2.7936,-2.7779,-2.6908,-2.6268,-2.5918,-2.5943,-2.6007,-2.5908,-2.6024,-2.597,-2.5797,-2.6271,-2.618,-2.5593,-2.58,-2.5726,-2.5359,-2.5506,-2.5506,-2.5286,-2.5286,-2.4918,-2.4275,-2.3393,-2.2814,-2.2262,-2.0929,-2.0457,-2.0201,0.0,0.0,0.0,0.0,0.0,-2.0628,-2.012,-2.0361,-2.0469,-2.0048,-2.0561,-2.1141,-2.1732,-2.3029,-2.4209,-2.5052,-2.5887,0.0,0.0,0.0,0.0,0.0,0.0,0.0,0.0,0.0,0.0,-2.7644,-2.6145,-2.4767,0.0,0.0,-2.3239,-2.3121,0.0,0.0,0.0,0.0,0.0,0.0,0.0,0.0,0.0,0.0,0.0,0.0,0.0,0.0,0.0,0.0,0.0,0.0,0.0,0.0,0.0,0.0,-2.9453,-2.8889,-2.8818,-2.8161,-2.7251,-2.6032,-2.4694,-2.3168,0.0,0.0,-1.995,-1.9434,-1.9201,-1.9197,-1.9508,-1.9579,-1.9732,0.0,0.0,-2.1988,-2.2985,-2.4129,-2.5283,-2.6255,-2.6619,-2.6939,-2.7305,-2.77,-2.8202,-2.8938,-2.8388,-2.7982,-2.7755,-2.7108,-2.6512,-2.5864,-2.622,-2.6414,-2.6357,-2.6479,-2.6471,-2.6489,-2.6823,-2.6619,-2.6019,-2.6385,-2.6312,-2.58,-2.6019,-2.6019,-2.58,-2.5946,-2.5524,-2.4742,-2.4156,-2.3474,-2.2647,-2.1602,-2.1012,-2.0629,0.0,0.0,0.0,0.0,0.0,0.0,-2.1534,-2.0691,-2.0351,-2.126,-2.1178,-2.144,-2.257,-2.3945,-2.5002,-2.5543,-2.6212,0.0,0.0,0.0,0.0,0.0,0.0,0.0,0.0,0.0,-2.8024,-2.7002,-2.667,-2.598,-2.4972,-2.4758,-2.4615,-2.4551,0.0,0.0,0.0,0.0,0.0,0.0,0.0,0.0,0.0,0.0,0.0,0.0,0.0,0.0,0.0,0.0,0.0,0.0,0.0,0.0,0.0,0.0,-2.8715,-2.857,-2.7925,-2.7457,-2.6867,-2.5375,-2.4266,-2.3156,0.0,0.0,-1.9809,-1.9143,-1.9071,-1.9008,-1.8635,-1.9136,-1.9606,-1.9487,0.0,0.0,-2.2732,-2.395,-2.5233,0.0,-2.6399,-2.6546,-2.6998,-2.7347,-2.7768,-2.8072,-2.7872,-2.7416,-2.6633,-2.6972,-2.7024,-2.6687,-2.6313,-2.6078,-2.6093,-2.6403,-2.6593,-2.6608,-2.6907,-2.6765,-2.6399,-2.6838,-2.6546,-2.5873,-2.6619,-2.6546,-2.58,-2.6239,-2.5981,-2.5238,-2.4561,-2.3907,-2.319,-2.2553,-2.1829,-2.1101,0.0,0.0,0.0,0.0,0.0,0.0,0.0,-2.1915,-2.1939,-2.2266,-2.2544,-2.2871,-2.3266,-2.4123,-2.4728,-2.4895,-2.5744,0.0,0.0,0.0,0.0,0.0,0.0,0.0,0.0,0.0,-2.7765,-2.6796,-2.6598,-2.6218,-2.5669,-2.6159,-2.644,-2.6545,-2.8248,0.0,0.0,0.0,0.0,0.0,0.0,0.0,0.0,0.0,0.0,0.0,0.0,0.0,0.0,0.0,0.0,0.0,0.0,0.0,0.0,0.0,0.0,0.0,-2.5688,-2.5321,-2.4788,-2.3667,-2.2921,-2.2058,-2.0392,-1.979,-1.9291,-1.839,-1.843,-1.8511,-1.8272,-1.8932,-1.9601,-1.9704,-2.0956,0.0,0.0,0.0,0.0,-2.5327,-2.62,-2.6983,-2.7347,-2.7274,-2.7475,-2.811,-2.7593,-2.7239,-2.7008,-2.7118,-2.6847,-2.5945,-2.6326,-2.6614,-2.6802,-2.6892,-2.7155,-2.761,-2.7677,-2.7565,-2.7187,-2.7332,-2.7129,-2.6619,-2.691,-2.6838,-2.6619,-2.6765,-2.6358,-2.5669,-2.5002,-2.4329,-2.3608,-2.2622,-2.2035,-2.1484,0.0,0.0,0.0,0.0,0.0,0.0,0.0,-2.2598,-2.2831,-2.3133,-2.3592,-2.3862,-2.3853,-2.4682,-2.5119,-2.4912,-2.5515,0.0,0.0,0.0,0.0,0.0,0.0,0.0,0.0,-2.8142,-2.7926,-2.6691,-2.7244,-2.7224,-2.6658,-2.7295,-2.7856,-2.8283,-2.9477,0.0,0.0,0.0,0.0,0.0,0.0,0.0,-3.9293,0.0,0.0,0.0,0.0,0.0,0.0,0.0,0.0,0.0,0.0,0.0,0.0,0.0,-2.492,-2.4408,0.0,-2.4097,-2.3695,-2.2649,-2.1939,0.0,0.0,-1.9475,-1.9057,-1.8217,-1.8226,-1.8288,-1.7897,-1.8483,-1.9136,-1.9468,-2.0441,-2.1416,-2.216,-2.3501,-2.4668,-2.5369,-2.6373,-2.7129,-2.7347,-2.7129,-2.7214,-2.7743,-2.7321,-2.6985,-2.6786,-2.7055,-2.68,-2.5794,-2.6532,-2.6999,-2.7338,-2.7339,-2.7623,-2.8177,-2.8084,-2.7913,-2.7623,-2.7623,-2.742,-2.6983,-2.6983,-2.6983,0.0,-2.6983,-2.6576,-2.5869,-2.5314,-2.4694,-2.3969,-2.3238,-2.2618,-2.2064,0.0,0.0,0.0,0.0,0.0,0.0,0.0,-2.2861,-2.309,-2.396,-2.436,-2.4524,-2.4525,-2.5542,-2.6025,-2.556,0.0,0.0,0.0,0.0,0.0,0.0,0.0,0.0,0.0,-2.8646,-2.8384,-2.6806,-2.8412,-2.8736,-2.7856,-2.8284,-2.8953,-2.9819,-3.0284,0.0,0.0,0.0,0.0,0.0,0.0,0.0,0.0,0.0,0.0,0.0,0.0,0.0,0.0,0.0,0.0,0.0,0.0,0.0,0.0,0.0,0.0,0.0,0.0,-2.3388,-2.3168,-2.2121,-2.1286,-2.0558,-2.0219,-1.9619,0.0,-1.834,-1.825,-1.8157,-1.7607,-1.781,-1.8289,-1.8916,-1.9639,-2.0613,-2.2078,-2.3201,-2.4528,-2.6168,-2.6765,-2.6983,-2.6954,-2.6954,-2.6952,-2.6956,-2.7064,-2.68,-2.6207,-2.6838,-2.6867,-2.6197,-2.6898,-2.7391,-2.7725,-2.773,-2.7936,-2.8224,-2.8192,-2.7985,-2.7695,-2.7623,-2.742,-2.7056,-2.6983,-2.6983,-2.6983,-2.6983,-2.6603,-2.5947,-2.5695,-2.5058,-2.4344,-2.3997,-2.344,-2.2741,0.0,0.0,0.0,0.0,0.0,0.0,0.0,0.0,0.0,0.0,-2.4899,-2.5369,-2.6465,-2.6595,-2.6543,0.0,0.0,0.0,0.0,0.0,0.0,0.0,0.0,0.0,0.0,-2.841,-2.8336,-2.8011,-2.8757,-2.9116,-2.9082,-2.9863,-3.0762,-3.1759,-3.2272,0.0,0.0,0.0,0.0,0.0,0.0,0.0,0.0,0.0,0.0,0.0,-3.7156,-3.5845,0.0,0.0,0.0,0.0,0.0,0.0,0.0,0.0,-2.3655,-2.29,-2.1968,0.0,-2.1131,-2.0349,-1.9785,-1.9267,0.0,0.0,0.0,0.0,0.0,0.0,-1.716,-1.8003,-1.8944,-1.9381,-2.0731,-2.1824,-2.2154,-2.3624,-2.5114,-2.6241,-2.6765,-2.6896,-2.6647,-2.6617,-2.6653,-2.6686,-2.6718,-2.6793,-2.6941,-2.7115,-2.7134,-2.6934,-2.7336,-2.7645,-2.7725,-2.7921,-2.8269,-2.8632,-2.8909,-2.8779,-2.8418,-2.813,-2.7768,-2.742,-2.7129,-2.6983,-2.6983,-2.6983,-2.6603,-2.5962,-2.594,-2.5257,-2.4344,-2.3997,-2.344,-2.2714,0.0,0.0,0.0,0.0,0.0,0.0,0.0,0.0,0.0,0.0,0.0,0.0,0.0,0.0,0.0,0.0,0.0,0.0,0.0,0.0,0.0,0.0,0.0,0.0,-2.836,-2.8612,-2.8578,-2.8324,-2.9185,-2.961,-2.9642,-3.0792,-3.1817,-3.2718,-3.3767,0.0,0.0,0.0,0.0,0.0,-3.8113,0.0,0.0,0.0,0.0,0.0,-3.6103,-3.469,0.0,-3.2043,-3.0648,-2.8969,0.0,0.0,0.0,0.0,-2.2855,-2.192,-2.0791,-2.0655,-2.0644,-2.0125,-1.9412,-1.8827,-1.8396,0.0,0.0,0.0,0.0,0.0,0.0,-1.7763,-1.874,-1.9485,-2.0469,-2.152,-2.2531,-2.4161,-2.5566,-2.6284,-2.6634,-2.6705,-2.6515,-2.6511,-2.6568,-2.6581,-2.6755,-2.6873,-2.6949,-2.7134,-2.7134,-2.7,-2.7324,-2.7566,-2.7725,-2.8233,-2.8567,-2.8773,-2.9123,-2.9066,-2.8691,-2.8491,-2.8057,-2.755,-2.7347,-2.7202,-2.6983,-2.6983,-2.6603,-2.6047,-2.617,-2.554,-2.4636,-2.4428,-2.3911,-2.3204,0.0,0.0,0.0,0.0,0.0,0.0,0.0,0.0,0.0,0.0,0.0,0.0,0.0,0.0,0.0,0.0,0.0,0.0,0.0,0.0,0.0,0.0,0.0,-2.7404,-2.8325,-2.8784,-2.8779,-2.8339,-2.952,-3.0046,-2.997,-3.1446,-3.2591,-3.3517,-3.505,-3.5584,0.0,0.0,0.0,0.0,-3.796,0.0,0.0,0.0,0.0,0.0,0.0,0.0,0.0,-3.1043,-2.9661,-2.7958,-2.7007,0.0,0.0,0.0,0.0,0.0,-2.0045,-2.0349,-2.0798,-2.0257,-1.9416,-1.8653,-1.8541,0.0,0.0,0.0,0.0,0.0,0.0,-1.7608,-1.8474,-1.9484,-1.9935,-2.0979,-2.3112,-2.477,-2.5876,-2.6241,-2.6445,-2.6471,-2.644,-2.6472,-2.6577,-2.6626,-2.6883,-2.6962,-2.6816,-2.7067,-2.7067,-2.68,-2.7115,-2.7423,-2.7793,-2.843,-2.871,-2.8773,-2.9123,-2.9138,-2.8779,-2.8707,-2.8346,-2.7695,-2.7623,-2.7347,-2.6983,-2.6983,-2.6632,-2.612,-2.6457,-2.5896,-2.4999,-2.4918,-2.4469,-2.3719,0.0,0.0,0.0,0.0,0.0,0.0,0.0,0.0,0.0,0.0,0.0,0.0,0.0,0.0,0.0,0.0,0.0,0.0,0.0,0.0,0.0,0.0,-2.7268,-2.7199,-2.8144,-2.8158,-2.8465,-2.8947,-2.9467,-3.0119,-3.0894,-3.2101,-3.3712,-3.5562,-3.6408,-3.66,-3.6352,-3.7405,-3.7677,-3.7327,-3.7281,0.0,0.0,0.0,0.0,0.0,0.0,0.0,0.0,-3.0558,-2.8993,-2.7012,-2.6123,0.0,0.0,0.0,0.0,0.0,-1.9979,-2.0081,-2.0257,-1.9215,-1.8483,-1.7972,-1.774,-1.7337,0.0,0.0,0.0,0.0,0.0,-1.8334,-1.9484,-1.9815,-2.116,-2.2709,-2.4189,-2.5011,-2.5552,-2.5912,-2.6315,-2.6437,-2.6156,-2.6205,-2.6299,-2.6625,-2.6744,-2.6847,-2.7134,-2.72,-2.72,-2.7134,-2.7419,-2.7813,-2.8199,-2.8244,-2.8456,-2.8773,-2.9123,-2.9298,-2.9226,-2.8851,-2.8418,-2.7985,-2.7695,-2.7347,-2.6983,-2.6983,-2.6764,-2.6457,-2.6793,-2.63,-2.5298,-2.5003,-2.4469,-2.3678,0.0,0.0,0.0,0.0,0.0,0.0,0.0,0.0,0.0,0.0,0.0,0.0,0.0,0.0,0.0,0.0,0.0,0.0,0.0,0.0,0.0,-2.8424,-2.7425,-2.7075,-2.7507,-2.7754,-2.8249,-2.8958,-2.9369,-3.0285,-3.1633,-3.3426,-3.515,-3.6739,-3.6813,-3.6754,-3.6631,-3.7071,-3.7177,-3.7055,0.0,0.0,0.0,0.0,0.0,0.0,0.0,0.0,0.0,0.0,-2.8248,-2.6545,-2.5629,0.0,0.0,0.0,0.0,0.0,-1.9408,-1.9324,-1.9374,-1.9015,-1.9059,-1.9072,-1.8676,-1.8273,0.0,0.0,0.0,0.0,0.0,-1.8611,-1.9947,-2.0924,-2.2199,-2.3314,-2.4223,-2.5066,-2.5735,-2.6098,-2.6385,-2.6487,-2.6399,-2.6383,-2.6501,-2.6682,-2.6867,-2.7067,-2.72,-2.72,-2.72,-2.72,-2.7359,-2.7832,-2.8542,-2.8567,-2.8702,-2.9055,-2.9194,-2.9298,-2.9298,-2.9138,-2.8707,-2.8057,-2.7913,-2.7638,-2.7347,-2.7056,-2.6938,-2.6816,-2.6924,-2.6373,-2.5356,-2.4624,-2.3802,-2.2977,0.0,0.0,0.0,0.0,0.0,0.0,0.0,0.0,0.0,0.0,0.0,0.0,0.0,0.0,0.0,0.0,0.0,0.0,0.0,0.0,-2.9091,-2.8928,-2.782,-2.7062,-2.6816,-2.7289,-2.7894,-2.8615,-2.9212,-3.0397,-3.2167,-3.4182,-3.5795,-3.7018,-3.6939,-3.6879,-3.694,-3.6947,-3.6956,-3.6787,0.0,0.0,0.0,0.0,0.0,0.0,0.0,0.0,0.0,0.0,0.0,0.0,0.0,0.0,0.0,-2.1899,-2.0572,-1.9341,-1.8924,-1.8741,-1.8704,-1.8832,-1.9272,-1.9668,-1.9635,-1.9049,0.0,0.0,0.0,0.0,-1.7988,-1.9125,-2.0486,-2.1892,-2.2996,-2.378,-2.4136,-2.5226,-2.6036,-2.6257,-2.6467,-2.6604,-2.6647,-2.6639,-2.6702,-2.6675,-2.6941,-2.7073,-2.7073,-2.7073,-2.7121,-2.72,-2.72,-2.7704,-2.8672,-2.8684,-2.8943,-2.9466,-2.9456,-2.9369,-2.9298,-2.9298,-2.8866,-2.8057,-2.8057,-2.7913,-2.755,-2.7202,-2.7054,-2.7191,-2.7026,-2.6301,-2.5186,-2.4317,-2.3321,-2.2448,0.0,0.0,0.0,0.0,0.0,0.0,0.0,0.0,0.0,0.0,0.0,0.0,0.0,0.0,0.0,0.0,0.0,0.0,0.0,0.0,-2.9285,-2.9531,-2.842,-2.7357,-2.6283,-2.6602,-2.7196,-2.8065,-2.8771,-3.0275,-3.2497,-3.3457,-3.4606,-3.5883,-3.6971,-3.7526,-3.7652,-3.7778,-3.7515,-3.7001,-3.5683,0.0,0.0,0.0,0.0,0.0,0.0,0.0,0.0,0.0,0.0,0.0,0.0,0.0,-2.2254,-2.2131,-2.0945,-1.9515,-1.8936,-1.8704,-1.8547,-1.8238,-1.8143,-1.8361,-1.9492,-1.8801,0.0,-1.8891,0.0,0.0,0.0,-2.0321,-2.1486,-2.1966,-2.3447,-2.4456,-2.4222,-2.5458,-2.6243,-2.6079,-2.6343,-2.6617,-2.6656,-2.6697,-2.6726,-2.6674,-2.6708,-2.6708,-2.6708,-2.6708,-2.6867,-2.72,-2.72,-2.7576,-2.83,-2.828,-2.8777,-2.9894,-2.9855,-2.9656,-2.9298,-2.9298,-2.8866,-2.8057,-2.8057,-2.7913,-2.755,-2.7202,-2.7187,-2.752,-2.7129,-2.6157,-2.4904,-2.4526,-2.3735,-2.2791,0.0,0.0,0.0,0.0,0.0,0.0,0.0,0.0,0.0,0.0,0.0,0.0,0.0,0.0,0.0,0.0,0.0,0.0,0.0,0.0,-3.0199,-2.9794,-2.9426,-2.8705,-2.7464,-2.7087,-2.7074,-2.7498,-2.9631,-3.1295,-3.2527,-3.3758,-3.4729,-3.54,-3.6196,-3.6593,-3.6654,-3.6872,-3.6671,-3.6153,-3.5639,-3.4715,0.0,0.0,0.0,0.0,0.0,0.0,0.0,0.0,-2.6593,-2.5547,-2.4583,-2.3425,-2.23,-2.1372,-2.0337,-1.9361,-1.8914,-1.8886,-1.893,-1.878,-1.8811,0.0,0.0,-2.0281,-2.04,-2.0873,-2.0943,0.0,0.0,-2.0651,-2.1246,-2.2453,-2.3049,-2.3668,-2.4747,-2.5196,-2.5712,-2.6328,-2.6538,-2.671,-2.6941,-2.6988,-2.7016,-2.7019,-2.6793,-2.6761,-2.7003,-2.6807,-2.6966,-2.7501,-2.7334,-2.774,-2.8916,-2.8721,-2.9002,-2.9926,-2.9656,-2.9441,-2.9298,-2.9298,-2.8995,-2.8491,-2.8491,-2.8418,-2.8274,-2.7623,-2.7565,-2.7825,-2.6749,-2.5755,-2.4834,-2.4317,-2.3597,-2.2859,0.0,0.0,0.0,0.0,0.0,0.0,0.0,0.0,0.0,0.0,0.0,0.0,0.0,0.0,0.0,0.0,0.0,0.0,0.0,-3.0587,-3.0693,-3.0438,-3.0166,-2.955,-2.8546,-2.7643,-2.736,-2.7764,-3.019,-3.1571,-3.208,-3.3396,-3.4061,-3.4181,-3.5396,-3.582,-3.5667,-3.619,-3.6145,-3.5629,-3.5309,-3.4389,0.0,0.0,0.0,0.0,0.0,0.0,0.0,0.0,-2.6125,-2.5266,-2.4177,-2.3263,-2.2345,-2.1317,-2.0376,-1.9595,-1.9092,-1.9098,-1.9174,-1.9127,0.0,0.0,-2.0796,-2.1147,-2.1426,-2.1982,-2.182,-2.1542,-2.1432,0.0,-2.1483,-2.2569,-2.3112,-2.3816,-2.4901,-2.5158,-2.5552,-2.6499,-2.6618,-2.6663,-2.6936,-2.7094,-2.7117,-2.6874,-2.6631,-2.6599,-2.697,-2.6842,-2.6986,-2.7538,-2.7535,-2.7957,-2.8813,-2.8806,-2.9024,-2.955,-2.9377,-2.9298,-2.9298,-2.9298,-2.9066,-2.8691,-2.8691,-2.8691,-2.8635,-2.7913,-2.7623,-2.768,-2.6662,-2.5741,-2.4989,-2.4568,-2.3818,-2.3065,0.0,0.0,0.0,0.0,0.0,0.0,0.0,0.0,0.0,0.0,0.0,0.0,0.0,0.0,0.0,0.0,0.0,0.0,0.0,-3.0225,-3.0601,-3.1453,-3.047,-2.9698,-2.9216,-2.8197,-2.8107,-2.9002,-3.0206,-3.0895,-3.1132,-3.205,-3.2256,-3.1917,-3.4604,-3.5419,-3.4875,-3.6009,-3.6183,-3.558,-3.4524,-3.3437,-3.24,0.0,0.0,0.0,0.0,0.0,0.0,0.0,-2.5275,-2.4879,-2.4282,-2.337,-2.2418,-2.2123,-2.1322,-2.0442,-1.9527,-1.9253,-1.9174,-1.9103,0.0,0.0,-2.1432,-2.1,-2.0587,-2.1918,-2.1685,-2.1381,-2.1998,-2.2371,-2.2497,-2.223,-2.3924,-2.5042,-2.4498,-2.531,-2.6165,-2.6581,-2.6603,-2.6614,-2.6674,-2.7003,-2.689,-2.6177,-2.6113,-2.6238,-2.6566,-2.6659,-2.6842,-2.7198,-2.7949,-2.8111,-2.7725,-2.8418,-2.8772,-2.8773,-2.9123,-2.9298,-2.9298,-2.9298,-2.9066,-2.8691,-2.8691,-2.8691,-2.8635,-2.7913,-2.7347,-2.6983,-2.6983,-2.6373,-2.5525,-2.5511,-2.4623,-2.3406,0.0,0.0,0.0,0.0,0.0,0.0,0.0,0.0,0.0,0.0,0.0,0.0,0.0,0.0,0.0,0.0,0.0,0.0,0.0,-3.0323,-3.075,-3.0526,-3.0851,-3.0805,-3.0326,-3.0587,-3.0375,-2.9777,-3.0477,-3.1249,-3.208,-3.19,-3.2017,-3.2462,-3.3156,-3.3814,-3.4435,-3.5106,-3.5066,-3.4582,-3.4918,-3.3956,-3.24,0.0,0.0,0.0,0.0,0.0,0.0,0.0,0.0,0.0,-2.3729,-2.3003,-2.2295,-2.1242,-2.0632,-2.0103,-1.9193,-1.9402,-1.9876,-1.9899,-2.0514,0.0,0.0,-2.203,0.0,0.0,-2.2819,-2.2447,-2.2834,-2.2422,-2.232,-2.306,-2.3413,-2.3885,-2.4553,-2.4858,-2.5301,-2.6163,-2.6283,-2.6527,-2.7306,-2.7247,-2.7175,-2.7197,-2.6715,-2.671,-2.7353,-2.7187,-2.747,-2.8294,-2.8327,-2.8621,-2.9255,-2.8927,-2.9071,-2.9567,-2.9393,-2.9298,-2.9298,-2.9298,-2.9066,-2.8691,-2.8691,-2.8563,-2.8202,-2.7768,-2.7347,-2.6939,-2.6486,-2.5981,-2.5468,-2.4954,-2.4394,-2.3747,0.0,0.0,0.0,0.0,0.0,0.0,0.0,0.0,0.0,0.0,0.0,0.0,0.0,0.0,0.0,0.0,0.0,0.0,0.0,0.0,-3.0719,-3.0697,-3.0968,-3.1004,-3.0746,-3.1542,-3.1776,-3.1292,-3.1363,-3.1604,-3.202,-3.1362,-3.1117,-3.1196,-3.1895,-3.2378,-3.2671,-3.3699,-3.3988,-3.3777,-3.4101,-3.3541,-3.248,0.0,0.0,0.0,0.0,0.0,0.0,0.0,0.0,0.0,-2.3162,-2.2554,-2.2045,-2.1012,-2.0786,-2.0754,-1.9977,-2.0328,-2.1016,-2.1235,-2.1738,-2.2324,-2.2984,0.0,0.0,0.0,-2.306,-2.2701,-2.3119,-2.2665,-2.2453,-2.3125,-2.3394,-2.3735,-2.44,-2.4739,-2.5255,-2.6011,-2.6264,-2.6557,-2.7181,-2.7164,-2.7167,-2.726,-2.6823,-2.6884,-2.7599,-2.747,-2.7774,-2.8555,-2.866,-2.8959,-2.9478,-2.9146,-2.9228,-2.9644,-2.9447,-2.9313,-2.9298,-2.9298,-2.9154,-2.8923,-2.8779,-2.8563,-2.8274,-2.7768,-2.7478,-2.7143,-2.6484,-2.5993,-2.5594,-2.5089,-2.4542,-2.3952,0.0,0.0,0.0,0.0,0.0,0.0,0.0,0.0,0.0,0.0,0.0,0.0,0.0,0.0,0.0,0.0,0.0,0.0,0.0,0.0,-3.0522,-3.1437,-3.1006,-3.0774,-3.0862,-3.1748,-3.261,-3.3321,-3.2643,-3.205,-3.1485,-3.0765,-2.9943,-2.9078,-3.0805,-3.1149,-3.0509,-3.2253,-3.3112,-3.3226,-3.2687,-3.2521,-3.2514,-3.1792,0.0,0.0,0.0,0.0,0.0,0.0,0.0,0.0,-2.2787,-2.2193,-2.1811,-2.1127,-2.1425,-2.182,-2.1234,-2.1605,-2.2217,-2.2902,-2.2869,-2.2943,-2.3828,-2.3475,-2.309,-2.333,-2.2796,-2.2562,-2.3151,-2.2994,-2.2797,-2.2863,-2.3719,-2.4288,-2.4104,-2.4931,-2.5659,-2.6032,-2.6352,-2.6619,-2.6648,-2.6886,-2.6968,-2.6732,-2.6648,-2.6922,-2.7638,-2.773,-2.7929,-2.8334,-2.8966,-2.9191,-2.8875,-2.9177,-2.934,-2.9406,-2.9336,-2.9318,-2.9369,-2.9298,-2.9226,-2.9154,-2.8779,-2.8635,-2.8563,-2.7913,-2.7623,-2.752,-2.6803,-2.6281,-2.5974,-2.5622,-2.489,-2.4102,0.0,0.0,0.0,0.0,0.0,0.0,0.0,0.0,0.0,0.0,0.0,0.0,0.0,0.0,0.0,0.0,0.0,0.0,0.0,0.0,-3.023,-3.0558,-3.1452,-3.2227,-3.2883,-3.36,-3.4288,-3.4974,-3.3304,-3.2646,-3.2975,-3.0904,-3.0165,-3.0516,-3.0208,-3.0763,-3.1961,-3.2544,-3.3151,-3.3716,-3.3268,-3.2591,-3.167,-3.1128,-3.0404,0.0,0.0,0.0,0.0,0.0,0.0,0.0,-2.2938,-2.238,-2.1913,-2.079,-2.1056,-2.1502,-2.07,-2.1158,-2.2053,-2.3247,-2.4006,-2.4356,-2.4074,-2.3884,-2.3776,-2.3803,-2.3211,-2.2977,-2.359,-2.3257,-2.3113,-2.3806,-2.4039,-2.4257,-2.4633,-2.5008,-2.5301,-2.5646,-2.5799,-2.6171,-2.6968,-2.6846,-2.6927,-2.7378,-2.7166,-2.7425,-2.839,-2.8197,-2.8494,-2.9405,-2.934,-2.9395,-2.963,-2.9444,-2.9589,-3.016,-2.9617,-2.946,-2.9783,-2.9441,-2.8938,-2.8346,-2.7985,-2.784,-2.784,-2.7695,-2.7623,-2.7563,-2.6836,-2.6343,-2.5944,-2.5374,-2.5042,-2.4892,0.0,0.0,0.0,0.0,0.0,0.0,0.0,0.0,0.0,0.0,0.0,0.0,0.0,0.0,0.0,0.0,0.0,0.0,0.0,0.0,0.0,0.0,-3.234,-3.3152,-3.3963,0.0,0.0,0.0,-3.4206,-3.3396,-3.3096,-3.1715,-3.1046,-3.0995,-3.0774,-3.1091,-3.1872,-3.1897,-3.2309,-3.2906,-3.2432,-3.1951,-3.1471,-3.0905,-3.0109,-2.92,-2.8637,0.0,0.0,0.0,0.0,0.0,0.0,0.0,-2.1363,-2.0521,-2.0647,-2.0988,-2.0579,-2.1307,-2.2468,-2.3779,-2.4687,-2.5075,-2.4444,-2.4395,-2.4442,-2.4252,-2.383,-2.3447,-2.3622,-2.3349,-2.331,-2.3761,-2.397,-2.4144,-2.4656,-2.509,-2.5426,-2.5591,-2.5751,-2.6166,-2.6832,-2.6744,-2.6856,-2.753,-2.7401,-2.7678,-2.8561,-2.8647,-2.9014,-2.9784,-2.9647,-2.9656,-2.9872,-2.9479,-2.958,-3.0169,-2.9563,-2.9493,-2.9855,-2.9513,-2.9082,-2.865,-2.8274,-2.8274,-2.8346,-2.7985,-2.7913,-2.8053,-2.717,-2.6633,-2.6224,-2.5736,-2.5354,-2.5056,0.0,0.0,0.0,0.0,0.0,0.0,0.0,0.0,0.0,0.0,0.0,0.0,0.0,0.0,0.0,0.0,0.0,0.0,0.0,0.0,0.0,0.0,-3.3234,-3.3809,-3.4503,0.0,0.0,0.0,-3.4903,-3.415,-3.3367,-3.2796,-3.2103,-3.1304,-3.1709,-3.1779,-3.1605,-3.1485,-3.176,-3.2188,-3.1652,-3.144,-3.1369,-3.0708,-2.9767,-2.8718,-2.8337,-2.777,-2.6995,-2.5814,0.0,0.0,0.0,0.0,-2.0724,-2.0313,-2.03,-2.0401,-2.053,-2.1597,-2.2951,-2.4013,-2.4864,-2.5353,-2.4753,-2.4797,-2.4958,-2.476,-2.4348,-2.3898,-2.3611,-2.3543,-2.3543,-2.3611,-2.3884,-2.4238,-2.4563,-2.5108,-2.5545,-2.5484,-2.5892,-2.6231,-2.65,-2.6591,-2.689,-2.7478,-2.7581,-2.7912,-2.8755,-2.903,-2.9466,-2.9974,-2.9907,-2.9887,-2.9887,-2.9561,-2.9592,-3.0004,-2.966,-2.9625,-2.9916,-2.9552,-2.9369,-2.9298,-2.8851,-2.8923,-2.9154,-2.8491,-2.8418,-2.8629,-2.7654,-2.7059,-2.6748,-2.6433,-2.583,-2.5305,0.0,0.0,0.0,0.0,0.0,0.0,0.0,0.0,0.0,0.0,0.0,0.0,0.0,0.0,0.0,0.0,0.0,0.0,0.0,0.0,0.0,0.0,-3.363,-3.4382,0.0,0.0,0.0,-3.5522,-3.4389,-3.4632,-3.6107,-3.3788,-3.2584,-3.2462,-3.2229,-3.2466,-3.2967,-3.3027,-3.3306,-3.3591,-3.301,-3.1944,-3.0713,-2.9847,-2.8846,-2.7864,-2.6977,-2.6697,-2.6514,-2.5474,-2.457,0.0,0.0,0.0,-2.0571,-1.9978,-1.9878,-2.0015,-2.0089,-2.1552,-2.3067,-2.3245,-2.4212,-2.505,-2.468,-2.4854,-2.5092,-2.5047,-2.4482,-2.4088,-2.4292,-2.4088,-2.402,-2.4292,-2.4428,-2.4578,-2.4984,-2.5108,-2.5191,-2.5165,-2.5468,-2.5814,-2.6121,-2.6716,-2.7168,-2.7461,-2.7762,-2.84,-2.9501,-2.9342,-2.9653,-3.0707,-3.0473,-3.0313,-3.0313,-2.9952,-2.9917,-3.0368,-3.0258,-3.0143,-2.9909,-2.9867,-2.9656,-2.9298,-2.8851,-2.8707,-2.8779,-2.8619,-2.8619,-2.866,-2.82,-2.7848,-2.7534,-2.7198,-2.6783,-2.6464,0.0,0.0,0.0,0.0,0.0,0.0,0.0,0.0,0.0,0.0,0.0,0.0,0.0,0.0,0.0,0.0,0.0,0.0,0.0,0.0,0.0,-3.3327,-3.411,-3.4535,-3.4629,0.0,0.0,-3.4664,-3.4484,-3.5028,-3.6137,-3.5686,-3.5475,-3.5475,-3.4733,-3.4268,-3.3986,-3.3223,-3.2939,-3.2964,-3.2653,-3.2317,-3.191,0.0,0.0,0.0,0.0,0.0,-2.5995,-2.4876,-2.4067,-2.3284,-2.2251,0.0,0.0,0.0,-1.9563,-1.9618,-2.0419,-2.1455,-2.2513,-2.321,-2.3963,-2.4449,-2.4129,-2.4446,-2.477,-2.459,-2.4276,-2.4147,-2.4438,-2.436,-2.4292,-2.4495,-2.4495,-2.4641,-2.5004,-2.5105,-2.5085,-2.507,-2.5439,-2.5711,-2.6083,-2.6692,-2.7315,-2.7779,-2.808,-2.8601,-2.9246,-2.936,-2.9756,-3.0431,-3.0384,-3.0427,-3.0537,-3.0301,-3.0097,-3.0081,-3.0088,-3.0167,-3.016,-2.9975,-2.9818,-2.9568,-2.921,-2.9066,-2.9066,-2.9066,-2.9066,-2.9035,-2.8688,-2.8334,-2.7965,-2.7826,-2.7553,-2.7246,0.0,0.0,0.0,0.0,0.0,0.0,0.0,0.0,0.0,0.0,0.0,0.0,0.0,0.0,0.0,0.0,0.0,0.0,0.0,0.0,0.0,-3.3955,-3.4288,-3.4503,-3.463,0.0,-3.4455,-3.391,-3.4364,-3.5154,-3.6228,-3.7221,-3.8,-3.8497,-3.7198,-3.6157,-3.5213,-3.3736,-3.3121,-3.3177,-3.2856,-3.2872,0.0,0.0,0.0,0.0,0.0,-2.6879,-2.5806,-2.4446,-2.3563,-2.2913,-2.2002,-2.0995,0.0,0.0,0.0,-1.9284,-2.0308,-2.0893,-2.1536,-2.2632,-2.3303,-2.3691,-2.3514,-2.3981,-2.4411,-2.4157,-2.4109,-2.4167,-2.4381,-2.4401,-2.4429,-2.4501,-2.4516,-2.4631,-2.5077,-2.5076,-2.5129,-2.5108,-2.537,-2.5647,-2.5935,-2.6738,-2.7399,-2.786,-2.8385,-2.8911,-2.926,-2.9656,-2.9981,-3.0354,-3.0457,-3.0636,-3.0835,-3.0617,-3.0294,-2.9948,-3.0037,-3.0156,-3.0356,-3.0126,-3.0029,-3.0009,-2.9608,-2.9513,-2.9585,-2.9513,-2.9513,-2.9552,-2.9209,-2.8971,-2.8743,-2.8546,-2.8349,-2.8166,0.0,0.0,0.0,0.0,0.0,0.0,0.0,0.0,0.0,0.0,0.0,0.0,0.0,0.0,-3.3275,-3.3431,0.0,0.0,0.0,0.0,0.0,-3.3514,-3.3956,0.0,-3.4503,-3.4151,-3.388,-3.3698,-3.3537,-3.4881,-3.7617,-3.7677,-3.8852,-4.085,-3.8729,-3.7517,-3.6872,-3.5334,-3.5032,-3.5524,-3.4715,-3.3823,0.0,0.0,-3.2553,0.0,-2.9023,-2.7662,-2.6344,-2.4323,-2.3231,-2.2596,-2.1762,-2.0955,-2.0213,0.0,0.0,0.0,-1.909,-1.9603,-2.0219,-2.0715,-2.183,-2.2842,-2.3095,-2.3664,-2.4127,-2.4112,-2.4109,-2.4086,-2.413,-2.413,-2.4232,-2.454,-2.4598,-2.4716,-2.5032,-2.5076,-2.5129,-2.5108,-2.533,-2.5512,-2.5512,-2.6685,-2.7452,-2.7511,-2.8696,-2.9617,-3.0027,-3.0287,-3.0657,-3.1011,-3.1068,-3.1108,-3.1251,-3.1002,-3.0686,-3.0348,-3.0365,-3.0373,-3.0395,-3.0409,-3.0369,-3.0333,-2.9993,-3.0069,-3.0299,-2.9997,-3.0085,-3.0299,-2.9981,-3.0053,-3.0195,-2.9481,-2.9194,-2.9194,0.0,0.0,0.0,0.0,0.0,0.0,0.0,0.0,0.0,0.0,0.0,0.0,0.0,-3.4269,-3.3941,-3.3652,-3.3419,0.0,0.0,0.0,0.0,-3.4238,-3.4352,-3.444,-3.4503,-3.4667,-3.4243,-3.3244,-3.4268,-3.5217,-3.6127,-3.7694,-3.8611,-3.8906,-3.8631,-3.8377,-3.8132,-3.6215,-3.552,-3.5742,-3.5287,-3.5272,-3.5395,-3.4286,-3.363,-3.295,-3.0586,-2.8607,-2.6889,-2.5348,-2.4006,-2.2824,-2.1824,-2.0954,-2.0232,-1.9911,-1.9704,-1.9592,-1.967,-2.0084,-2.0597,-2.0822,-2.1436,-2.2094,-2.2364,-2.2809,-2.3098,-2.285,-2.3175,-2.3393,-2.3203,-2.3665,-2.418,-2.4574,-2.4589,-2.471,-2.508,-2.5262,-2.536,-2.5085,-2.5687,-2.6033,-2.5814,-2.687,-2.773,-2.806,-2.8867,-2.9538,-2.9952,-3.0268,-3.0503,-3.0656,-3.0923,-3.1096,-3.1313,-3.0937,-3.0745,-3.0704,-3.0508,-3.0373,-3.0423,-3.0685,-3.0772,-3.0751,-3.063,-3.0513,-3.037,-3.0299,-3.0299,-3.037,-3.0299,-3.0299,-3.037,-3.0085,-3.0014,-2.9975,0.0,0.0,0.0,0.0,0.0,0.0,0.0,0.0,0.0,0.0,0.0,0.0,0.0,0.0,-3.4804,-3.4046,-3.3762,-3.3667,-3.3719,-3.3511,-3.3753,-3.4663,-3.4566,-3.4503,-3.4566,-3.4879,-3.4486,-3.3332,-3.4757,-3.5492,-3.5583,-3.7438,-3.8179,-3.7931,-3.821,-3.8473,-3.8639,-3.7032,-3.6448,-3.6609,-3.6413,-3.6576,-3.6784,-3.585,-3.5121,-3.4334,-3.2111,-3.004,-2.8028,-2.6316,-2.4804,-2.3409,-2.2131,-2.1073,-2.029,0.0,0.0,0.0,-2.0045,0.0,0.0,-2.0579,-2.0855,-2.1137,-2.1519,-2.1891,-2.2124,-2.1985,-2.232,-2.2599,-2.249,-2.2899,-2.3545,-2.4317,-2.4441,-2.4623,-2.5155,-2.5344,-2.5354,-2.5305,-2.5915,-2.6185,-2.6002,-2.6978,-2.7825,-2.8234,-2.9088,-2.9776,-3.0103,-3.0607,-3.0801,-3.0684,-3.0914,-3.113,-3.1402,-3.1158,-3.1111,-3.1273,-3.0887,-3.0704,-3.0548,-3.095,-3.1147,-3.0995,-3.1284,-3.1135,-3.0797,-3.0655,-3.0655,-3.0797,-3.0655,-3.0722,-3.0909,-3.0695,-3.0761,-3.0982,0.0,0.0,0.0,0.0,0.0,0.0,0.0,0.0,0.0,0.0,0.0,0.0,0.0,0.0,0.0,-3.4854,-3.4358,-3.4138,-3.4243,-3.381,-3.3936,-3.4693,0.0,0.0,0.0,-3.4752,-3.4544,-3.403,-3.4972,-3.5677,-3.6195,-3.6836,-3.761,-3.8327,-3.7639,-3.7742,-3.8302,-3.7767,-3.7851,-3.8326,-3.8213,-3.769,-3.7098,-3.8148,-3.7042,-3.4805,-3.3639,-3.19,-2.9762,-2.7186,-2.5542,-2.4281,-2.2704,-2.1371,0.0,0.0,0.0,0.0,0.0,0.0,0.0,0.0,-1.9979,-2.0136,-2.0553,-2.0925,-2.1262,-2.1584,-2.1654,-2.1766,-2.2095,-2.1915,-2.2204,-2.3777,-2.4067,-2.4462,-2.5423,-2.5248,-2.525,-2.593,-2.588,-2.5926,-2.619,-2.7086,-2.7733,-2.8028,-2.937,-3.0366,-3.0613,-3.1374,-3.1672,-3.1325,-3.1092,-3.1219,-3.1581,-3.1756,-3.1877,-3.1964,-3.1626,-3.1237,-3.0928,-3.1336,-3.1328,-3.1042,-3.1774,-3.1894,-3.1559,-3.1206,-3.1223,-3.1559,-3.1135,-3.1443,-3.1981,-3.1332,-3.1493,-3.2103,0.0,0.0,0.0,0.0,0.0,0.0,0.0,0.0,0.0,0.0,0.0,0.0,0.0,0.0,-3.637,-3.5705,-3.5096,-3.4911,-3.5318,-3.5085,-3.5138,-3.5607,-3.6059,-3.6025,-3.5416,0.0,0.0,0.0,0.0,0.0,0.0,0.0,0.0,0.0,-3.681,-3.6823,-3.7025,-3.6736,-3.7539,-3.8835,-3.7714,-3.7769,-3.8418,-3.7817,-3.7226,-3.6472,-3.4786,-3.3219,-3.1522,-2.9505,-2.7543,-2.5643,-2.3407,0.0,0.0,0.0,0.0,0.0,-2.0731,0.0,0.0,0.0,0.0,0.0,-2.0138,-2.0446,-2.0689,-2.0559,-2.0938,-2.1319,-2.1451,-2.1597,-2.2038,-2.3187,-2.3597,-2.4009,-2.4682,-2.5331,-2.577,-2.5812,-2.6406,-2.6827,-2.703,-2.7701,-2.8431,-2.9233,-2.9988,-3.0782,-3.1574,-3.1946,-3.217,-3.2285,-3.185,-3.1545,-3.1519,-3.1576,-3.1692,-3.184,-3.1474,-3.1304,-3.1302,-3.1391,-3.1399,-3.1364,-3.1908,-3.207,-3.1894,-3.1559,-3.1489,-3.1559,-3.1489,-3.1728,-3.2124,-3.2196,-3.2509,-3.3016,0.0,0.0,0.0,0.0,0.0,0.0,0.0,0.0,0.0,0.0,0.0,0.0,0.0,0.0,0.0,-3.6634,-3.5955,-3.5776,-3.6222,-3.587,-3.5878,-3.6398,-3.6795,-3.6641,-3.5911,-3.6546,0.0,0.0,0.0,0.0,0.0,0.0,0.0,0.0,0.0,-3.6157,-3.623,-3.5862,-3.6801,-3.8473,-3.8183,-3.835,-3.8668,-3.8249,-3.7658,-3.6876,-3.5841,-3.4534,-3.3,-3.1245,-2.8738,-2.6,-2.4072,-2.2859,0.0,0.0,0.0,0.0,0.0,0.0,0.0,0.0,0.0,0.0,-1.9753,-1.9891,-2.0004,-1.9866,-2.0154,-2.054,-2.085,-2.0994,-2.1368,-2.2276,-2.2809,-2.3497,-2.459,-2.5293,-2.5799,-2.6148,-2.6995,-2.7668,-2.7926,-2.8708,-2.9391,-3.0028,-3.0694,-3.142,-3.223,-3.2093,-3.2153,-3.2565,-3.2133,-3.1865,-3.186,-3.186,-3.1934,-3.2003,-3.1816,-3.1708,-3.1589,-3.1818,-3.1733,-3.1519,-3.2055,-3.2223,-3.2105,-3.2053,-3.1982,-3.1859,-3.2156,-3.2539,-3.2905,-3.3279,-3.3722,-3.4074,0.0,0.0,0.0,0.0,0.0,0.0,0.0,0.0,0.0,0.0,0.0,0.0,0.0,0.0,0.0,0.0,-3.7025,-3.6687,-3.7069,-3.6379,-3.6272,-3.7028,-3.7096,-3.686,-3.6317,-3.67,0.0,0.0,0.0,0.0,0.0,0.0,0.0,0.0,0.0,0.0,-3.5794,-3.5284,-3.6008,-3.7586,-3.8867,-3.8963,-3.8421,-3.9065,-3.828,-3.6823,-3.6757,-3.5884,-3.44,-3.2508,-2.9502,-2.6358,-2.5038,-2.3909,-2.2876,-2.2259,-2.2067,0.0,0.0,0.0,0.0,0.0,-2.0247,0.0,-1.951,-1.9427,-1.9392,-1.9453,-1.9492,-1.9692,-2.0263,-2.0219,-2.0363,-2.1309,-2.1939,-2.2846,-2.4532,-2.5047,-2.56,-2.6514,-2.7533,-2.8318,-2.8707,-2.9652,-3.0369,-3.0463,-3.1451,-3.2209,-3.2609,-3.2168,-3.2074,-3.244,-3.2281,-3.2189,-3.2329,-3.2389,-3.2336,-3.2363,-3.2238,-3.2156,-3.1993,-3.2283,-3.2077,-3.1577,-3.2318,-3.2456,-3.2203,-3.2647,-3.2614,-3.228,-3.2985,-3.3553,-3.3996,-3.4406,-3.4797,-3.5153,0.0,0.0,0.0,0.0,0.0,0.0,0.0,0.0,0.0,0.0,0.0,0.0,0.0,0.0,0.0,0.0,-3.8878,-3.7774,-3.815,-3.7358,-3.699,-3.7293,-3.7731,-3.7626,-3.6856,-3.7593,-3.7593,0.0,0.0,0.0,0.0,0.0,0.0,0.0,0.0,0.0,-3.54,-3.6119,-3.6739,-3.7255,-3.7215,-3.8105,-3.9383,-3.921,-3.9011,-3.8647,-3.7608,-3.6817,-3.5859,-3.3314,-3.1402,-2.9715,-2.7481,-2.6514,-2.5823,-2.3771,-2.326,0.0,0.0,0.0,0.0,-2.0972,-2.0776,0.0,-1.9734,-1.9455,-1.934,-1.9206,-1.911,-1.9188,-1.959,-1.9797,-2.0168,-2.118,-2.1445,-2.1917,-2.3145,-2.4323,-2.5254,-2.5816,-2.6852,-2.7841,-2.8755,-2.9258,-2.9978,-3.104,-3.2281,-3.2916,-3.29,-3.3012,-3.3007,-3.2901,-3.2995,-3.272,-3.2066,-3.2187,-3.2351,-3.2509,-3.196,-3.2056,-3.2676,-3.226,-3.2143,-3.2282,-3.2496,-3.2543,-3.2546,-3.3633,-3.3659,-3.3091,-3.3251,-3.3712,-3.4424,-3.4807,-3.5422,-3.6034,0.0,0.0,0.0,0.0,0.0,0.0,0.0,0.0,0.0,0.0,0.0,0.0,0.0,0.0,0.0,0.0,0.0,0.0,0.0,-3.8495,-3.8044,-3.8357,-3.8512,-3.8263,-3.7623,-3.8394,-3.8394,-3.7623,0.0,0.0,0.0,0.0,0.0,0.0,0.0,0.0,-3.5733,-3.6182,-3.6553,-3.6968,-3.7834,-3.8825,-3.9746,-3.9715,-3.9546,-3.922,-3.8408,-3.7445,-3.6128,-3.3597,-3.1979,-3.0626,-2.8299,-2.7235,-2.6494,-2.4557,-2.3884,-2.3503,-2.2316,-2.1989,-2.1777,-2.1123,-2.095,0.0,0.0,-1.9642,-1.9401,-1.936,-1.9089,-1.9057,-1.9741,-1.9845,-2.0166,-2.1032,-2.1398,-2.183,-2.2681,-2.3972,-2.5045,-2.5563,-2.714,-2.8387,-2.9055,-2.9992,-3.0908,-3.1831,-3.226,-3.2596,-3.2946,-3.2921,-3.3025,-3.3279,-3.3259,-3.2966,-3.2413,-3.2342,-3.235,-3.2475,-3.2213,-3.2358,-3.2792,-3.2327,-3.215,-3.2181,-3.2464,-3.2564,-3.2684,-3.3912,-3.4319,-3.4162,-3.4361,-3.4685,-3.5155,-3.5998,-3.655,-3.6936,-5.4995,0.0,0.0,0.0,0.0,0.0,0.0,0.0,0.0,0.0,0.0,0.0,0.0,0.0,0.0,0.0,0.0,0.0,0.0,-4.0097,-3.9469,-3.9765,-3.9329,-3.8888,-3.8476,-3.8971,-3.891,-3.8296,0.0,0.0,0.0,0.0,0.0,0.0,0.0,0.0,-3.6319,-3.63,-3.6593,-3.7252,-3.9276,-3.9853,-3.9591,-4.0083,-3.9846,-3.9217,-3.8926,-3.7896,-3.6263,-3.4139,-3.2623,-3.1217,-2.8901,-2.7721,-2.6939,-2.5324,-2.4636,-2.4153,-2.2851,-2.2531,-2.2314,-2.1455,-2.114,-2.0872,0.0,0.0,0.0,-1.9513,-1.9174,-1.9085,-1.9859,-1.9913,-2.01,-2.0837,-2.1324,-2.184,-2.2582,-2.376,-2.48,-2.5459,-2.7309,-2.8715,-2.9139,-3.0476,-3.1646,-3.2346,-3.1973,-3.2041,-3.2815,-3.2621,-3.2791,-3.3429,-3.3311,-3.3055,-3.2724,-3.264,-3.255,-3.2428,-3.2615,-3.2729,-3.2793,-3.253,-3.223,-3.203,-3.2456,-3.2588,-3.2698,-3.4,-3.4715,-3.5082,-3.5559,-3.5852,-3.6091,-3.7203,-3.767,-3.7934,-5.5984,-5.567,0.0,0.0,0.0,0.0,0.0,0.0,0.0,0.0,0.0,0.0,-5.2394,-5.0252,-4.9046,-4.958,-4.6146,-4.4134,-4.4631,-4.2585,-4.1391,-4.143,-4.0062,-3.9337,-3.9551,-3.9213,-3.8914,-3.865,0.0,0.0,0.0,0.0,0.0,0.0,-3.6417,-3.6544,-3.6821,-3.7382,-3.8106,-3.9024,-4.0408,-4.0032,-3.8791,-3.9782,-3.9704,-3.9106,-3.8774,-3.8232,-3.7482,-3.5831,-3.4725,-3.3499,-3.0652,-2.962,-2.9058,-2.6777,-2.6418,-2.6607,-2.5578,-2.473,-2.3758,-2.2548,-2.1608,-2.0775,-1.9826,0.0,-1.9294,-1.9228,0.0,-1.9075,-1.9348,0.0,0.0,-2.0465,-2.0769,-2.1288,-2.2366,-2.3414,-2.4472,-2.5472,-2.632,-2.7217,-2.8298,-2.9436,-3.0635,-3.1966,-3.1862,-3.2058,-3.2747,-3.2767,-3.2794,-3.2894,-3.3109,-3.2932,-3.2345,-3.2922,-3.3,-3.2559,-3.2891,-3.3094,-3.3245,-3.2675,-3.2358,-3.2332,-3.2504,-3.2588,-3.2716,-3.4312,-3.499,-3.51,-3.5852,-3.6589,-3.7352,-3.7818,-3.8517,-3.9126,-5.6982,-5.7189,0.0,0.0,0.0,0.0,0.0,0.0,0.0,0.0,0.0,0.0,-5.378,-5.2149,-5.0944,-5.0364,-4.8294,-4.6586,-4.5651,-4.447,0.0,-4.2294,-4.1262,-4.0551,-4.0299,-3.9814,-3.9446,-3.9097,-3.825,0.0,0.0,0.0,0.0,0.0,-3.6656,-3.7216,-3.8353,-3.7955,-3.8245,-3.9065,-4.008,-3.9816,-3.8885,-4.0559,-4.046,-3.9431,-3.9121,-3.8575,-3.7808,-3.5967,-3.4753,-3.3564,-3.1291,-3.0171,-2.9389,-2.7981,-2.7457,-2.7117,-2.6176,-2.5163,-2.4141,-2.2955,-2.1968,-2.1044,-2.0097,-1.9543,-1.9312,-1.9668,0.0,0.0,0.0,0.0,0.0,0.0,-2.0988,-2.171,-2.2805,-2.3509,-2.4317,-2.5406,-2.6225,-2.7197,-2.8362,-2.9293,-3.0251,-3.1249,-3.1597,-3.2169,-3.3065,-3.3167,-3.3349,-3.3648,-3.3218,-3.2978,-3.3005,-3.2669,-3.2566,-3.2763,-3.2782,-3.295,-3.3154,-3.2727,-3.2491,-3.2396,-3.2767,-3.2788,-3.2716,-3.4367,-3.5027,-3.5155,-3.6738,-3.7408,-3.7652,-3.8708,-3.9356,-3.972,-5.7973,0.0,0.0,-5.828,-5.8723,0.0,0.0,0.0,-5.7858,-5.7009,-5.7108,-5.6722,-5.5138,-5.3976,-5.2858,-5.1843,-5.0506,-4.9039,-4.7456,-4.6609,-4.5404,-4.3713,-4.2803,-4.1918,-4.101,-4.042,-3.9805,-3.9228,-3.8272,0.0,0.0,0.0,0.0,0.0,-3.7101,-3.7878,-3.9301,-3.8862,-3.904,-3.9673,-4.0616,-4.0723,-4.0428,-4.1114,-4.0796,-3.9832,-3.9452,-3.889,-3.81,-3.6225,-3.5037,-3.4023,-3.2256,-3.1016,-3.0057,-2.9375,-2.8605,-2.7837,-2.7153,-2.6038,-2.4771,-2.3593,-2.2437,-2.1325,-2.0278,-1.9838,-1.983,-2.0218,-2.0192,0.0,0.0,0.0,0.0,0.0,0.0,-2.2182,-2.3317,-2.3562,-2.4129,-2.546,-2.6425,-2.7457,-2.8582,-2.9178,-2.9991,-3.1048,-3.1474,-3.212,-3.3062,-3.3248,-3.3449,-3.3796,-3.3094,-3.2863,-3.3191,-3.2504,-3.2337,-3.2721,-3.2699,-3.2892,-3.3055,-3.2824,-3.257,-3.2396,-3.2899,-3.2922,-3.2716,-3.4367,-3.5027,-3.5192,-3.7427,-3.8102,-3.8009,-3.951,-4.0221,-4.0569,-5.9195,-5.9103,-5.9097,-5.9374,-5.9274,-5.9081,-5.9164,-5.9114,-5.8952,-5.8334,-5.825,-5.7997,-5.7322,-5.59,-5.5168,-5.5678,-5.3091,-5.1295,-5.1062,-4.9395,-4.7727,-4.6137,-4.4689,-4.3227,-4.1686,-4.0837,-3.9854,-3.8833,-3.8299,0.0,0.0,0.0,0.0,0.0,-3.7958,-3.8615,-3.9179,-4.0456,-4.1222,-4.1705,-4.2784,-4.3545,-4.3722,-4.093,-4.0083,-4.0269,-3.9584,-3.9114,-3.8622,-3.7142,-3.6347,-3.5654,-3.4118,-3.2871,-3.1871,-3.1159,-3.0215,-2.9417,-2.9395,-2.7981,-2.6184,-2.4738,-2.3116,-2.1479,-1.997,-2.0322,-2.0915,-2.0879,-2.1527,-2.2138,-2.2294,0.0,0.0,0.0,0.0,0.0,0.0,-2.3504,-2.3865,-2.5673,-2.6693,-2.7714,-2.8765,-2.8861,-2.9711,0.0,-3.1612,-3.1773,-3.2581,-3.2746,-3.2794,-3.2643,-3.2495,-3.244,-3.2437,-3.2669,-3.2576,-3.2253,-3.2777,-3.3066,-3.3055,-3.2824,-3.257,-3.2396,-3.2899,-3.2922,-3.2716,-3.4367,-3.5027,-3.5264,-3.7709,-3.8652,-3.8804,-4.0027,-4.0995,-4.1837,0.0,0.0,-5.9616,-5.9261,-5.9265,-5.9329,-5.9145,-5.9985,-6.0421,-5.9807,-6.0005,-5.9907,-5.9261,-5.7973,-5.7196,-5.7149,-5.545,-5.3798,-5.2478,-5.1157,-4.9534,-4.7524,-4.5932,-4.4381,-4.3001,-4.1381,-4.0161,-3.9258,-3.8354,0.0,0.0,0.0,0.0,0.0,0.0,-3.8424,-4.0017,-4.0618,-4.1311,-4.2031,-4.2648,-4.3582,-4.4396,-4.2137,-4.1137,-4.0912,-4.0074,-3.9513,-3.9042,-3.8021,-3.7001,-3.6049,-3.5211,-3.3875,-3.2533,-3.2124,-3.1155,-3.0102,-2.9398,-2.821,-2.6778,-2.536,-2.3536,-2.1849,-2.0879,-2.0898,-2.1072,-2.0881,-2.1883,-2.2751,-2.2578,0.0,0.0,0.0,0.0,0.0,0.0,0.0,-2.506,-2.5969,-2.6694,-2.7325,-2.7931,-2.8539,0.0,0.0,-3.1264,0.0,-3.2754,-3.2983,-3.3242,-3.3632,-3.2714,-3.254,-3.3193,-3.2425,-3.2286,-3.2696,-3.2584,-3.255,-3.2613,-3.2874,-3.2721,-3.2396,-3.3394,-3.3472,-3.3051,-3.4719,-3.5386,-3.5606,-3.7859,-3.888,-3.9223,-4.0531,-4.1504,-4.2427,-6.033,-6.048,-6.0306,-5.9886,-6.0085,-6.0199,-5.9762,-6.0965,-6.1597,-6.0764,-6.1175,-6.1137,-6.017,-5.9186,-5.8508,-5.8175,-5.6818,-5.519,-5.3324,-5.2639,-5.1121,-4.8435,-4.7444,-4.6079,-4.4115,-4.2537,-4.1087,-3.9817,-3.8847,-3.8231,0.0,0.0,0.0,0.0,0.0,-3.8775,-4.0487,-4.1564,-4.2357,-4.2952,-4.3519,-4.4336,-4.5096,-4.3499,-4.2361,-4.1455,-4.0713,-4.0151,-3.9662,-3.9095,-3.8194,-3.724,-3.6806,-3.5319,-3.3637,-3.3277,-3.2067,-3.0641,-2.9729,-2.8696,-2.7479,-2.5934,-2.4463,-2.3127,-2.2033,-2.2149,-2.2356,-2.1988,-2.2982,-2.3958,-2.3954,0.0,0.0,0.0,0.0,0.0,0.0,-2.4787,-2.5496,-2.624,-2.668,-2.7043,-2.7425,-2.8414,-2.9199,0.0,0.0,0.0,0.0,-3.2763,-3.3153,-3.3552,-3.2787,-3.2537,-3.2978,-3.2182,-3.2018,-3.2441,-3.2309,-3.2239,-3.2347,-3.2673,-3.2712,-3.2478,-3.3489,-3.3652,-3.3252,-3.4929,-3.56,-3.5803,-3.7915,-3.8956,-3.945,-4.0705,-4.1915,-4.31,-6.0162,-6.0534,-6.0905,-6.122,-6.1561,-6.1611,-6.0976,-6.1915,-6.2246,-6.1032,-6.1725,-6.1803,-6.028,-5.9603,-5.9192,-5.8787,-5.7401,-5.5709,-5.3799,-5.3806,-5.2399,-4.9088,-4.9285,-4.8102,-4.5126,-4.4102,-4.2585,-4.048,-3.9817,0.0,0.0,0.0,0.0,0.0,-3.8654,-3.9519,-4.0539,-4.314,-4.4306,-4.4474,-4.5306,-4.5757,-4.5808,-4.4976,-4.3614,-4.2005,-4.1523,-4.1007,-4.0531,-4.0332,-3.9731,-3.9057,-3.8804,-3.7077,-3.5085,-3.4565,-3.2987,-3.1267,-3.0477,-2.9549,-2.8365,-2.6568,-2.5864,-2.5143,-2.3317,-2.3898,-2.4626,-2.4053,-2.4798,-2.5786,-2.6299,0.0,0.0,0.0,0.0,0.0,0.0,0.0,-2.5258,-2.6457,-2.6698,-2.6904,-2.7364,-2.8435,-2.9014,0.0,0.0,0.0,0.0,-3.2159,-3.2527,-3.2406,-3.2616,-3.2458,-3.1821,-3.1901,-3.1828,-3.1556,-3.2008,-3.2204,-3.219,-3.2367,-3.2515,-3.2731,-3.3309,-3.3405,-3.3252,-3.4929,-3.56,-3.5803,-3.7821,-3.8956,-3.9489,-4.0821,-4.2289,-4.3818,-6.011,-6.0873,-6.1104,-6.079,-6.1241,-6.1465,-6.0893,-6.1713,-6.2069,-6.1301,-6.2256,-6.2609,-6.1497,-6.0858,-6.0482,-6.0069,-5.8428,-5.713,-5.6365,-5.4866,-5.3458,-5.2339,-5.0601,-4.8825,-4.7056,-4.5011,-4.3148,-4.168,-4.0051,0.0,-3.9004,0.0,0.0,0.0,0.0,-3.8818,-4.0098,-4.2426,-4.4489,-4.6202,-4.5997,-4.5976,-4.6061,-4.5692,-4.4755,-4.3475,-4.2368,-4.1751,-4.1388,-4.0746,-4.006,-3.9316,-3.8851,-3.7592,-3.6116,-3.5187,-3.4109,-3.2896,-3.1442,-3.0563,-2.9715,-2.8138,-2.6808,-2.5672,-2.477,-2.4843,-2.497,-2.4581,-2.5759,-2.6866,-2.6663,-2.6656,0.0,0.0,0.0,0.0,0.0,0.0,-2.6587,-2.6651,-2.6927,-2.7324,-2.7794,-2.8392,-2.8712,-2.8754,0.0,0.0,-3.1094,-3.2135,-3.2674,-3.2563,-3.217,-3.2062,-3.2326,-3.1709,-3.1629,-3.2088,-3.2168,-3.2015,-3.1722,-3.2549,-3.2694,-3.2402,-3.3759,-3.4019,-3.3604,-3.528,-3.5815,-3.5784,-3.7203,-3.8576,-3.9952,-4.1896,-4.3101,-4.3898,-6.0683,-6.1821,-6.2365,-6.1753,-6.2006,-6.2067,-6.1372,-6.1961,-6.2225,-6.152,-6.2398,-6.2575,-6.1493,-6.1452,-6.1174,-6.0348,-5.9289,-5.8203,-5.713,-5.5935,-5.4688,-5.3348,-5.2056,-5.0481,-4.8653,-4.6679,-4.4807,-4.3073,-4.132,-4.007,-3.9314,0.0,0.0,0.0,0.0,-3.8974,-4.0397,-4.2881,-4.5144,-4.7032,-4.6458,-4.6329,0.0,-4.6001,-4.5393,-4.4447,-4.3652,-4.2841,-4.2113,-4.1603,-4.0803,-3.9994,-3.9641,-3.832,-3.6709,-3.6103,-3.5035,-3.3758,-3.245,-3.1669,-3.0804,-2.916,-2.8081,-2.7168,-2.6253,-2.6092,-2.6109,-2.5817,-2.6671,-2.7478,-2.7528,-2.7558,0.0,0.0,0.0,0.0,0.0,-2.7198,-2.7114,-2.7039,-2.7133,-2.7341,-2.7861,-2.832,-2.8546,-2.8501,-2.9557,0.0,0.0,-3.1764,-3.2222,-3.2332,-3.2118,-3.1991,-3.1978,-3.1455,-3.1389,-3.1843,-3.1967,-3.1876,-3.1643,-3.2444,-3.2755,-3.2672,-3.3897,-3.4158,-3.3737,-3.542,-3.5867,-3.5784,-3.7371,-3.8804,-4.0142,-4.1872,-4.3061,-4.3918,-6.1269,-6.2773,-6.358,-6.299,-6.2937,-6.2765,-6.2185,-6.2471,-6.2552,-6.1798,-6.2288,-6.2302,-6.1083,-6.1492,-6.1324,-6.0114,-5.9662,-5.8758,-5.6945,-5.6793,-5.5675,-5.337,-5.3377,-5.2346,-4.9988,-4.8595,-4.6828,-4.4631,-4.2989,-4.143,-3.9808,0.0,0.0,0.0,0.0,-3.9829,-4.1381,-4.395,-4.5871,-4.7222,-4.6756,-4.658,-4.6491,-4.603,-4.5549,-4.5092,-4.4815,-4.392,-4.2821,-4.2512,-4.1672,-4.0756,-4.071,-3.9096,-3.7179,-3.7101,-3.5945,-3.4466,-3.3639,-3.2844,-3.183,-3.0155,-2.9658,-2.9181,-2.7759,-2.7498,-2.7526,-2.7427,-2.7593,-2.794,-2.8497,-2.8339,0.0,0.0,0.0,0.0,-2.8272,-2.7753,-2.7404,-2.7635,-2.7458,0.0,-2.7862,-2.8237,-2.8354,-2.8148,-2.8943,-2.9815,-3.0697,-3.1161,-3.1582,-3.1929,-3.21,-3.194,-3.1427,-3.1221,-3.1202,-3.1301,-3.1615,-3.1785,-3.1785,-3.217,-3.2573,-3.3055,-3.3749,-3.3861,-3.3737,-3.535,-3.5871,-3.588,-3.7802,-3.9011,-3.9786,-4.1132,-4.2441,-4.3759,-6.0616,-6.1648,-6.2318,-6.1599,-6.2106,-6.2715,-6.2845,-6.2836,-6.2714,-6.2394,-6.2735,-6.2795,-6.2027,-6.122,-6.0589,-6.0059,-5.8891,-5.7836,-5.7238,-5.6232,-5.5367,-5.4665,-5.3737,-5.2573,-5.1323,-4.9494,-4.784,-4.6376,-4.3979,-4.2453,-4.1651,0.0,0.0,0.0,0.0,-4.1342,-4.3534,-4.4555,-4.5786,-4.6931,-4.6712,-4.6447,-4.6225,-4.573,-4.5367,-4.5018,-4.463,-4.4153,-4.374,-4.3238,-4.2167,-4.099,-4.0756,-3.9593,-3.8201,-3.7697,-3.6999,-3.6181,-3.5362,-3.4575,-3.3643,-3.2355,-3.1397,-3.0532,-2.9472,-2.8771,-2.833,-2.8509,-2.8836,-2.8961,-2.8649,-2.8637,-2.891,0.0,-2.938,-2.9251,-2.9893,-2.949,-2.9016,-2.8627,-2.8898,-2.8927,-2.8412,-2.8249,-2.8072,-2.7825,-2.8887,-2.9556,-2.952,-3.0777,-3.1509,0.0,-3.1143,-3.1292,0.0,-3.1216,-3.1166,-3.1851,-3.1667,-3.1622,-3.1743,-3.1864,-3.2174,-3.2693,-3.3369,-3.3601,-3.3671,-3.514,-3.5847,-3.6165,-3.7196,-3.7982,-3.8607,-4.0203,-4.1556,-4.298,-6.1942,-6.2561,-6.2975,-6.2584,-6.2626,-6.287,-6.3218,-6.3058,-6.2936,-6.3018,-6.2957,-6.2742,-6.2233,-6.1669,-6.0942,-6.0087,-5.9237,-5.8404,-5.7579,-5.6837,-5.6124,-5.5509,-5.4762,-5.3611,-5.2133,-5.1049,-4.9511,-4.7575,-4.5834,-4.4153,-4.2557,0.0,0.0,-4.0641,0.0,-4.2779,0.0,-4.5467,-4.6415,-4.7392,-4.717,-4.6976,-4.6648,-4.5801,-4.5321,-4.5092,-4.4723,-4.4472,-4.4115,-4.3642,-4.2485,-4.1268,-4.1156,-4.004,-3.8702,-3.8408,-3.7811,-3.7093,-3.6422,-3.5754,-3.4925,-3.3621,-3.2813,-3.2077,-3.0918,-3.0278,-2.9845,-2.9688,-2.9819,-2.9958,-2.9786,-2.9525,-2.9666,-3.059,-3.0132,-2.9892,-3.0464,-3.0422,-2.9996,-2.9087,-2.9507,-2.9548,-2.8748,-2.8538,-2.8427,-2.8273,-2.8544,-2.8973,-2.956,-3.0114,-3.0661,-3.1193,-3.0907,-3.1108,-3.1767,0.0,-3.1121,-3.1826,-3.1483,-3.1456,-3.1688,-3.1783,-3.1977,-3.2389,-3.3179,-3.3451,-3.3452,-3.4789,-3.5649,-3.6292,-3.7099,-3.7635,-3.8235,-3.99,-4.1071,-4.2075,-6.3299,-6.3591,-6.3776,-6.3882,-6.3439,-6.3195,-6.334,-6.3394,-6.3406,-6.347,-6.2996,-6.2605,-6.2397,-6.2002,-6.1333,-6.0308,-5.9848,-5.915,-5.8063,-5.764,-5.6989,-5.5932,-5.5709,-5.474,-5.3026,-5.2492,-5.1104,-4.8833,-4.7691,-4.5846,-4.3473,0.0,0.0,0.0,-4.315,-4.4379,-4.5598,-4.6505,-4.7348,-4.809,-4.7747,-4.7446,-4.707,-4.59,-4.5276,-4.5092,-4.4844,-4.4612,-4.4303,-4.3899,-4.2877,-4.1736,-4.158,-4.0441,-3.9159,-3.9024,-3.846,-3.7739,-3.7107,-3.6561,-3.5907,-3.4592,-3.4059,-3.3541,-3.2346,-3.1772,-3.1345,-3.0854,-3.0629,-3.057,-3.0678,-3.0304,-3.0244,-3.0999,-3.0505,-3.025,-3.0875,-3.098,-3.065,-2.9586,-3.0012,-3.0027,-2.9101,-2.8919,-2.8889,-2.8991,-2.8363,-2.8471,-2.9619,-2.947,-2.9811,-3.087,-3.0786,-3.0961,-3.1347,0.0,-3.1033,-3.1779,-3.1296,-3.1308,-3.1797,-3.1681,-3.1819,-3.2268,-3.3052,-3.3341,-3.3354,-3.4529,-3.5303,-3.5941,-3.7005,-3.7535,-3.7975,-3.9677,-4.0665,-4.1266,-6.3115,-6.3379,-6.3436,-6.37,-6.398,-6.3973,-6.3495,-6.4039,-6.4244,-6.3726,-6.2983,-6.2676,-6.3,-6.1847,-6.0944,-6.0822,-6.0098,-5.9345,-5.8676,-5.8035,-5.7197,-5.5932,-5.5876,-5.5339,-5.4339,-5.3166,-5.188,-5.0538,-4.8977,-4.7051,-4.4898,0.0,0.0,-4.456,-4.5478,-4.6446,-4.7377,-4.7674,-4.8208,-4.8727,-4.7954,-4.7446,-4.707,-4.5643,-4.511,-4.5046,-4.4583,-4.4425,-4.4425,-4.435,-4.3575,-4.2518,-4.1764,-4.0832,-3.9952,-3.941,-3.8841,-3.8201,-3.7605,-3.7108,-3.6607,-3.5751,-3.5142,-3.463,-3.406,-3.3129,-3.2281,-3.2011,-3.1099,-3.0344,-3.0327,-3.0296,-3.0309,-3.0448,-3.035,-3.0623,-3.1629,-3.1398,-3.0872,-3.0371,-3.0919,-3.0907,-2.979,-2.933,-2.921,-2.9588,-2.8777,-2.8379,-2.863,-2.9009,-2.9635,-3.0516,-3.0364,-3.069,-3.1552,-3.0973,-3.112,-3.1946,-3.1035,-3.1135,-3.2123,-3.1467,-3.1656,-3.2571,-3.2925,-3.3315,-3.387,-3.4664,-3.4849,-3.4839,-3.6667,-3.7217,-3.7126,-3.9183,-4.0177,-4.0777,-6.3385,-6.3584,-6.3671,-6.3831,-6.362,-6.3326,-6.309,-6.3399,-6.36,-6.3386,-6.3362,-6.3351,-6.3136,-6.2137,-6.1185,-6.0666,-6.0132,-5.9414,-5.8444,-5.8355,-5.769,-5.6232,-5.6206,-5.5701,-5.4573,-5.4232,-5.3238,-5.1644,-5.0395,-4.878,-4.6776,-4.6383,-4.6253,-4.642,-4.6957,-4.742,-4.7959,-4.8601,-4.8925,-4.9022,-4.8988,-4.8639,-4.7992,-4.7073,-4.6627,-4.6383,-4.5525,-4.5195,-4.5091,-4.4584,-4.3743,-4.2907,-4.2565,-4.159,-4.0539,-4.0185,-3.9738,-3.9113,-3.7985,-3.7836,-3.7701,-3.6306,-3.602,-3.5871,-3.5004,-3.4267,-3.3598,-3.2992,-3.2264,-3.1612,-3.1213,-3.118,-3.1219,-3.1187,-3.0964,-3.107,-3.1956,-3.2015,-3.1672,-3.0972,-3.1405,-3.1334,-3.0326,-2.9673,-2.9408,-2.9568,-2.8746,-2.8494,-2.9116,-2.8964,-2.9326,-3.0403,-3.0079,-3.0322,-3.1241,-3.0867,-3.1076,-3.1803,-3.0893,-3.0969,-3.1885,-3.1147,-3.1309,-3.2218,-3.2581,-3.2998,-3.3554,-3.4304,-3.4541,-3.461,-3.6102,-3.6564,-3.6648,-3.8489,-3.9402,-3.9936,-6.3635,-6.3946,-6.4218,-6.4297,-6.3883,-6.3463,-6.3123,-6.3385,-6.3511,-6.3165,-6.3713,-6.3816,-6.3051,-6.2385,-6.1737,-6.0874,-6.0695,-6.0153,-5.9126,-5.9094,-5.8395,-5.6788,-5.6704,-5.6114,-5.4878,-5.4853,-5.4149,-5.2624,-5.1701,-5.0275,-4.8468,-4.7869,-4.774,-4.8076,-4.8238,-4.8475,-4.8741,-4.9398,-4.9604,-4.9556,-4.9634,-4.9328,-4.8748,-4.7967,-4.7594,-4.7242,-4.6121,-4.5704,-4.5572,-4.4715,-4.4023,-4.3417,-4.3175,-4.2213,-4.1083,-4.0811,-4.0316,-3.9644,-3.8513,-3.8541,-3.8541,-3.7167,-3.7152,-3.722,-3.616,-3.5587,-3.4982,-3.3799,-3.3254,-3.273,-3.19,-3.1775,-3.1721,-3.1501,-3.138,-3.141,-3.1778,-3.2177,-3.2025,-3.1115,-3.1442,-3.1351,-3.0366,-2.9867,-2.9682,-2.9831,-2.9048,-2.8827,-2.9384,-2.897,-2.9141,-3.0081,-3.0123,-3.0335,-3.0809,-3.0688,-3.0937,-3.1588,-3.0722,-3.0788,-3.1688,-3.1134,-3.1472,-3.2385,-3.2548,-3.2832,-3.328,-3.4071,-3.4306,-3.4232,-3.5526,-3.6011,-3.6224,-3.7685,-3.8563,-3.9276,-6.4039,-6.4441,-6.492,-6.5292,-6.5371,-6.4979,-6.3829,-6.4363,-6.447,-6.3271,-6.3773,-6.3849,-6.2655,-6.2631,-6.2411,-6.1844,-6.1929,-6.1734,-6.1116,-6.0469,-5.9289,-5.7463,-5.7378,-5.6788,-5.5524,-5.4906,-5.4288,-5.3698,0.0,-5.1409,-4.9957,-4.92,-4.9178,-4.9649,-4.9669,-4.9815,-5.0057,-5.0086,-5.0231,-5.0394,-4.9498,-4.9092,-4.8957,-4.7872,-4.7376,-4.7242,-4.6121,-4.5704,-4.5572,-4.4715,-4.4397,-4.4238,-4.3361,-4.2518,-4.1681,-4.1073,-4.0316,-3.9607,-3.9192,-3.9084,-3.8988,-3.8574,-3.8669,-3.8652,-3.7777,-3.7242,-3.6406,-3.4306,-3.3719,-3.3243,-3.2127,-3.1835,-3.1574,-3.1011,-3.1336,-3.1539,-3.1079,-3.1632,-3.171,-3.0657,-3.1053,-3.0977,-2.9826,-2.9833,-3.0127,-3.065,-2.9869,-2.9252,-2.9039,-2.8992,-2.9145,-2.9414,-3.0502,-3.0841,-3.0294,-3.0387,-3.0689,-3.1301,-3.0236,-3.0381,-3.1709,-3.1624,-3.2333,-3.3539,-3.2873,-3.2861,-3.3332,-3.4126,-3.3944,-3.3486,-3.5016,-3.5628,-3.5739,-3.6985,-3.7844,-3.8736,-6.4039,-6.4681,-6.5108,-6.4874,-6.4796,-6.443,-6.328,-6.3782,-6.4017,-6.3218,-6.38,-6.3849,-6.2584,-6.2497,-6.2189,-6.1179,-6.1197,-6.0986,-6.0375,-6.0214,-5.9514,-5.8053,-5.7997,-5.7407,-5.6142,-5.5945,-5.5327,-5.4288,-5.3135,-5.167,-5.0013,-5.0138,-5.0325,-5.0478,-5.0853,-5.0822,-5.0513,-5.0632,-5.0418,-4.996,-4.9996,-4.9812,-4.9494,-4.9291,-4.904,-4.8565,-4.7595,-4.727,-4.7031,-4.5523,-4.511,-4.5138,-4.4238,-4.3482,-4.2775,-4.2025,-4.1413,-4.0761,-3.9602,-3.963,-3.9756,-3.8755,-3.8852,-3.9061,-3.8378,-3.7697,-3.6777,-3.53,-3.4797,-3.4393,-3.3532,-3.3303,-3.2932,-3.193,-3.202,-3.1933,-3.1173,-3.1371,-3.1465,-3.1219,-3.156,-3.1613,-3.1098,-3.101,-3.0831,-3.0384,-3.0026,-2.9939,-3.0194,-2.9637,-2.9501,-2.9875,-2.9995,-3.0273,-3.0638,-3.0238,-3.0352,-3.1035,-3.0438,-3.0611,-3.148,-3.1578,-3.1929,-3.2533,-3.2544,-3.285,-3.3298,-3.3804,-3.3872,-3.3722,-3.446,-3.4925,-3.5287,-3.6206,-3.7038,-3.7772,-6.4119,-6.484,-6.5266,-6.49,-6.4665,-6.4221,-6.328,-6.3498,-6.358,-6.3191,-6.3653,-6.3632,-6.2611,-6.2476,-6.2058,-6.107,-6.1283,-6.1187,-6.0577,-6.0513,-5.9935,-5.8699,-5.8418,-5.7828,-5.6816,-5.6535,-5.603,-5.5271,-5.3895,-5.2569,-5.1375,-5.1314,-5.1374,-5.1449,-5.1577,-5.1265,-5.0734,-5.0805,-5.0524,-5.0038,-5.0135,-5.0135,-4.999,-4.999,-4.9746,-4.9317,-4.8439,-4.8161,-4.7863,-4.6081,-4.5562,-4.5544,-4.4687,-4.4144,-4.3676,-4.2894,-4.2279,-4.1595,-4.0529,-4.047,-4.0482,-3.9578,-3.9606,-3.969,-3.8824,-3.8074,-3.7201,-3.607,-3.5804,-3.5488,-3.45,-3.4218,-3.3785,-3.2676,-3.2546,-3.2228,-3.1156,-3.1406,-3.1625,-3.1489,-3.1703,-3.1759,-3.1603,-3.1551,-3.1214,-3.033,-3.0353,-3.0473,-3.0601,-2.9929,-2.9701,-3.0013,-2.9908,-3.0033,-3.0411,-3.0108,-3.0191,-3.0648,-3.0576,-3.0997,-3.1742,-3.153,-3.1822,-3.257,-3.2629,-3.2918,-3.3454,-3.3732,-3.3799,-3.3777,-3.389,-3.4243,-3.4783,-3.51,-3.5757,-3.6597,-6.4119,-6.484,-6.5371,-6.5318,-6.4874,-6.4325,-6.3724,-6.3531,-6.3355,-6.3117,-6.3433,-6.3442,-6.2665,-6.2503,-6.2225,-6.1398,-6.1884,-6.2047,-6.1406,-6.1146,-6.0497,-5.9261,-5.8671,-5.8081,-5.7463,-5.6845,-5.6479,-5.6367,-5.4883,-5.3976,-5.3597,-5.2689,-5.2428,-5.2688,-5.2049,-5.141,-5.0801,-5.0801,-5.0719,-5.0522,-5.0009,-5.0106,-5.0464,-4.9951,-4.9727,-4.9562,-4.874,-4.8441,-4.8191,-4.6434,-4.5817,-4.5629,-4.4772,-4.4453,-4.4284,-4.3666,-4.2912,-4.2133,-4.1739,-4.1439,-4.1183,-4.0813,-4.0688,-4.0378,-3.9142,-3.8371,-3.7692,-3.6656,-3.6748,-3.6541,-3.4971,-3.4693,-3.4345,-3.3185,-3.2969,-3.2438,-3.1077,-3.1691,-3.2026,-3.1473,-3.1564,-3.162,-3.1491,-3.1606,-3.1362,-3.049,-3.0925,-3.093,-3.0382,-2.9943,-2.9767,-2.9883,-3.0131,-3.0143,-2.986,-3.0054,-3.0157,-3.0237,-3.066,-3.1374,-3.2314,-3.1507,-3.1992,-3.3472,-3.2807,-3.2997,-3.3733,-3.375,-3.3709,-3.3652,-3.332,-3.3607,-3.4183,-3.3806,-3.4404,-3.5345,-6.4119,-6.484,-6.524,-6.4796,-6.4613,-6.4195,-6.3175,-6.3192,-6.3355,-6.3117,-6.3433,-6.3603,-6.3207,-6.2818,-6.2388,-6.2,-6.1544,-6.1142,-6.0728,-6.0502,-6.002,-5.9233,-5.9064,-5.8699,-5.8109,-5.794,-5.7154,-5.5721,-5.5081,-5.4544,-5.3948,-5.3672,-5.365,-5.3728,-5.325,-5.2717,-5.2187,-5.2187,-5.186,-5.1329,-5.1199,-5.0959,-5.065,-5.0502,-5.0035,-4.9375,-4.9133,-4.9104,-4.8911,-4.7844,-4.7176,-4.6662,-4.594,-4.5072,-4.4331,-4.3867,-4.3138,-4.243,-4.2003,-4.1365,-4.0798,-4.0744,-4.0587,-4.015,-3.8894,-3.8598,-3.8311,-3.7307,-3.7109,-3.691,-3.606,-3.5859,-3.5251,-3.3451,-3.3094,-3.2564,-3.1094,-3.1354,-3.1677,-3.1692,-3.2127,-3.2377,-3.2177,-3.2464,-3.2138,-3.0887,-3.1538,-3.164,-3.0717,-3.0671,-3.0471,-3.0079,-3.011,-3.0288,-3.0652,-2.9949,-2.991,-3.0496,-3.088,-3.1321,-3.1769,-3.166,-3.1873,-3.2387,-3.2186,-3.2453,-3.2965,-3.287,-3.2891,-3.2848,-3.2697,-3.3142,-3.3822,-3.3689,-3.4375,-3.5229,-6.4039,-6.4681,-6.5055,-6.4979,-6.4638,-6.4165,-6.3562,-6.3238,-6.3139,-6.3312,-6.3433,-6.3331,-6.3045,-6.2665,-6.2334,-6.1808,-6.1504,-6.1176,-6.0923,-6.0698,-6.0301,-5.9654,-5.9373,-5.9064,-5.8727,-5.8446,-5.7519,-5.5917,-5.548,-5.5083,-5.4742,-5.4694,-5.4533,-5.4273,-5.4086,-5.3442,-5.2623,-5.2623,-5.2297,-5.1765,-5.1664,-5.1461,-5.1262,-5.0822,-5.0403,-4.9907,-4.9589,-4.9502,-4.9337,-4.8488,-4.776,-4.71,-4.6357,-4.5466,-4.4712,-4.4619,-4.4032,-4.3262,-4.2495,-4.1943,-4.1418,-4.0727,-4.0371,-3.9991,-3.9131,-3.888,-3.8684,-3.7851,-3.7767,-3.7592,-3.6852,-3.6547,-3.5798,-3.3947,-3.3542,-3.2916,-3.1351,-3.1707,-3.2254,-3.2526,-3.2789,-3.3017,-3.322,-3.3301,-3.2801,-3.1574,-3.2166,-3.2081,-3.0928,-3.112,-3.0984,-3.0448,-3.0114,-3.0098,-3.0413,-3.0025,-3.0125,-3.0751,-3.1228,-3.1543,-3.1803,-3.2003,-3.2152,-3.2271,-3.2449,-3.2677,-3.295,-3.2912,-3.2855,-3.2867,-3.2452,-3.2667,-3.3087,-3.2713,-3.3146,-3.3852,-6.4064,-6.4466,-6.4894,-6.5187,-6.4768,-6.4342,-6.4236,-6.3314,-6.3001,-6.3667,-6.3413,-6.3104,-6.2784,-6.2665,-6.2361,-6.1617,-6.1739,-6.1663,-6.1285,-6.1174,-6.0778,-6.002,-5.9486,-5.9205,-5.9205,-5.8531,-5.7631,-5.6564,-5.5907,-5.5651,-5.5623,-5.5606,-5.5242,-5.4633,-5.4546,-5.3849,-5.2717,-5.2717,-5.2552,-5.2179,-5.2006,-5.1998,-5.1975,-5.1112,-5.0743,-5.0598,-4.9901,-4.9669,-4.9611,-4.8846,-4.8057,-4.7289,-4.6583,-4.5785,-4.511,-4.5367,-4.5,-4.4265,-4.3156,-4.266,-4.216,-4.1032,-4.038,-3.9901,-3.9617,-3.9225,-3.8837,-3.8392,-3.8405,-3.831,-3.7399,-3.6939,-3.6166,-3.4466,-3.4109,-3.349,-3.1901,-3.2576,-3.332,-3.3578,-3.3494,-3.3614,-3.4153,-3.3827,-3.3238,-3.2316,-3.259,-3.2251,-3.1128,-3.1405,-3.138,-3.093,-3.0311,-2.9897,-2.9891,-3.0308,-3.0689,-3.0994,-3.1543,-3.188,-3.2082,-3.2327,-3.2413,-3.2442,-3.2777,-3.2931,-3.3054,-3.2878,-3.2906,-3.2841,-3.2152,-3.2065,-3.2216,-3.159,-3.1713,-3.2108,-6.4141,-6.4466,-6.479,-6.4665,-6.4508,-6.4325,-6.3827,-6.3478,-6.3434,-6.3884,-6.3754,-6.3719,-6.3993,-6.3577,-6.315,-6.289,-6.2412,-6.1696,-6.07,-6.095,-6.0582,-5.9402,-5.9261,-5.9205,-5.9205,-5.8109,-5.7435,-5.7238,-5.6618,-5.628,-5.6251,-5.627,-5.591,-5.5242,-5.4749,-5.4081,-5.3355,-5.3355,-5.3297,-5.3262,-5.321,-5.2891,-5.2391,-5.1497,-5.0919,-5.0598,-4.9684,-4.9502,-4.9669,-4.9553,-4.8548,-4.7423,-4.7525,-4.6408,-4.511,-4.5155,-4.5092,-4.4829,-4.4162,-4.2883,-4.184,-4.216,-4.1123,-4.0012,-4.0216,-3.9498,-3.8763,-3.8779,-3.8774,-3.85,-3.7615,-3.7275,-3.6489,-3.4612,-3.4493,-3.4266,-3.3158,-3.3912,-3.4438,-3.4066,-3.4184,-3.413,-3.368,-3.3284,-3.2907,-3.2555,-3.2342,-3.1972,-3.1395,-3.1709,-3.1779,-3.1552,-3.0857,-3.0385,-3.023,-3.085,-3.1201,-3.1242,-3.168,-3.1855,-3.1865,-3.2316,-3.2214,-3.1684,-3.146,-3.1491,-3.1743,-3.1432,-3.1423,-3.1658,-3.1558,-3.1524,-3.1512,-3.1355,-3.1474,-3.1752,-6.4009,-6.428,-6.4523,-6.4873,-6.49,-6.4741,-6.4479,-6.4072,-6.3867,-6.4241,-6.3955,-6.3765,-6.3804,-6.3577,-6.3133,-6.2392,-6.2412,-6.1957,-6.0771,-6.1016,-6.081,-5.9704,-5.9711,-5.9542,-5.9233,-5.8025,-5.7378,-5.7378,-5.6585,-5.625,-5.6394,-5.6592,-5.6411,-5.591,-5.5271,-5.4633,-5.4023,-5.3675,-5.35,-5.35,-5.35,-5.3123,-5.2514,-5.1539,-5.0904,-5.0369,-4.9585,-4.9404,-4.9502,-4.962,-4.9011,-4.8075,-4.7869,-4.7004,-4.5936,-4.5636,-4.491,-4.4248,-4.4236,-4.3182,-4.2205,-4.2514,-4.1513,-4.0537,-4.0625,-3.9804,-3.9027,-3.9019,-3.8964,-3.8741,-3.8131,-3.767,-3.6994,-3.5886,-3.5354,-3.4909,-3.4313,-3.4655,-3.491,-3.4657,-3.4788,-3.4806,-3.4442,-3.414,-3.3923,-3.3726,-3.3308,-3.2862,-3.2398,-3.2391,-3.2438,-3.2486,-3.1694,-3.104,-3.0452,-3.1148,-3.1313,-3.1054,-3.1702,-3.1742,-3.1269,-3.2115,-3.1956,-3.0957,-3.1408,-3.1578,-3.152,-3.1292,-3.1275,-3.1401,-3.1178,-3.0872,-3.0623,-3.0572,-3.0635,-3.0683,-6.3822,-6.4039,-6.436,-6.5159,-6.5057,-6.4976,-6.4976,-6.4383,-6.4092,-6.4391,-6.4103,-6.3784,-6.3614,-6.3632,-6.3197,-6.2112,-6.241,-6.2302,-6.1402,-6.1448,-6.1109,-6.0125,-5.9992,-5.9683,-5.9233,-5.8025,-5.7378,-5.7378,-5.6526,-5.6193,-5.6394,-5.6823,-5.676,-5.6374,-5.5881,-5.5213,-5.4487,-5.3965,-5.3646,-5.35,-5.35,-5.321,-5.2717,-5.177,-5.1084,-5.05,-4.9716,-4.9449,-4.9404,-4.9551,-4.9214,-4.8653,-4.8159,-4.755,-4.6923,-4.643,-4.5298,-4.4245,-4.4328,-4.3607,-4.2868,-4.3054,-4.2133,-4.1245,-4.1384,-4.0584,-3.9786,-3.955,-3.9412,-3.9235,-3.8699,-3.8118,-3.7529,-3.6995,-3.6301,-3.5685,-3.5391,-3.5452,-3.5518,-3.5398,-3.5438,-3.5394,-3.5202,-3.4907,-3.4647,-3.4474,-3.3973,-3.3421,-3.2864,-3.2695,-3.2735,-3.296,-3.249,-3.1774,-3.0805,-3.1376,-3.1416,-3.0995,-3.1692,-3.1656,-3.0892,-3.1877,-3.1648,-3.0429,-3.1344,-3.1549,-3.1326,-3.1238,-3.1213,-3.1241,-3.0778,-3.0299,-2.9787,-2.9818,-2.9668,-2.9491,-6.3575,-6.3797,-6.428,-6.4786,-6.469,-6.4534,-6.4534,-6.4257,-6.4044,-6.4044,-6.4177,-6.421,-6.4256,-6.4229,-6.3984,-6.3333,-6.279,-6.2544,-6.2604,-6.2065,-6.1264,-6.0153,-5.957,-5.9261,-5.9205,-5.8025,-5.7378,-5.7378,-5.6702,-5.6394,-5.6394,-5.7021,-5.6984,-5.6403,-5.6345,-5.5649,-5.4517,-5.4458,-5.4081,-5.35,-5.35,-5.3471,-5.3332,-5.2463,-5.185,-5.1367,-5.0226,-4.9774,-4.962,-4.9404,-4.9068,-4.8663,-4.8682,-4.8217,-4.7648,-4.7355,-4.69,-4.6234,-4.5071,-4.4121,-4.3628,-4.4422,-4.3357,-4.2266,-4.2805,-4.2104,-4.1224,-4.0862,-4.0618,-4.0172,-3.925,-3.8644,-3.8006,-3.7071,-3.692,-3.6838,-3.6456,-3.6722,-3.6775,-3.6389,-3.614,-3.5781,-3.5169,-3.465,-3.4177,-3.3722,-3.3214,-3.2606,-3.1826,-3.202,-3.2202,-3.2276,-3.2878,-3.2619,-3.1452,-3.1714,-3.174,-3.1523,-3.1737,-3.1652,-3.1359,-3.1474,-3.1108,-3.0429,-3.0491,-3.0673,-3.0898,-3.0486,-3.0543,-3.0778,-3.0299,-2.9664,-2.9008,-2.9251,-2.9094,-2.8695,-6.3443,-6.3635,-6.3856,-6.4215,-6.4194,-6.4091,-6.3986,-6.3791,-6.3642,-6.3642,-6.3808,-6.3946,-6.3946,-6.4165,-6.393,-6.2953,-6.2867,-6.2671,-6.2163,-6.2157,-6.1713,-6.0714,-6.0132,-5.9598,-5.9233,-5.839,-5.794,-5.794,-5.7338,-5.6925,-5.6703,-5.7168,-5.7139,-5.6674,-5.6466,-5.6142,-5.5649,-5.4865,-5.4371,-5.411,-5.3675,-5.3163,-5.2578,-5.2324,-5.173,-5.0995,-5.0211,-4.9961,-4.9973,-4.9499,-4.928,-4.9233,-4.8856,-4.8422,-4.7942,-4.7138,-4.6784,-4.6506,-4.591,-4.5175,-4.4753,-4.5214,-4.4031,-4.2795,-4.2888,-4.2196,-4.1425,-4.1087,-4.0968,-4.0713,-4.0205,-3.9741,-3.9343,-3.906,-3.8529,-3.8179,-3.8291,-3.7989,-3.7528,-3.6831,-3.6895,-3.6676,-3.5941,-3.5796,-3.5716,-3.5576,-3.4962,-3.4366,-3.3916,-3.3427,-3.3146,-3.3061,-3.3162,-3.274,-3.1697,-3.1837,-3.1699,-3.1313,-3.142,-3.1331,-3.1109,-3.135,-3.0976,-3.0148,-3.059,-3.0526,-3.0139,-3.0184,-3.0161,-2.9927,-2.9523,-2.9042,-2.8567,-2.8768,-2.854,-2.8234,-6.3392,-6.3554,-6.375,-6.4164,-6.4089,-6.4013,-6.3776,-6.3557,-6.3412,-6.3302,-6.3553,-6.3726,-6.3873,-6.4165,-6.3984,-6.317,-6.2976,-6.2726,-6.2356,-6.2537,-6.2201,-6.1425,-6.0582,-5.9935,-5.9514,-5.8727,-5.8306,-5.8306,-5.7809,-5.7394,-5.7208,-5.7562,-5.7626,-5.7456,-5.728,-5.6959,-5.6636,-5.5765,-5.5155,-5.4749,-5.4284,-5.3574,-5.2732,-5.2761,-5.2086,-5.1052,-5.0595,-5.0462,-5.0356,-4.9724,-4.9643,-4.9725,-4.9088,-4.8789,-4.8402,-4.7364,-4.7113,-4.708,-4.6666,-4.6251,-4.5886,-4.5881,-4.4818,-4.3705,-4.3452,-4.2747,-4.1972,-4.1361,-4.124,-4.114,-4.0643,-4.0341,-4.0179,-4.016,-3.9595,-3.9196,-3.9321,-3.8865,-3.824,-3.7526,-3.7556,-3.741,-3.6741,-3.675,-3.6651,-3.6589,-3.5951,-3.531,-3.4687,-3.3962,-3.3449,-3.3212,-3.3245,-3.2876,-3.1989,-3.1959,-3.1733,-3.1318,-3.1295,-3.1212,-3.0928,-3.1219,-3.0789,-2.993,-3.0513,-3.0389,-2.9759,-2.9911,-2.9778,-2.9311,-2.8856,-2.8411,-2.8109,-2.8295,-2.8139,-2.7893,-6.3392,-6.3797,-6.42,-6.4707,-6.4611,-6.4351,-6.375,-6.3557,-6.3355,-6.3117,-6.3433,-6.3873,-6.4237,-6.431,-6.431,-6.431,-6.3225,-6.2828,-6.35,-6.3146,-6.2661,-6.2043,-6.0807,-6.0132,-6.0132,-5.8952,-5.8306,-5.8306,-5.7991,-5.7772,-5.7831,-5.813,-5.8514,-5.8809,-5.8809,-5.8263,-5.7303,-5.7303,-5.6578,-5.5416,-5.5416,-5.4877,-5.414,-5.4111,-5.312,-5.1713,-5.1709,-5.1309,-5.0738,-5.0109,-5.0032,-5.009,-4.9507,-4.9334,-4.9141,-4.8264,-4.8275,-4.8318,-4.7425,-4.7207,-4.7066,-4.6448,-4.5802,-4.518,-4.4699,-4.4104,-4.3258,-4.1896,-4.1597,-4.1361,-4.0467,-4.0313,-4.0192,-3.9955,-3.9907,-3.9764,-3.931,-3.9214,-3.8994,-3.8483,-3.8163,-3.7916,-3.7643,-3.7142,-3.6563,-3.6054,-3.5746,-3.5022,-3.3604,-3.3149,-3.2767,-3.2413,-3.3085,-3.3097,-3.2451,-3.2235,-3.2015,-3.1816,-3.1514,-3.1208,-3.0879,-3.0883,-3.0514,-2.9946,-3.0242,-3.0187,-2.9812,-2.9667,-2.9412,-2.8907,-2.8472,-2.8002,-2.7524,-2.7811,-2.7784,-2.7736,-6.2985,-6.3392,-6.3669,-6.3766,-6.3931,-6.4013,-6.3776,-6.3695,-6.3507,-6.3381,-6.3452,-6.3591,-6.3853,-6.3873,-6.3857,-6.3641,-6.336,-6.303,-6.2673,-6.2946,-6.2878,-6.2292,-6.1744,-6.1256,-6.0807,-5.9992,-5.957,-5.957,-5.9014,-5.8569,-5.8147,-5.8423,-5.8437,-5.813,-5.8574,-5.8378,-5.7628,-5.7393,-5.6839,-5.6055,-5.5591,-5.5137,-5.4717,-5.4446,-5.3934,-5.3259,-5.2368,-5.2041,-5.1937,-5.1069,-5.0969,-5.1143,-5.0738,-5.0025,-4.9264,-4.9073,-4.8808,-4.8402,-4.7931,-4.7853,-4.7712,-4.7094,-4.6476,-4.5853,-4.5364,-4.5078,-4.4551,-4.3165,-4.2834,-4.2574,-4.147,-4.1267,-4.1169,-4.0923,-4.0726,-4.0627,-4.0653,-3.9992,-3.9314,-3.9017,-3.8717,-3.829,-3.7631,-3.7612,-3.7517,-3.7173,-3.646,-3.571,-3.4866,-3.4423,-3.4062,-3.3741,-3.3847,-3.3713,-3.3377,-3.3071,-3.2669,-3.2251,-3.2198,-3.2034,-3.1744,-3.1731,-3.1322,-3.0673,-3.1006,-3.0611,-2.9667,-2.9885,-2.9513,-2.8909,-2.8481,-2.816,-2.7991,-2.8284,-2.8276,-2.8247,-6.3067,-6.3392,-6.3776,-6.3843,-6.4243,-6.4351,-6.409,-6.4012,-6.3957,-6.3762,-6.3759,-6.3774,-6.3787,-6.3929,-6.3907,-6.3533,-6.355,-6.3292,-6.2616,-6.3252,-6.3384,-6.2771,-6.2715,-6.2324,-6.1481,-6.0582,-6.0132,-6.0132,-5.9514,-5.9008,-5.8671,-5.8828,-5.8847,-5.875,-5.9171,-5.9124,-5.8696,-5.8291,-5.7739,-5.71,-5.6432,-5.5861,-5.538,-5.5169,-5.4598,-5.378,-5.3193,-5.2814,-5.252,-5.1863,-5.151,-5.141,-5.1257,-5.0486,-4.9716,-4.9665,-4.9291,-4.8799,-4.8522,-4.8668,-4.8696,-4.8078,-4.7291,-4.6497,-4.5951,-4.5658,-4.5183,-4.4003,-4.3671,-4.3312,-4.2563,-4.2148,-4.1867,-4.1799,-4.149,-4.1182,-4.1131,-4.0567,-3.9982,-3.9625,-3.9317,-3.8877,-3.8121,-3.8118,-3.7989,-3.7581,-3.674,-3.6115,-3.5815,-3.5171,-3.4688,-3.444,-3.4399,-3.4227,-3.3779,-3.3783,-3.3384,-3.2668,-3.2395,-3.2223,-3.2098,-3.1961,-3.1546,-3.0986,-3.1201,-3.0685,-2.9684,-2.9793,-2.9314,-2.84,-2.814,-2.7913,-2.7822,-2.8177,-2.8441,-2.8674,-6.3311,-6.3797,-6.42,-6.4707,-6.5079,-6.5135,-6.4691,-6.4613,-6.456,-6.4394,-6.4315,-6.4231,-6.4022,-6.4316,-6.4298,-6.3707,-6.3894,-6.375,-6.3148,-6.3736,-6.3873,-6.3261,-6.3555,-6.3223,-6.2127,-6.0919,-6.0301,-6.0301,-5.9683,-5.9345,-5.9289,-5.9289,-5.9572,-6.0194,-6.0194,-6.0186,-6.0089,-5.9568,-5.89,-5.8232,-5.7565,-5.6787,-5.6128,-5.607,-5.5128,-5.3875,-5.4061,-5.3575,-5.2841,-5.2421,-5.1863,-5.1344,-5.1401,-5.094,-5.0371,-5.0176,-4.9842,-4.945,-4.9221,-4.9539,-4.9872,-4.9258,-4.8195,-4.7197,-4.6639,-4.6045,-4.5431,-4.4594,-4.4109,-4.3774,-4.3568,-4.2811,-4.2319,-4.2527,-4.2112,-4.1544,-4.1076,-4.0919,-4.0734,-4.0259,-3.9833,-3.9379,-3.8894,-3.8537,-3.8123,-3.7571,-3.6713,-3.6295,-3.6462,-3.5589,-3.4986,-3.4795,-3.4923,-3.4613,-3.396,-3.4443,-3.4185,-3.3019,-3.2421,-3.2132,-3.2205,-3.1721,-3.1367,-3.1069,-3.1069,-3.0534,-2.9694,-2.9701,-2.8907,-2.7783,-2.7784,-2.7641,-2.7513,-2.7948,-2.851,-2.9074,-6.3004,-6.3311,-6.3716,-6.42,-6.4601,-6.4974,-6.5135,-6.5188,-6.5136,-6.4948,-6.4663,-6.4346,-6.4,-6.4119,-6.4001,-6.3707,-6.4056,-6.402,-6.3323,-6.3566,-6.346,-6.2852,-6.2962,-6.2998,-6.2745,-6.1987,-6.1593,-6.1593,-6.1003,-6.0441,-5.9935,-5.9935,-5.9871,-5.9853,-6.0071,-6.0065,-5.9792,-5.9421,-5.89,-5.8232,-5.7565,-5.716,-5.693,-5.6466,-5.6119,-5.5687,-5.4757,-5.4269,-5.4037,-5.3424,-5.2787,-5.2404,-5.2845,-5.2236,-5.1374,-5.1638,-5.115,-5.044,-5.0181,-5.0057,-4.9985,-4.9792,-4.9046,-4.814,-4.7564,-4.7165,-4.661,-4.5554,-4.4879,-4.4305,-4.3647,-4.3126,-4.2788,-4.2604,-4.2291,-4.2056,-4.1845,-4.1314,-4.0885,-4.0724,-3.9995,-3.9393,-3.9062,-3.8562,-3.8083,-3.7745,-3.7292,-3.7004,-3.6971,-3.6264,-3.5951,-3.6142,-3.5664,-3.5385,-3.5392,-3.4896,-3.4274,-3.3473,-3.3144,-3.2965,-3.3021,-3.2312,-3.1934,-3.1754,-3.1456,-3.0823,-2.9992,-2.9992,-2.9481,-2.8657,-2.8898,-2.8956,-2.8843,-2.9573,-2.9993,-3.0354,-6.2898,-6.3148,-6.3635,-6.4039,-6.4466,-6.492,-6.5318,-6.5371,-6.5345,-6.5267,-6.477,-6.4428,-6.4171,-6.4053,-6.4028,-6.4,-6.4165,-6.4174,-6.3876,-6.3777,-6.3526,-6.2921,-6.2998,-6.2956,-6.2676,-6.2473,-6.2296,-6.2015,-6.1397,-6.0778,-6.0132,-6.0132,-6.0046,-5.9948,-6.0132,-6.0298,-6.0374,-5.9625,-5.9103,-5.8697,-5.771,-5.7303,-5.7274,-5.6955,-5.6665,-5.6316,-5.5649,-5.5039,-5.4347,-5.3603,-5.3192,-5.3065,-5.3256,-5.2758,-5.2085,-5.2174,-5.1718,-5.1147,-5.0885,-5.0819,-5.0829,-5.0519,-4.9945,-4.9206,-4.8184,-4.7509,-4.6895,-4.6152,-4.5654,-4.5128,-4.4599,-4.394,-4.3361,-4.322,-4.2611,-4.2109,-4.1947,-4.1459,-4.1021,-4.0887,-4.0446,-3.989,-3.9329,-3.8385,-3.7828,-3.7908,-3.7469,-3.7317,-3.7572,-3.6928,-3.6721,-3.6939,-3.6126,-3.5666,-3.5491,-3.4851,-3.4164,-3.3371,-3.3033,-3.308,-3.3287,-3.2285,-3.1896,-3.1984,-3.1383,-3.0741,-3.0052,-2.9897,-2.9457,-2.8834,-2.9087,-2.9114,-2.9218,-2.9881,-3.0694,-3.1607,-6.308,-6.3381,-6.3762,-6.4064,-6.4441,-6.484,-6.5238,-6.5397,-6.5371,-6.5371,-6.4979,-6.4508,-6.4239,-6.3982,-6.3968,-6.4264,-6.431,-6.431,-6.431,-6.4017,-6.3672,-6.3179,-6.3182,-6.2911,-6.2476,-6.2715,-6.2661,-6.2155,-6.165,-6.1088,-6.0441,-6.0357,-6.0279,-6.0337,-6.0222,-6.056,-6.1106,-5.9945,-5.9451,-5.9335,-5.8,-5.7477,-5.7505,-5.7332,-5.6984,-5.6604,-5.6432,-5.5649,-5.4521,-5.3786,-5.3579,-5.3622,-5.3386,-5.3058,-5.2694,-5.2434,-5.212,-5.1803,-5.1509,-5.1609,-5.1674,-5.1115,-5.0675,-5.0017,-4.8724,-4.7688,-4.6958,-4.6667,-4.6297,-4.5901,-4.5662,-4.4704,-4.4012,-4.3932,-4.2996,-4.2143,-4.1897,-4.1589,-4.1254,-4.095,-4.0837,-4.0386,-3.9554,-3.8298,-3.7814,-3.8313,-3.7769,-3.7654,-3.823,-3.7608,-3.7255,-3.7334,-3.6385,-3.5746,-3.5317,-3.4697,-3.3996,-3.3321,-3.2737,-3.2699,-3.3073,-3.1977,-3.1653,-3.1834,-3.1145,-3.0498,-3.0052,-2.9679,-2.9247,-2.8921,-2.8979,-2.911,-2.9377,-2.9961,-3.1139,-3.2446,-6.4304,-6.4102,-6.422,-6.4141,-6.4119,-6.436,-6.4761,-6.5159,-6.5371,-6.5371,-6.5318,-6.4874,-6.388,-6.3461,-6.3513,-6.4237,-6.431,-6.431,-6.431,-6.3635,-6.3331,-6.35,-6.2903,-6.2599,-6.2809,-6.2876,-6.2886,-6.2802,-6.2717,-6.2352,-6.1762,-6.1228,-6.0992,-6.0965,-6.0422,-6.056,-6.1164,-6.0409,-6.009,-5.9974,-5.8668,-5.8316,-5.8428,-5.7619,-5.7443,-5.7465,-5.6718,-5.5939,-5.5271,-5.513,-5.4753,-5.4371,-5.4318,-5.3883,-5.3332,-5.3045,-5.2779,-5.2484,-5.2162,-5.1948,-5.1704,-5.1402,-5.0683,-4.9967,-4.9529,-4.8515,-4.7503,-4.6931,-4.6403,-4.5901,-4.5662,-4.5047,-4.4427,-4.3984,-4.3326,-4.2749,-4.2413,-4.1906,-4.1542,-4.1485,-4.0741,-4.0012,-3.937,-3.8889,-3.8812,-3.9356,-3.8774,-3.8543,-3.885,-3.8124,-3.7654,-3.7545,-3.6443,-3.5909,-3.5907,-3.4933,-3.4144,-3.3743,-3.2665,-3.2192,-3.2213,-3.1739,-3.1515,-3.155,-3.1035,-3.05,-3.0052,-2.9679,-2.9404,-2.9333,-2.961,-2.9946,-3.0369,-3.1623,-3.22,-3.244,-6.4332,-6.4179,-6.4265,-6.4492,-6.4441,-6.4601,-6.5079,-6.5318,-6.5371,-6.5371,-6.5109,-6.4796,-6.4505,-6.416,-6.4002,-6.4264,-6.431,-6.431,-6.431,-6.3659,-6.334,-6.3461,-6.2729,-6.2341,-6.2477,-6.2549,-6.2582,-6.2582,-6.2781,-6.2605,-6.2015,-6.1397,-6.1006,-6.083,-6.0389,-6.0499,-6.0894,-6.0437,-6.0206,-6.0119,-5.9219,-5.89,-5.8986,-5.858,-5.8493,-5.8462,-5.733,-5.649,-5.591,-5.5533,-5.5242,-5.4952,-5.4633,-5.4546,-5.4463,-5.3765,-5.341,-5.314,-5.2814,-5.2177,-5.1541,-5.1431,-5.0851,-5.0161,-4.9694,-4.8954,-4.8083,-4.732,-4.6514,-4.5901,-4.5662,-4.51,-4.4531,-4.401,-4.3265,-4.265,-4.2312,-4.1745,-4.1287,-4.1115,-4.0421,-3.9837,-3.9626,-3.8953,-3.8799,-3.9295,-3.8547,-3.8241,-3.8723,-3.7994,-3.7598,-3.7595,-3.6562,-3.5888,-3.5743,-3.4646,-3.3747,-3.3191,-3.2263,-3.1907,-3.207,-3.1423,-3.1118,-3.1097,-3.0607,-3.0144,-2.9756,-2.9368,-2.935,-2.9661,-2.9807,-3.0276,-3.0978,-3.204,-3.251,-3.276]},{"header":{"parameterUnit":"m.s-1","parameterCategory":1,"la1":30.6,"la2":28.766,"lo1":-90.7593,"lo2":-88.6598,"dy":0.0162,"dx":0.0183,"nx":116,"ny":114,"refTime":"2023-04-19T12:00:00:Z","depth":0,"parameterNumber":3,"parameterNumberName":"V-component_of_WINDS"},"data":[0.0,0.0,0.0,0.0,0.0,0.0,0.0,0.0,0.0,0.0,0.0,0.0,0.0,0.0,0.0,0.0,0.0,0.0,0.0,0.0,0.0,0.0,0.0,0.0,0.0,0.0,0.0,0.0,0.0,0.0,0.0,0.0,0.0,0.0,0.0,0.0,0.0,0.0,0.0,0.0,0.0,0.0,0.0,0.0,0.0,0.0,0.0,0.0,0.0,0.0,0.0,0.0,0.0,0.0,0.0,0.0,0.0,0.0,0.0,0.0,0.0,0.0,0.0,0.0,0.0,0.0,0.0,0.0,0.0,0.0,0.0,0.0,0.0,0.0,0.0,0.0,0.0,0.0,0.0,0.0,0.0,0.0,0.0,0.0,0.0,0.0,0.0,0.0,0.0,0.0,0.0,0.0,0.0,0.0,0.0,0.0,0.0,0.0,0.0,0.0,0.0,0.0,0.0,0.0,0.0,0.0,0.0,0.0,0.0,0.0,0.0,0.0,0.0,0.0,0.0,0.0,0.0,0.0,0.0,0.0,0.0,0.0,0.0,0.0,0.0,0.0,0.0,0.0,0.0,0.0,0.0,0.0,0.0,0.0,0.0,0.0,0.0,0.0,0.0,0.0,0.0,0.0,0.0,0.0,0.0,0.0,0.0,0.0,0.0,0.0,0.0,0.0,0.0,0.0,0.0,0.0,0.0,0.0,0.0,0.0,0.0,0.0,0.0,0.0,0.0,0.0,0.0,0.0,0.0,0.0,0.0,0.0,0.0,0.0,0.0,0.0,0.0,0.0,0.0,0.0,0.0,0.0,0.0,0.0,0.0,0.0,0.0,0.0,0.0,0.0,0.0,0.0,0.0,0.0,0.0,0.0,0.0,0.0,0.0,0.0,0.0,0.0,0.0,0.0,0.0,0.0,0.0,0.0,0.0,0.0,0.0,0.0,0.0,0.0,0.0,0.0,0.0,0.0,0.0,0.0,0.0,0.0,0.0,0.0,0.0,0.0,0.0,0.0,0.0,0.0,0.0,0.0,0.0,0.0,0.0,0.0,0.0,0.0,0.0,0.0,0.0,0.0,0.0,0.0,0.0,0.0,0.0,0.0,0.0,0.0,0.0,0.0,0.0,0.0,0.0,0.0,0.0,0.0,0.0,0.0,0.0,0.0,0.0,0.0,0.0,0.0,0.0,0.0,0.0,0.0,0.0,0.0,0.0,0.0,0.0,0.0,0.0,0.0,0.0,0.0,0.0,0.0,0.0,0.0,0.0,0.0,0.0,0.0,0.0,0.0,0.0,0.0,0.0,0.0,0.0,0.0,0.0,0.0,0.0,0.0,0.0,0.0,0.0,0.0,0.0,0.0,0.0,0.0,0.0,0.0,0.0,0.0,0.0,0.0,0.0,0.0,0.0,0.0,0.0,0.0,0.0,0.0,0.0,0.0,0.0,0.0,0.0,0.0,0.0,0.0,0.0,0.0,0.0,0.0,0.0,0.0,0.0,0.0,0.0,0.0,0.0,0.0,0.0,0.0,0.0,0.0,0.0,0.0,0.0,0.0,0.0,0.0,0.0,0.0,0.0,0.0,0.0,0.0,0.0,0.0,0.0,0.0,0.0,0.0,0.0,0.0,0.0,0.0,0.0,0.0,0.0,0.0,0.0,0.0,0.0,0.0,0.0,0.0,0.0,0.0,0.0,0.0,0.0,0.0,0.0,0.0,0.0,0.0,0.0,0.0,0.0,0.0,0.0,0.0,0.0,0.0,0.0,0.0,0.0,0.0,0.0,0.0,0.0,0.0,0.0,0.0,0.0,0.0,0.0,0.0,0.0,0.0,0.0,0.0,0.0,0.0,0.0,0.0,0.0,0.0,0.0,0.0,0.0,0.0,0.0,0.0,0.0,0.0,0.0,0.0,0.0,0.0,0.0,0.0,0.0,0.0,0.0,0.0,0.0,0.0,0.0,0.0,0.0,0.0,0.0,0.0,0.0,0.0,0.0,0.0,0.0,0.0,0.0,0.0,0.0,0.0,0.0,0.0,0.0,0.0,0.0,0.0,0.0,0.0,0.0,0.0,0.0,0.0,0.0,0.0,0.0,0.0,0.0,0.0,0.0,0.0,0.0,0.0,0.0,0.0,0.0,0.0,0.0,0.0,0.0,0.0,0.0,0.0,0.0,0.0,0.0,0.0,0.0,0.0,0.0,0.0,0.0,0.0,0.0,0.0,0.0,0.0,0.0,0.0,0.0,0.0,0.0,0.0,0.0,0.0,0.0,0.0,0.0,0.0,0.0,0.0,0.0,0.0,0.0,0.0,0.0,0.0,0.0,0.0,0.0,0.0,0.0,0.0,0.0,0.0,0.0,0.0,0.0,0.0,0.0,0.0,0.0,0.0,0.0,0.0,0.0,0.0,0.0,0.0,0.0,0.0,0.0,0.0,0.0,0.0,0.0,0.0,0.0,0.0,0.0,0.0,0.0,0.0,0.0,0.0,0.0,0.0,0.0,0.0,0.0,0.0,0.0,0.0,0.0,0.0,0.0,0.0,0.0,0.0,0.0,0.0,0.0,0.0,0.0,0.0,0.0,0.0,0.0,0.0,0.0,0.0,0.0,0.0,0.0,0.0,0.0,0.0,0.0,0.0,0.0,0.0,0.0,0.0,0.0,0.0,0.0,0.0,0.0,0.0,0.0,0.0,0.0,0.0,0.0,0.0,0.0,0.0,0.0,0.0,0.0,0.0,0.0,0.0,0.0,0.0,0.0,0.0,0.0,0.0,0.0,0.0,0.0,0.0,0.0,0.0,0.0,0.0,0.0,0.0,0.0,0.0,0.0,0.0,0.0,0.0,0.0,0.0,0.0,0.0,0.0,0.0,0.0,0.0,0.0,0.0,0.0,0.0,0.0,0.0,0.0,0.0,0.0,0.0,0.0,0.0,0.0,0.0,0.0,0.0,0.0,0.0,0.0,0.0,0.0,0.0,0.0,0.0,0.0,0.0,0.0,0.0,0.0,0.0,0.0,0.0,0.0,0.0,0.0,0.0,0.0,0.0,0.0,0.0,0.0,0.0,0.0,0.0,0.0,0.0,0.0,0.0,0.0,0.0,0.0,0.0,0.0,0.0,0.0,0.0,0.0,0.0,0.0,0.0,0.0,0.0,0.0,0.0,0.0,0.0,0.0,0.0,0.0,0.0,0.0,0.0,0.0,0.0,0.0,0.0,0.0,0.0,0.0,0.0,0.0,0.0,0.0,0.0,0.0,0.0,0.0,0.0,0.0,0.0,0.0,0.0,0.0,0.0,0.0,0.0,0.0,0.0,0.0,0.0,0.0,0.0,0.0,0.0,0.0,0.0,0.0,0.0,0.0,0.0,0.0,0.0,0.0,0.0,0.0,0.0,0.0,0.0,0.0,0.0,0.0,0.0,0.0,0.0,0.0,0.0,0.0,0.0,0.0,0.0,0.0,0.0,0.0,0.0,0.0,0.0,0.0,0.0,0.0,0.0,0.0,0.0,0.0,0.0,0.0,0.0,0.0,0.0,0.0,0.0,0.0,0.0,0.0,0.0,0.0,0.0,0.0,0.0,0.0,0.0,0.0,0.0,0.0,0.0,0.0,0.0,0.0,0.0,0.0,0.0,0.0,0.0,0.0,0.0,0.0,0.0,0.0,0.0,0.0,0.0,0.0,0.0,0.0,0.0,0.0,0.0,0.0,0.0,0.0,0.0,0.0,0.0,0.0,0.0,0.0,0.0,0.0,0.0,0.0,0.0,0.0,0.0,0.0,0.0,0.0,0.0,0.0,0.0,0.0,0.0,0.0,0.0,0.0,0.0,0.0,0.0,0.0,0.0,0.0,0.0,0.0,0.0,0.0,0.0,0.0,0.0,0.0,0.0,0.0,0.0,0.0,0.0,0.0,0.0,0.0,0.0,0.0,0.0,0.0,0.0,0.0,0.0,0.0,0.0,0.0,0.0,0.0,0.0,0.0,0.0,0.0,0.0,0.0,0.0,0.0,0.0,0.0,0.0,0.0,0.0,0.0,0.0,0.0,0.0,0.0,0.0,0.0,0.0,0.0,0.0,0.0,0.0,0.0,0.0,0.0,0.0,0.0,0.0,0.0,0.0,0.0,0.0,0.0,0.0,0.0,0.0,0.0,0.0,0.0,0.0,0.0,0.0,0.0,0.0,0.0,0.0,0.0,0.0,0.0,0.0,0.0,0.0,0.0,0.0,0.0,0.0,0.0,0.0,0.0,0.0,0.0,0.0,0.0,0.0,0.0,0.0,0.0,0.0,0.0,0.0,0.0,0.0,0.0,0.0,0.0,0.0,0.0,0.0,0.0,0.0,0.0,0.0,0.0,0.0,0.0,0.0,0.0,0.0,0.0,0.0,0.0,0.0,0.0,0.0,0.0,0.0,0.0,0.0,0.0,0.0,0.0,0.0,0.0,0.0,0.0,0.0,0.0,0.0,0.0,0.0,0.0,0.0,0.0,0.0,0.0,0.0,0.0,0.0,0.0,0.0,0.0,0.0,0.0,0.0,0.0,0.0,0.0,0.0,0.0,0.0,0.0,0.0,0.0,0.0,0.0,0.0,0.0,0.0,0.0,0.0,0.0,0.0,0.0,0.0,0.0,0.0,0.0,0.0,0.0,0.0,0.0,0.0,0.0,0.0,0.0,0.0,0.0,0.0,0.0,0.0,0.0,0.0,0.0,0.0,0.0,0.0,0.0,0.0,0.0,0.0,0.0,0.0,0.0,0.0,0.0,0.0,0.0,0.0,0.0,0.0,0.0,0.0,0.0,0.0,0.0,0.0,0.0,0.0,0.0,0.0,0.0,0.0,0.0,0.0,0.0,0.0,0.0,0.0,0.0,0.0,0.0,0.0,0.0,0.0,0.0,0.0,0.0,0.0,0.0,0.0,0.0,0.0,0.0,0.0,0.0,0.0,0.0,0.0,0.0,0.0,0.0,0.0,0.0,0.0,0.0,0.0,0.0,0.0,0.0,0.0,0.0,0.0,0.0,0.0,0.0,0.0,0.0,0.0,0.0,0.0,0.0,0.0,0.0,0.0,0.0,0.0,0.0,0.0,0.0,0.0,0.0,0.0,0.0,0.0,0.0,0.0,0.0,0.0,0.0,0.0,0.0,0.0,0.0,0.0,0.0,0.0,0.0,0.0,0.0,0.0,0.0,0.0,0.0,0.0,0.0,0.0,0.0,0.0,0.0,0.0,0.0,0.0,0.0,0.0,0.0,0.0,0.0,0.0,0.0,0.0,0.0,0.0,0.0,0.0,0.0,0.0,0.0,0.0,0.0,0.0,0.0,0.0,0.0,0.0,0.0,0.0,0.0,0.0,0.0,0.0,0.0,0.0,0.0,0.0,0.0,0.0,0.0,0.0,0.0,0.0,0.0,0.0,0.0,0.0,0.0,0.0,0.0,0.0,0.0,0.0,0.0,0.0,0.0,0.0,0.0,0.0,0.0,0.0,0.0,0.0,0.0,0.0,0.0,0.0,0.0,0.0,0.0,0.0,0.0,0.0,0.0,0.0,0.0,0.0,0.0,0.0,0.0,0.0,0.0,0.0,0.0,0.0,0.0,0.0,0.0,0.0,0.0,0.0,0.0,0.0,0.0,0.0,0.0,0.0,0.0,0.0,0.0,0.0,0.0,0.0,0.0,0.0,0.0,0.0,0.0,0.0,0.0,0.0,0.0,0.0,0.0,0.0,0.0,0.0,0.0,0.0,0.0,0.0,0.0,0.0,0.0,0.0,0.0,0.0,0.0,0.0,0.0,0.0,0.0,0.0,0.0,0.0,0.0,0.0,0.0,0.0,0.0,0.0,0.0,0.0,0.0,0.0,0.0,0.0,0.0,0.0,0.0,0.0,0.0,0.0,0.0,0.0,0.0,0.0,0.0,0.0,0.0,0.0,0.0,0.0,0.0,0.0,0.0,0.0,0.0,0.0,0.0,0.0,0.0,0.0,0.0,0.0,0.0,0.0,0.0,0.0,0.0,0.0,0.0,0.0,0.0,0.0,0.0,0.0,0.0,0.0,0.0,0.0,0.0,0.0,0.0,0.0,0.0,0.0,0.0,0.0,0.0,0.0,0.0,0.0,0.0,0.0,4.0927,3.8669,0.0,0.0,0.0,0.0,0.0,0.0,0.0,0.0,0.0,0.0,0.0,0.0,0.0,0.0,0.0,0.0,0.0,0.0,0.0,0.0,0.0,0.0,0.0,0.0,0.0,0.0,0.0,0.0,0.0,0.0,0.0,0.0,0.0,0.0,0.0,0.0,0.0,0.0,0.0,0.0,0.0,0.0,0.0,0.0,0.0,0.0,0.0,0.0,0.0,0.0,0.0,0.0,0.0,0.0,0.0,0.0,0.0,0.0,0.0,0.0,0.0,0.0,0.0,0.0,0.0,0.0,0.0,0.0,0.0,0.0,0.0,0.0,0.0,0.0,0.0,0.0,0.0,0.0,0.0,0.0,0.0,0.0,0.0,0.0,0.0,0.0,0.0,0.0,0.0,0.0,0.0,0.0,0.0,0.0,0.0,0.0,0.0,0.0,0.0,0.0,0.0,0.0,0.0,0.0,0.0,0.0,0.0,0.0,0.0,0.0,0.0,0.0,0.0,0.0,4.3649,4.1303,0.0,0.0,0.0,0.0,0.0,0.0,0.0,0.0,0.0,0.0,0.0,0.0,0.0,0.0,0.0,0.0,0.0,0.0,0.0,0.0,0.0,0.0,0.0,0.0,0.0,0.0,0.0,0.0,0.0,0.0,0.0,0.0,0.0,0.0,0.0,0.0,0.0,0.0,0.0,0.0,0.0,0.0,0.0,0.0,0.0,0.0,0.0,0.0,0.0,0.0,0.0,0.0,0.0,0.0,0.0,0.0,0.0,0.0,0.0,0.0,0.0,0.0,0.0,0.0,0.0,0.0,0.0,0.0,0.0,0.0,0.0,0.0,0.0,0.0,0.0,0.0,0.0,0.0,0.0,0.0,0.0,0.0,0.0,0.0,0.0,0.0,0.0,0.0,0.0,0.0,0.0,0.0,0.0,0.0,0.0,0.0,0.0,0.0,0.0,0.0,0.0,0.0,0.0,0.0,0.0,0.0,0.0,0.0,4.2432,4.3145,4.4344,4.7166,4.8565,4.8673,4.6739,4.4702,4.2564,4.0178,0.0,0.0,0.0,0.0,0.0,0.0,0.0,0.0,0.0,0.0,0.0,0.0,0.0,0.0,0.0,0.0,0.0,0.0,0.0,0.0,0.0,0.0,0.0,0.0,0.0,0.0,0.0,0.0,0.0,0.0,0.0,0.0,0.0,0.0,0.0,0.0,0.0,0.0,5.1182,5.3135,5.4091,5.4259,0.0,0.0,0.0,0.0,0.0,0.0,0.0,0.0,0.0,0.0,0.0,0.0,0.0,0.0,0.0,0.0,0.0,0.0,0.0,0.0,0.0,0.0,0.0,0.0,0.0,0.0,0.0,0.0,0.0,0.0,0.0,0.0,0.0,0.0,0.0,0.0,0.0,0.0,0.0,0.0,0.0,0.0,0.0,0.0,4.668,4.6918,0.0,0.0,0.0,0.0,0.0,0.0,0.0,0.0,0.0,0.0,0.0,0.0,0.0,4.7883,4.8644,4.7712,4.7051,4.661,4.8661,4.9967,5.0571,5.2456,5.3369,5.3436,5.2021,0.0,4.6193,4.3418,0.0,0.0,0.0,0.0,0.0,0.0,0.0,0.0,0.0,0.0,0.0,0.0,0.0,0.0,0.0,0.0,0.0,0.0,0.0,0.0,0.0,0.0,0.0,0.0,0.0,0.0,0.0,0.0,0.0,0.0,0.0,0.0,0.0,0.0,0.0,0.0,4.6192,4.885,5.1119,5.2809,5.407,5.5005,5.4284,5.3261,5.194,4.9073,0.0,0.0,0.0,0.0,0.0,0.0,0.0,0.0,0.0,0.0,0.0,0.0,0.0,0.0,0.0,0.0,0.0,0.0,0.0,0.0,0.0,0.0,0.0,0.0,0.0,0.0,0.0,0.0,0.0,0.0,0.0,0.0,0.0,0.0,0.0,0.0,0.0,0.0,0.0,4.7637,4.9276,4.8953,4.8729,4.8079,0.0,0.0,0.0,0.0,0.0,0.0,0.0,0.0,0.0,5.1708,5.1711,5.1743,5.1804,5.17,5.1407,5.1,5.1879,5.262,5.3273,5.4429,5.5125,5.5265,5.4828,5.3387,5.1062,4.6819,4.4181,4.244,0.0,0.0,0.0,0.0,2.9747,2.7064,0.0,0.0,0.0,0.0,0.0,0.0,0.0,0.0,0.0,0.0,0.0,0.0,0.0,0.0,0.0,2.6568,0.0,0.0,0.0,0.0,0.0,0.0,0.0,0.0,0.0,0.0,0.0,0.0,4.626,4.8335,5.0675,5.221,5.3545,5.4614,5.3808,5.2895,5.1704,4.883,4.5363,0.0,0.0,0.0,0.0,0.0,0.0,0.0,0.0,0.0,0.0,0.0,0.0,0.0,0.0,0.0,0.0,0.0,0.0,0.0,0.0,0.0,0.0,0.0,0.0,0.0,0.0,0.0,0.0,0.0,0.0,0.0,0.0,0.0,0.0,0.0,0.0,0.0,0.0,5.0054,5.134,5.0887,5.0671,5.0249,0.0,0.0,0.0,0.0,0.0,0.0,5.1689,5.2492,5.3127,5.3417,5.4613,5.4973,5.4387,5.4677,5.473,5.45,5.446,5.4821,5.5541,5.6375,5.6804,5.6891,5.6859,5.6255,5.4871,4.9953,4.7242,4.5839,4.3232,4.0869,3.8802,3.7267,3.4623,3.1791,0.0,0.0,0.0,0.0,0.0,0.0,0.0,0.0,0.0,0.0,0.0,0.0,0.0,0.0,2.6656,2.694,2.8288,2.9275,0.0,0.0,0.0,0.0,0.0,0.0,0.0,0.0,0.0,4.4664,4.6123,4.7875,4.9909,5.1683,5.2544,5.2573,5.2406,5.2645,5.2729,4.8415,4.4282,4.0313,0.0,0.0,0.0,0.0,0.0,0.0,0.0,0.0,0.0,0.0,0.0,0.0,0.0,0.0,0.0,0.0,0.0,0.0,0.0,0.0,0.0,0.0,0.0,0.0,0.0,0.0,0.0,0.0,0.0,0.0,0.0,0.0,0.0,0.0,0.0,0.0,0.0,0.0,0.0,5.3063,5.3706,0.0,0.0,0.0,0.0,5.2513,5.2762,5.3002,5.3259,5.4096,5.4499,5.4331,5.5581,5.5989,5.5425,5.5864,5.6219,5.6456,5.7238,5.7862,5.854,5.9517,5.9687,5.9187,5.8708,5.7782,5.6403,5.2689,5.0115,4.8288,4.6052,4.3831,4.1677,4.0026,3.8168,3.6163,0.0,0.0,0.0,0.0,0.0,0.0,0.0,0.0,0.0,0.0,0.0,0.0,0.0,2.6928,2.7139,2.7717,2.8609,2.941,3.0136,0.0,0.0,0.0,0.0,0.0,0.0,0.0,4.1583,4.4062,4.5029,4.6727,4.9115,4.9921,5.0681,5.1313,5.0455,4.9875,4.9374,4.6304,4.2891,3.9035,3.3643,2.8769,0.0,0.0,0.0,0.0,0.0,0.0,0.0,0.0,0.0,0.0,0.0,0.0,0.0,0.0,0.0,0.0,0.0,0.0,0.0,0.0,0.0,0.0,0.0,0.0,0.0,0.0,0.0,0.0,0.0,0.0,0.0,0.0,0.0,0.0,0.0,0.0,0.0,5.5636,5.5848,0.0,5.4586,5.4968,5.5119,5.4701,5.5515,5.611,5.6291,5.6631,5.678,5.6706,5.7461,5.7649,5.7325,5.8257,5.8714,5.8717,5.9251,5.9685,6.005,6.0307,6.0176,5.9715,5.9756,5.9009,5.7674,5.5533,5.366,5.1962,4.9749,4.8146,4.6774,4.4628,4.2682,4.0921,0.0,0.0,0.0,0.0,0.0,0.0,0.0,0.0,0.0,0.0,0.0,2.7702,2.8028,2.8066,2.8187,2.854,2.9372,3.0116,3.0766,0.0,0.0,0.0,0.0,0.0,0.0,4.0007,4.1578,4.3855,4.4567,4.6114,4.8401,4.8521,4.9081,4.9998,4.8656,4.7519,4.6436,4.3888,4.104,3.7758,3.2416,2.7612,2.3028,0.0,0.0,0.0,0.0,0.0,0.0,0.0,0.0,0.0,0.0,0.0,0.0,0.0,0.0,0.0,0.0,0.0,0.0,0.0,0.0,0.0,0.0,0.0,0.0,0.0,0.0,0.0,0.0,0.0,0.0,0.0,0.0,0.0,0.0,5.5656,5.6874,5.7075,5.7459,5.7492,5.6918,5.755,5.7807,5.7351,5.7936,5.8263,5.8113,5.8207,5.8272,5.823,5.9079,5.9365,5.9093,6.0133,6.0713,6.0741,6.1291,6.1694,6.2013,6.2082,6.1797,6.1241,6.101,6.017,5.8868,5.7753,5.6409,5.4806,5.2566,5.1121,5.0057,4.8172,4.6169,4.4184,0.0,0.0,0.0,0.0,0.0,0.0,0.0,0.0,0.0,0.0,2.8678,2.9192,2.8844,2.9463,2.9756,2.9333,3.0583,3.1424,0.0,3.3712,0.0,0.0,0.0,0.0,3.9648,4.0435,4.1937,4.4008,4.4719,4.5933,4.7659,4.7532,4.7779,4.8407,4.7069,4.5744,4.4298,4.13,3.8775,3.6383,3.2282,2.6997,2.1184,0.0,0.0,0.0,0.0,0.0,0.0,0.0,0.0,0.0,0.0,0.0,0.0,0.0,0.0,0.0,0.0,0.0,0.0,0.0,0.0,0.0,0.0,0.0,0.0,0.0,0.0,0.0,0.0,0.0,0.0,0.0,0.0,0.0,5.5602,5.6404,5.7203,5.7433,5.8617,5.9377,5.9284,6.0282,6.0735,6.0352,5.9853,5.9256,5.8586,5.8782,5.8867,5.8789,6.0302,6.1021,6.0773,6.1506,6.2075,6.2487,6.3438,6.4085,6.4474,6.4851,6.4628,6.3841,6.2519,6.1234,5.9991,5.9393,5.8259,5.6752,5.4491,5.2635,5.1209,5.0347,4.8398,4.5894,0.0,0.0,0.0,0.0,0.0,0.0,0.0,0.0,0.0,0.0,2.9232,2.9551,2.9088,2.9551,2.9777,2.9476,3.0977,0.0,0.0,0.0,0.0,0.0,0.0,0.0,3.9262,4.0025,4.1076,4.2298,4.323,4.4124,4.492,4.5897,4.6001,4.5403,4.4849,4.3853,4.2341,3.9895,3.7496,3.5001,3.0735,2.6156,2.1339,0.0,0.0,0.0,0.0,0.0,0.0,0.0,0.0,0.0,0.0,0.0,0.0,0.0,0.0,0.0,0.0,0.0,0.0,0.0,0.0,0.0,0.0,0.0,0.0,0.0,0.0,0.0,0.0,0.0,0.0,0.0,5.8144,5.9451,5.9411,5.9701,6.0323,6.1437,6.1774,6.1797,6.1474,6.1508,6.1311,6.0772,6.0811,6.0603,5.9983,6.0636,6.0835,6.0371,6.1291,6.1995,6.2504,6.3156,6.3838,6.4593,6.5247,6.5642,6.5843,6.5866,6.526,6.4166,6.3838,6.2669,6.0903,6.0212,5.9444,5.8481,5.6182,5.4745,5.3623,5.1654,4.9717,4.7954,0.0,0.0,0.0,0.0,0.0,0.0,0.0,0.0,0.0,0.0,3.0043,3.0276,2.9773,2.9967,3.0135,0.0,0.0,0.0,0.0,0.0,0.0,0.0,0.0,3.8766,3.8952,3.9594,4.0293,4.1063,4.2213,4.3067,4.3598,4.4465,4.4595,4.4141,4.357,4.2453,4.0855,3.8985,3.6625,3.3852,3.0159,2.6126,2.1657,1.6378,1.2134,0.8737,0.6972,0.7273,0.9163,1.358,0.0,0.0,0.0,0.0,0.0,0.0,0.0,0.0,0.0,0.0,0.0,0.0,0.0,0.0,0.0,0.0,0.0,0.0,0.0,0.0,0.0,0.0,0.0,0.0,6.0245,6.1442,6.2295,6.2019,6.2094,6.3066,6.2976,6.2815,6.2784,6.2713,6.2242,6.1325,6.1864,6.1805,6.0798,6.1369,6.1713,6.1807,6.2184,6.2973,6.4138,6.4507,6.5099,6.5902,6.6684,6.7014,6.6992,6.7042,6.6683,6.5928,6.4935,6.3893,6.2813,6.1721,6.0756,5.9701,0.0,0.0,0.0,0.0,5.0978,4.9804,0.0,0.0,0.0,0.0,0.0,0.0,0.0,0.0,0.0,0.0,0.0,3.1145,3.0598,3.0554,0.0,0.0,0.0,0.0,0.0,0.0,0.0,3.7973,3.7872,3.8077,3.8743,3.9146,3.9588,4.0143,4.1429,4.2391,4.2956,4.3148,4.3392,4.3622,4.2664,4.1413,3.9864,3.8376,3.6153,3.3264,3.0443,2.6614,2.2146,1.7533,1.3364,0.9867,0.8724,0.8715,0.9924,1.4171,0.0,0.0,0.0,0.0,0.0,0.0,0.0,0.0,0.0,0.0,0.0,0.0,0.0,0.0,0.0,0.0,0.0,0.0,0.0,0.0,0.0,0.0,0.0,0.0,6.2451,6.3019,6.4463,6.3824,6.3203,6.3421,6.3172,6.3142,6.3565,6.3709,6.3339,6.223,6.2875,6.2789,6.144,6.1523,0.0,0.0,0.0,6.4019,6.5615,6.5728,6.6137,6.6877,6.7877,6.8253,6.8119,6.834,6.8407,6.8201,6.5955,6.502,6.4992,6.3527,6.2104,6.0738,5.9061,5.7446,5.5838,5.3711,5.2337,5.1453,0.0,0.0,0.0,0.0,0.0,0.0,0.0,0.0,0.0,3.0974,3.1427,3.1357,3.0242,3.0596,0.0,0.0,0.0,3.3958,0.0,0.0,3.6882,3.7583,3.7675,3.796,3.856,3.8777,3.8995,3.909,4.0641,4.1182,4.083,4.182,4.1723,4.0769,4.0695,4.0295,3.9616,3.7755,3.6175,0.0,0.0,0.0,2.2705,1.9383,1.6079,1.3062,1.1909,1.2317,1.3939,1.7105,2.1254,2.5826,3.0202,0.0,0.0,0.0,0.0,0.0,0.0,0.0,0.0,0.0,0.0,0.0,0.0,0.0,0.0,0.0,0.0,0.0,0.0,0.0,0.0,6.3226,6.4316,6.5301,6.6356,6.6173,6.5663,6.4959,6.472,6.4711,6.491,6.4148,6.3852,6.4339,6.3591,6.306,6.2974,6.3096,6.3348,6.3712,6.4406,6.5293,6.6373,6.7026,6.7819,6.8709,6.8903,0.0,7.0025,6.9449,6.8915,6.8394,6.7222,6.6065,6.4968,6.4079,6.3312,6.2426,5.9577,5.7512,5.6063,5.5625,5.4557,5.3194,0.0,0.0,0.0,0.0,0.0,0.0,0.0,0.0,0.0,0.0,3.1967,3.1667,3.0904,0.0,0.0,0.0,3.3192,0.0,0.0,3.6131,3.6524,3.6989,3.7044,3.7266,3.7592,3.7792,3.7903,3.7903,3.9173,3.9588,3.9182,4.005,4.0033,3.924,3.9052,3.8717,3.8212,0.0,0.0,0.0,0.0,0.0,2.5655,2.2261,1.9397,1.7028,1.607,1.6668,1.823,2.0619,2.4392,2.8741,3.2328,3.6018,3.9469,0.0,0.0,0.0,0.0,0.0,0.0,0.0,0.0,0.0,0.0,0.0,0.0,0.0,0.0,5.9445,6.1385,0.0,6.2432,6.4565,6.5373,6.6181,6.7269,6.7433,6.7034,6.6122,6.5466,6.5148,6.5291,6.5,6.4858,6.5018,6.4468,6.4045,6.3811,6.3464,6.3613,6.4354,6.4786,6.5717,6.7192,6.7604,6.8247,6.9181,6.9246,6.9578,7.0098,6.9707,6.9413,6.9133,6.8262,6.7276,6.6129,6.4638,6.39,6.3512,6.1139,5.9513,5.8398,5.7163,5.5991,5.4819,0.0,0.0,0.0,0.0,0.0,0.0,0.0,0.0,0.0,0.0,0.0,3.2037,3.1702,0.0,0.0,0.0,0.0,0.0,0.0,3.5795,3.5883,3.6363,3.6108,3.6059,3.6348,3.6505,3.6612,3.6612,3.7476,3.7795,3.7635,3.8018,3.807,3.7802,3.7468,0.0,0.0,0.0,0.0,0.0,0.0,0.0,2.9342,2.6156,2.3405,2.1112,2.0487,2.1084,2.2445,2.4266,2.7579,3.1448,3.4272,3.7681,4.0965,4.2826,4.539,0.0,0.0,0.0,0.0,0.0,0.0,0.0,0.0,0.0,5.9448,6.0726,6.1592,6.2565,6.4173,6.3864,6.3938,6.5865,6.625,6.6741,6.793,6.8164,6.7873,6.7102,6.62,6.5641,6.576,6.588,6.5715,6.5194,6.5207,6.4971,6.4425,6.3824,6.402,6.5204,6.5264,6.6133,6.7965,6.8009,6.8488,6.9422,6.9552,6.9792,7.0047,6.9939,6.9983,7.0062,6.9058,6.8089,6.7134,6.528,6.4505,6.4341,6.291,6.2053,6.1285,5.8625,5.7142,5.6202,0.0,0.0,0.0,0.0,0.0,0.0,0.0,0.0,0.0,0.0,0.0,0.0,0.0,0.0,0.0,0.0,0.0,0.0,3.6148,3.542,3.5256,3.5926,3.4648,3.4283,3.5083,3.5104,3.5138,3.5138,3.5854,3.6084,3.5971,3.5786,3.5585,3.5379,0.0,0.0,0.0,0.0,0.0,0.0,0.0,0.0,3.2755,3.1686,2.8532,2.4684,2.4437,2.5058,2.6221,2.7816,3.0381,3.3272,3.5525,3.8568,4.1595,4.3125,0.0,4.8288,5.0333,5.2659,5.5229,5.7934,5.7857,5.8142,0.0,6.2692,6.2705,6.5031,6.5553,6.5803,6.6345,6.5933,6.59,6.6954,6.7443,6.7966,6.8746,6.8587,6.832,6.8249,6.7743,6.7414,6.7414,6.6482,6.5812,6.5731,6.5286,6.5061,6.5107,6.5172,6.5705,6.6827,6.6827,6.7417,6.8572,6.8726,6.9251,7.0174,7.0308,7.0831,7.1595,7.0863,7.065,7.0778,6.9247,6.7786,6.6394,6.6163,6.5694,6.5092,6.4176,6.3858,6.3485,6.0458,5.8404,5.7044,0.0,0.0,0.0,0.0,0.0,0.0,0.0,0.0,0.0,0.0,0.0,0.0,0.0,0.0,0.0,0.0,0.0,0.0,3.5655,3.542,3.5137,3.4871,3.4252,3.4105,3.4609,3.4609,3.4649,3.4708,3.4642,3.4417,3.4117,3.3509,3.3038,0.0,0.0,0.0,0.0,0.0,0.0,0.0,0.0,0.0,3.5078,3.4551,3.3051,3.0983,2.9048,2.9264,0.0,0.0,3.3765,3.6353,3.8371,4.0453,4.2501,4.4334,4.666,0.0,5.2709,5.4995,5.6908,5.877,6.0059,6.1313,6.3013,6.4206,6.5295,6.6453,6.7121,6.7653,6.7905,6.7376,6.7092,6.7582,6.779,6.8099,6.8551,6.86,6.8614,6.8674,6.8208,6.7614,6.7053,6.6707,6.651,6.651,6.5943,6.5605,6.5659,6.538,6.5647,6.6636,6.6888,6.7518,6.8578,6.9276,6.9588,6.9552,7.0676,7.1185,7.1143,7.0766,7.0437,7.0111,6.9,6.8186,6.7596,6.7174,6.6577,6.5857,6.5013,6.4459,6.3829,6.1173,5.9529,5.8385,0.0,0.0,0.0,0.0,0.0,0.0,0.0,0.0,0.0,0.0,0.0,0.0,0.0,0.0,0.0,0.0,0.0,0.0,0.0,3.5083,3.4654,3.3982,3.3871,0.0,3.4191,3.4191,3.4263,3.4337,3.3477,3.2704,3.2085,3.1026,0.0,0.0,0.0,0.0,0.0,0.0,0.0,0.0,0.0,0.0,3.7214,3.704,3.6838,3.6265,3.3119,3.2895,0.0,0.0,3.6425,3.8564,4.0295,4.1727,4.3138,4.5534,4.8243,5.1236,5.4579,5.6604,5.8149,5.9706,6.1895,6.3714,6.383,6.5616,6.7302,6.7728,6.8364,6.8929,6.907,6.8503,6.804,6.8211,6.8066,6.8024,6.8288,6.8335,6.8418,6.8507,6.8005,6.7378,6.6644,6.6815,6.6852,6.6634,6.6385,6.6179,6.596,6.5788,6.6023,6.6733,6.7042,6.7555,6.8457,6.9232,6.9398,6.8952,7.0758,7.1268,7.053,7.0573,7.0206,6.9519,6.9015,6.8678,6.8471,6.794,6.7273,6.6526,6.5707,6.5101,6.4474,6.2084,6.0673,5.9661,0.0,0.0,0.0,0.0,0.0,0.0,0.0,0.0,0.0,0.0,0.0,0.0,0.0,0.0,0.0,0.0,0.0,0.0,0.0,3.4109,3.3331,3.3511,3.3312,3.3384,3.3706,3.3671,3.3671,3.3724,3.2256,3.0978,2.9861,0.0,0.0,0.0,0.0,0.0,0.0,0.0,0.0,0.0,0.0,0.0,3.9361,3.9715,3.9754,3.9191,3.6055,0.0,0.0,0.0,3.7947,3.9078,4.0324,4.162,0.0,4.6384,5.0333,5.4104,5.5572,5.6902,5.8569,6.1405,6.3015,6.442,6.6425,6.7693,6.8717,6.9601,6.9849,6.9885,6.9885,6.9388,6.8959,6.8959,6.8489,6.8088,6.8088,6.7773,6.7563,6.7563,6.712,6.6822,6.6786,6.6786,6.646,6.57,6.646,6.6619,6.582,6.6856,6.7515,6.765,6.781,6.8018,6.8309,6.8457,6.8602,6.8735,7.0597,7.1087,7.0323,7.0508,7.0164,6.9395,6.9498,6.9106,6.8294,6.8276,6.7844,6.7108,6.6368,6.6187,6.6036,6.3634,6.191,6.0754,0.0,0.0,0.0,0.0,0.0,0.0,0.0,0.0,0.0,0.0,0.0,0.0,0.0,0.0,0.0,0.0,0.0,0.0,0.0,3.4677,3.4239,3.3721,3.3608,3.3721,3.397,3.3935,3.4029,3.432,3.2687,3.1148,0.0,0.0,0.0,0.0,0.0,0.0,0.0,0.0,0.0,0.0,0.0,0.0,4.0323,4.1407,4.157,4.1038,0.0,0.0,0.0,0.0,4.0957,4.1843,4.3282,4.3628,4.4181,4.7725,5.0746,5.3394,5.5532,5.7122,5.8721,6.1149,6.2647,6.4079,6.6142,6.7439,6.8318,6.8635,6.9301,6.9616,6.9015,6.9192,6.9225,6.8689,6.8799,6.8551,6.7517,6.7912,6.7856,6.6653,6.704,6.715,6.6524,6.6668,6.6677,6.6424,6.67,6.6511,6.5713,6.664,6.6736,6.5815,6.7046,6.7589,6.7218,6.8618,6.905,6.8578,7.0028,7.0517,7.0186,7.0436,7.0014,6.916,6.9353,6.9286,6.9042,6.9184,6.8772,6.8016,6.7239,6.6704,6.618,6.4873,6.3459,6.1989,0.0,0.0,0.0,0.0,0.0,0.0,0.0,0.0,0.0,0.0,0.0,0.0,0.0,0.0,0.0,0.0,0.0,0.0,0.0,0.0,3.4252,3.3993,3.4202,3.4619,3.5343,3.5356,3.5483,3.5751,3.3854,3.1829,0.0,0.0,0.0,0.0,0.0,0.0,0.0,0.0,0.0,0.0,0.0,0.0,4.119,4.283,4.3196,0.0,0.0,0.0,0.0,0.0,4.2825,4.3332,4.4846,4.5576,4.6469,4.9209,5.1434,5.3533,5.594,5.74,5.8795,6.1255,6.2788,6.4182,6.6063,6.7318,6.8121,6.8252,6.8877,6.9189,6.859,6.888,6.9167,6.8916,6.903,6.8821,6.8106,6.8471,6.8346,6.7141,6.7436,6.7456,6.6859,6.6722,6.6697,6.6697,6.6757,6.6569,6.6062,6.6642,6.6539,6.5632,6.6921,6.7283,6.6607,6.8282,6.9088,6.9011,6.951,6.9864,7.0102,6.9979,6.9574,6.9027,6.9138,6.9225,6.9268,6.9416,6.9159,6.8633,6.7675,6.7068,6.6549,6.5209,6.3946,6.2691,0.0,0.0,0.0,0.0,0.0,0.0,0.0,0.0,0.0,0.0,0.0,0.0,0.0,0.0,0.0,0.0,0.0,0.0,0.0,0.0,0.0,3.4286,3.4967,3.6071,3.7638,3.7748,3.7855,3.8024,3.5791,0.0,0.0,0.0,0.0,0.0,0.0,0.0,0.0,0.0,0.0,0.0,0.0,0.0,4.1892,4.3944,0.0,0.0,0.0,0.0,0.0,0.0,0.0,4.3742,4.503,4.7374,4.9829,5.0685,5.2519,5.4679,5.6675,5.7704,5.8897,6.17,6.3343,6.4742,6.6337,6.7385,6.8115,6.8475,6.8534,6.8498,0.0,6.8534,6.8858,6.9577,6.9214,6.907,6.9717,6.9341,6.8966,6.8822,6.8172,6.7703,6.7631,6.6945,6.6482,6.6482,6.6668,6.6786,6.675,6.6896,6.6946,6.6837,6.723,6.7085,6.6339,6.7499,6.8679,6.9815,6.907,6.9154,6.9981,6.9257,6.8929,6.8983,6.8929,6.8929,6.9005,6.9005,6.9094,6.9058,6.7628,6.7203,6.7087,6.4727,6.3426,6.2906,0.0,0.0,0.0,0.0,0.0,0.0,0.0,0.0,0.0,0.0,0.0,0.0,0.0,0.0,0.0,0.0,0.0,0.0,0.0,0.0,0.0,0.0,0.0,0.0,0.0,0.0,0.0,0.0,0.0,0.0,0.0,0.0,0.0,0.0,0.0,0.0,0.0,0.0,0.0,0.0,0.0,0.0,4.1719,0.0,0.0,0.0,0.0,0.0,0.0,0.0,0.0,0.0,4.7109,4.8661,5.0377,5.1065,5.2893,5.4889,5.6016,5.7321,5.8938,6.1432,6.2574,6.3778,6.6287,6.6785,6.6998,6.7791,6.7644,6.7184,6.6415,6.7758,6.8873,6.8663,6.9616,7.0325,7.0057,7.0378,6.9981,6.8089,0.0,6.8069,6.6793,6.6474,6.633,6.633,6.6638,6.6533,6.5953,6.6489,6.6069,6.4366,6.6271,6.6692,6.5437,6.7189,6.8282,6.8705,6.8714,6.8762,6.89,6.8903,6.8838,6.8791,6.8838,6.8884,6.8929,6.8983,6.9056,6.9037,6.7546,6.7049,6.7032,6.5267,6.3757,6.2649,0.0,0.0,0.0,0.0,0.0,0.0,0.0,0.0,0.0,0.0,0.0,0.0,0.0,0.0,0.0,0.0,0.0,0.0,0.0,0.0,0.0,0.0,0.0,0.0,0.0,0.0,0.0,0.0,0.0,0.0,0.0,0.0,0.0,0.0,0.0,0.0,0.0,0.0,0.0,0.0,0.0,0.0,0.0,0.0,0.0,0.0,0.0,0.0,0.0,0.0,0.0,4.7988,4.8419,4.9734,5.127,5.2097,0.0,5.5758,5.6704,5.7842,5.9219,6.1048,6.1963,6.286,6.4648,6.5268,6.5567,6.5844,6.5973,6.584,6.5283,6.6598,6.7833,6.8153,6.9394,7.0396,7.0681,7.1115,7.0866,0.0,6.8976,0.0,6.7544,6.6665,6.6207,6.6269,6.6223,6.6089,6.5981,6.6177,6.5692,6.44,6.5803,6.6318,6.571,6.6879,6.7737,6.8234,6.8383,6.8432,6.8408,6.8554,6.865,6.8697,6.8697,6.8782,6.8828,6.8846,6.8937,6.8922,6.7422,6.691,6.688,6.5331,6.402,6.2981,0.0,0.0,0.0,0.0,0.0,0.0,0.0,0.0,0.0,0.0,0.0,0.0,0.0,0.0,0.0,0.0,0.0,0.0,0.0,0.0,0.0,0.0,0.0,0.0,0.0,0.0,0.0,0.0,0.0,0.0,0.0,0.0,0.0,0.0,0.0,0.0,0.0,0.0,0.0,0.0,0.0,0.0,0.0,0.0,0.0,0.0,0.0,0.0,0.0,0.0,4.7922,4.8469,4.9221,5.0533,5.2011,5.3284,5.4924,5.6586,5.7759,5.8702,5.9627,6.0759,6.1552,6.2175,6.2622,6.3517,6.4126,6.3702,6.4074,6.4529,6.4502,6.5296,6.6363,6.7607,0.0,6.9751,7.1081,7.1236,7.1205,7.1205,6.9652,6.8625,6.878,6.7132,6.6115,6.6269,6.5563,6.5472,6.6301,6.5757,6.5482,6.562,6.5545,6.5788,6.6439,6.6607,6.7104,6.7897,6.8033,6.8183,6.8284,6.8284,6.8408,6.8602,6.8506,6.853,6.8626,6.8626,6.8721,6.8711,6.7214,6.6725,6.6661,6.5142,6.4142,6.3434,0.0,0.0,0.0,0.0,0.0,0.0,0.0,0.0,0.0,0.0,3.2691,3.354,0.0,0.0,0.0,0.0,0.0,0.0,0.0,0.0,0.0,0.0,0.0,0.0,0.0,0.0,0.0,0.0,0.0,0.0,0.0,0.0,0.0,0.0,0.0,0.0,0.0,0.0,0.0,0.0,0.0,0.0,0.0,0.0,0.0,0.0,0.0,0.0,0.0,0.0,4.8049,4.8738,4.9987,5.0676,5.1365,5.3308,5.4704,5.5879,5.7119,5.8427,5.9757,6.1084,6.1805,6.2361,6.2767,6.314,0.0,0.0,6.3356,6.3145,6.3145,6.4431,6.5573,6.583,6.7414,6.8874,6.9784,6.9757,6.9605,0.0,6.8717,6.8108,6.8138,6.6998,6.6238,6.6305,6.4969,6.456,6.5472,6.4925,6.496,6.5755,6.4511,6.4603,6.6252,6.6449,6.668,6.6957,6.7723,6.8095,6.8158,6.8259,6.8259,6.8234,6.8309,6.8284,6.8197,6.8334,6.8457,6.8416,6.7008,6.6512,6.6453,6.4986,6.3954,6.3182,0.0,0.0,0.0,0.0,0.0,0.0,0.0,3.036,3.0726,3.1145,3.1745,3.2752,3.4247,3.4508,0.0,0.0,0.0,0.0,0.0,0.0,0.0,0.0,0.0,0.0,0.0,0.0,0.0,0.0,0.0,0.0,0.0,0.0,0.0,0.0,0.0,0.0,0.0,0.0,0.0,0.0,0.0,0.0,0.0,0.0,0.0,0.0,0.0,0.0,0.0,0.0,4.7313,4.8369,5.0147,5.1128,5.1879,5.3677,5.5129,5.6428,5.7809,5.8972,6.0013,6.0909,6.1278,6.1415,6.1399,0.0,0.0,0.0,6.1851,6.1777,6.2181,6.3015,6.3874,6.4559,6.582,6.7249,6.8692,6.8734,6.8941,6.975,6.8645,6.8036,6.8561,6.7112,6.6177,6.6269,6.5099,6.4627,6.5172,6.4686,6.4605,6.5053,6.481,6.5067,6.5979,6.6546,6.6966,6.7136,6.7467,6.7757,6.8004,6.8004,6.803,6.8095,6.8183,6.8183,6.8095,6.8183,6.8334,6.8344,6.6826,6.6314,6.6303,6.4803,6.4041,6.3632,0.0,0.0,0.0,0.0,0.0,0.0,0.0,2.9799,3.0075,3.0309,3.0891,3.1847,3.3462,3.4095,3.4365,0.0,0.0,0.0,0.0,0.0,0.0,0.0,0.0,0.0,0.0,0.0,0.0,0.0,0.0,0.0,0.0,0.0,0.0,0.0,0.0,0.0,0.0,0.0,0.0,0.0,0.0,0.0,0.0,0.0,0.0,0.0,0.0,0.0,0.0,0.0,4.6234,4.7572,4.9638,5.1096,5.2411,5.3919,5.5557,5.7254,5.8634,5.9551,6.0262,6.0752,6.0741,6.0512,6.0158,6.0176,0.0,6.0364,6.0397,6.0605,6.1232,6.1449,6.2003,0.0,6.4372,6.562,6.7526,6.7884,6.845,6.9714,6.8506,0.0,6.885,6.7189,6.6146,6.6269,6.5218,6.4649,6.4837,6.4376,6.4158,6.4339,6.4763,6.5065,6.5274,6.6187,6.6728,6.693,6.712,6.7405,6.782,6.7714,6.7757,6.7993,6.7967,6.7967,6.7993,6.7993,6.8146,6.8222,6.6577,6.6086,6.6083,6.4593,6.41,6.3998,0.0,0.0,0.0,0.0,0.0,0.0,0.0,2.91,2.8772,3.003,3.0366,3.1156,3.2886,3.3704,3.4284,0.0,0.0,0.0,0.0,0.0,0.0,0.0,0.0,0.0,0.0,0.0,0.0,4.4949,4.1081,0.0,0.0,0.0,0.0,0.0,0.0,2.1134,0.0,0.0,0.0,0.0,0.0,0.0,0.0,0.0,0.0,0.0,0.0,0.0,0.0,0.0,0.0,4.6523,4.779,4.9863,5.2068,5.3413,0.0,0.0,5.8703,5.965,6.045,6.1081,6.0947,6.0566,6.0408,0.0,6.0247,5.9803,5.9753,5.9819,5.9893,5.9952,6.0544,6.2128,0.0,6.4636,6.6162,6.679,6.7397,6.8126,0.0,0.0,6.8054,6.6993,6.6269,6.63,6.4751,6.386,6.401,6.343,6.3437,6.4094,6.2972,6.2776,6.3603,6.443,6.4913,6.5086,6.6517,6.7294,6.7524,6.746,6.7542,6.7741,6.7542,6.7569,6.7741,6.7741,6.782,6.7819,6.6383,6.5814,6.5713,6.4309,6.3823,6.3643,0.0,0.0,0.0,0.0,0.0,0.0,2.9296,2.9038,2.8941,2.9306,2.9567,3.0209,3.1349,3.2357,3.3348,3.4355,0.0,0.0,0.0,0.0,0.0,0.0,0.0,0.0,0.0,0.0,0.0,3.8937,3.5627,0.0,0.0,0.0,0.0,0.0,0.0,2.2257,2.2569,0.0,0.0,0.0,0.0,0.0,0.0,0.0,0.0,0.0,0.0,0.0,0.0,0.0,0.0,0.0,4.698,4.8854,0.0,0.0,5.5007,5.6769,5.8378,5.9689,6.0722,6.1257,6.0746,6.0186,6.0528,0.0,5.9264,5.9693,5.9409,5.9223,5.9641,5.9344,5.9566,6.1233,0.0,0.0,6.46,6.5323,6.6094,6.7259,6.7062,6.7112,6.7945,6.6987,6.6243,6.6025,6.5018,6.444,6.4464,6.3392,6.3026,6.3551,6.3414,6.3768,6.4734,6.5024,6.5509,6.6122,6.6692,6.7105,6.7331,6.721,6.7238,6.7378,6.7322,6.7322,6.7405,6.7405,6.7542,6.761,6.6058,6.5558,6.5582,6.4173,6.3669,6.3587,0.0,0.0,0.0,0.0,0.0,2.8853,2.8734,2.8612,2.8631,2.8832,2.9093,2.9639,3.0609,3.1697,3.2867,3.4089,3.4588,0.0,0.0,0.0,0.0,0.0,0.0,0.0,0.0,0.0,0.0,3.391,3.1297,2.8366,0.0,0.0,2.2101,2.114,0.0,0.0,0.0,0.0,0.0,0.0,0.0,0.0,0.0,0.0,0.0,0.0,0.0,0.0,0.0,0.0,0.0,0.0,0.0,0.0,0.0,0.0,5.4815,5.6697,5.8437,5.988,6.1028,6.1515,6.0928,6.0354,0.0,0.0,5.8983,5.9812,5.9313,5.8863,5.9377,5.8943,5.8974,0.0,0.0,6.1666,6.3798,6.4752,6.5651,6.6866,6.6932,6.7099,6.7583,6.6873,6.6238,6.5962,6.5095,6.4547,6.4602,6.3095,6.2458,6.3024,6.33,6.3769,6.4426,6.4925,6.5518,6.6185,6.6598,6.6932,6.7126,6.6983,6.7011,6.721,6.7126,6.7126,6.721,6.7154,6.7148,6.7066,6.57,6.5158,6.5078,6.3867,6.3488,6.349,0.0,0.0,0.0,0.0,0.0,0.0,2.8576,2.7646,2.7315,2.8732,2.9082,2.9713,3.1065,3.2139,3.3104,3.382,3.4392,0.0,0.0,0.0,0.0,0.0,0.0,0.0,0.0,0.0,3.3546,3.0925,2.8914,2.6553,2.3906,2.2936,2.1874,2.0876,0.0,0.0,0.0,0.0,0.0,0.0,0.0,0.0,0.0,0.0,0.0,0.0,0.0,0.0,0.0,0.0,0.0,0.0,0.0,0.0,0.0,0.0,5.5161,5.7775,5.9042,6.0249,6.1241,6.1832,6.1604,6.132,0.0,0.0,5.9854,6.0029,5.9355,5.8719,5.8879,5.8677,5.881,5.9754,0.0,0.0,6.3972,6.5359,6.6382,0.0,6.7019,6.6961,6.6822,6.6638,6.6421,6.6336,6.468,6.3813,6.4101,6.2217,6.1598,6.268,6.199,6.1623,6.1659,6.3351,6.4202,6.4238,6.5974,6.6874,6.7019,6.6845,6.6961,6.7182,6.6932,6.6961,6.721,6.704,6.6596,6.5962,6.5257,6.4584,6.3932,6.3248,6.3171,6.3294,0.0,0.0,0.0,0.0,0.0,0.0,0.0,2.7987,2.8018,2.9149,2.9181,2.9471,3.0596,3.1367,3.1936,3.2153,3.3175,0.0,0.0,0.0,0.0,0.0,0.0,0.0,0.0,0.0,3.1451,2.8798,2.7423,2.554,2.3214,2.3194,2.2933,2.2571,2.3703,0.0,0.0,0.0,0.0,0.0,0.0,0.0,0.0,0.0,0.0,0.0,0.0,0.0,0.0,0.0,0.0,0.0,0.0,0.0,0.0,0.0,0.0,0.0,5.7191,5.8761,6.0215,6.0664,6.0699,6.081,6.1389,6.1134,6.072,6.0387,6.0048,5.9614,5.9074,5.8702,5.9223,6.1326,6.1735,0.0,0.0,0.0,0.0,6.5551,6.63,6.6786,6.6638,6.6668,6.6332,6.5428,6.4417,6.3591,6.3053,6.1813,6.1377,6.2061,6.1645,6.1946,6.3141,6.3739,6.456,6.5641,6.6205,6.6548,6.6661,6.6602,6.6727,6.6932,6.6815,6.6845,6.6932,6.6874,6.6489,6.5795,6.5132,6.4427,6.3778,6.3223,6.3099,6.3289,0.0,0.0,0.0,0.0,0.0,0.0,0.0,2.8094,2.8257,2.9017,2.9199,2.9533,3.019,3.1029,3.1579,3.1743,3.2511,0.0,0.0,0.0,0.0,0.0,0.0,0.0,0.0,3.216,3.0677,2.7821,2.6948,2.5276,2.2919,2.2954,2.3014,2.3109,2.387,0.0,0.0,0.0,0.0,0.0,0.0,0.0,3.6561,0.0,0.0,0.0,0.0,0.0,0.0,0.0,0.0,0.0,0.0,0.0,0.0,0.0,5.2987,5.4982,0.0,5.8175,5.9771,6.0176,6.0687,0.0,0.0,6.1768,6.1612,6.101,6.0559,6.005,5.923,5.8845,5.9334,6.1279,6.1537,6.2197,6.4131,6.5232,6.576,6.566,6.6315,6.6727,6.6638,6.6727,6.6313,6.516,6.4363,6.3572,6.2723,6.167,6.127,6.17,6.1386,6.1908,6.3251,6.3633,6.4489,6.5782,6.6161,6.6361,6.6482,6.6482,6.6608,6.6786,6.6786,6.6786,0.0,6.6786,6.6192,6.5255,6.4885,6.4329,6.3685,6.3415,6.3432,6.3627,0.0,0.0,0.0,0.0,0.0,0.0,0.0,2.7981,2.8198,2.8491,2.9225,2.975,2.9951,3.0985,3.1853,3.2277,0.0,0.0,0.0,0.0,0.0,0.0,0.0,0.0,0.0,3.2236,3.084,2.7819,2.7317,2.5704,2.3014,2.2548,2.2519,2.2932,2.3607,0.0,0.0,0.0,0.0,0.0,0.0,0.0,0.0,0.0,0.0,0.0,0.0,0.0,0.0,0.0,0.0,0.0,0.0,0.0,0.0,0.0,0.0,0.0,0.0,5.8254,5.9768,6.0164,6.1168,6.2116,6.2227,6.246,0.0,6.1666,6.0878,6.009,5.9439,5.9175,5.9356,6.0224,6.0896,6.2056,6.4118,6.4841,6.5603,6.6858,6.6874,6.6786,6.6714,6.6714,6.6293,6.5278,6.4344,6.3523,6.2882,6.1722,6.1241,6.153,6.1312,6.1521,6.2271,6.3208,6.4056,6.4911,6.5818,6.633,6.6452,6.6482,6.6608,6.6757,6.6786,6.6786,6.6786,6.6786,6.5844,6.4424,6.4609,6.423,6.3627,6.3758,6.3965,6.4217,0.0,0.0,0.0,0.0,0.0,0.0,0.0,0.0,0.0,0.0,2.9282,2.9703,3.0512,3.107,3.1423,0.0,0.0,0.0,0.0,0.0,0.0,0.0,0.0,0.0,0.0,3.0869,2.96,2.795,2.7409,2.6216,2.4349,2.4508,2.4579,2.4701,2.5441,0.0,0.0,0.0,0.0,0.0,0.0,0.0,0.0,0.0,0.0,0.0,4.0816,4.1509,0.0,0.0,0.0,0.0,0.0,0.0,0.0,0.0,5.2666,5.4611,5.5414,0.0,5.8653,5.8888,5.978,6.0646,0.0,0.0,0.0,0.0,0.0,0.0,6.0342,6.0055,6.0543,6.2657,6.3334,6.3833,6.4339,6.4688,6.5423,6.683,6.6874,6.6569,6.5953,6.5881,6.5149,6.3444,6.3134,6.255,6.1592,6.126,6.1123,6.1211,6.176,6.2092,6.2271,6.3081,6.3867,6.4689,6.5506,6.599,6.6146,6.6269,6.6421,6.6608,6.6727,6.6786,6.6786,6.6786,6.5844,6.446,6.5226,6.474,6.3627,6.3758,6.3965,6.4144,0.0,0.0,0.0,0.0,0.0,0.0,0.0,0.0,0.0,0.0,0.0,0.0,0.0,0.0,0.0,0.0,0.0,0.0,0.0,0.0,0.0,0.0,0.0,0.0,3.1496,3.0683,2.9529,2.8078,2.7695,2.6544,2.4653,2.4603,2.4691,2.4992,2.6382,0.0,0.0,0.0,0.0,0.0,3.3498,0.0,0.0,0.0,0.0,0.0,4.045,4.1159,0.0,4.3106,4.4489,4.5692,0.0,0.0,0.0,0.0,5.272,5.4255,5.4697,5.6748,5.8909,5.9501,6.0189,6.0866,6.1364,0.0,0.0,0.0,0.0,0.0,0.0,6.0452,6.1056,6.3483,6.3706,6.3854,6.4746,6.549,6.617,6.6939,6.6548,6.6098,6.5627,6.5207,6.434,6.281,6.2651,6.2175,6.1247,6.1123,6.1123,6.1182,6.1551,6.1914,6.2271,6.3413,6.4162,6.4626,6.5411,6.5863,6.5985,6.6115,6.63,6.6512,6.6638,6.6697,6.6786,6.6786,6.5844,6.4468,6.5387,6.4838,6.3556,6.4055,6.4166,6.3968,0.0,0.0,0.0,0.0,0.0,0.0,0.0,0.0,0.0,0.0,0.0,0.0,0.0,0.0,0.0,0.0,0.0,0.0,0.0,0.0,0.0,0.0,0.0,3.1248,3.1527,3.1002,2.9932,2.8339,2.8136,2.6935,2.487,2.4403,2.4448,2.4971,2.6895,2.7864,0.0,0.0,0.0,0.0,3.3436,0.0,0.0,0.0,0.0,0.0,0.0,0.0,0.0,4.2145,4.346,4.4851,4.6427,0.0,0.0,0.0,0.0,0.0,5.4517,5.7066,5.9766,6.0322,6.0885,6.1491,6.2096,0.0,0.0,0.0,0.0,0.0,0.0,6.0904,6.1626,6.3729,6.3466,6.3622,6.5494,6.6472,6.6972,6.683,6.6076,6.5518,6.5236,6.4506,6.3574,6.2536,6.2384,6.2009,6.1306,6.1152,6.1152,6.127,6.126,6.1593,6.2241,6.3667,6.4483,6.4626,6.5411,6.5832,6.599,6.6021,6.6177,6.6452,6.6482,6.6638,6.6786,6.6786,6.5917,6.4649,6.5482,6.4908,6.3666,6.4494,6.4373,6.3863,0.0,0.0,0.0,0.0,0.0,0.0,0.0,0.0,0.0,0.0,0.0,0.0,0.0,0.0,0.0,0.0,0.0,0.0,0.0,0.0,0.0,0.0,3.2139,3.1427,3.1741,3.0729,2.98,2.8947,2.8643,2.7841,2.662,2.6462,2.6517,2.6737,2.7497,2.8084,2.853,3.0155,3.1058,3.1599,3.3201,0.0,0.0,0.0,0.0,0.0,0.0,0.0,0.0,4.2546,4.3908,4.5291,4.6885,0.0,0.0,0.0,0.0,0.0,5.5456,5.8113,6.0322,5.8487,5.9295,6.0431,5.9889,5.9722,0.0,0.0,0.0,0.0,0.0,6.2646,6.3729,6.4812,6.5125,6.5718,6.7143,6.6674,6.6134,6.5993,6.575,6.5026,6.3538,6.3264,6.2717,6.1601,6.1507,6.1377,6.1123,6.1093,6.1093,6.1123,6.1765,6.2103,6.2057,6.3066,6.3912,6.4626,6.5411,6.5804,6.5836,6.5958,6.6146,6.633,6.6452,6.6638,6.6786,6.6786,6.6243,6.5482,6.6315,6.5713,6.443,6.4713,6.4373,6.3753,0.0,0.0,0.0,0.0,0.0,0.0,0.0,0.0,0.0,0.0,0.0,0.0,0.0,0.0,0.0,0.0,0.0,0.0,0.0,0.0,0.0,3.3207,3.2467,3.1842,3.1366,3.0622,2.9898,2.9212,2.8798,2.8179,2.7438,2.7371,2.7277,2.7185,2.7804,2.8139,2.8427,2.9886,3.0988,3.1858,0.0,0.0,0.0,0.0,0.0,0.0,0.0,0.0,0.0,0.0,4.3602,4.4841,4.6355,0.0,0.0,0.0,0.0,0.0,5.4996,5.7133,5.8969,5.8306,6.022,6.2139,6.181,6.1442,0.0,0.0,0.0,0.0,0.0,6.3338,6.424,6.5365,6.6345,6.6997,6.7006,6.682,6.6607,6.6466,6.5511,6.4542,6.3733,6.2724,6.1868,6.1364,6.1241,6.1152,6.1093,6.1093,6.1093,6.1093,6.145,6.1966,6.2631,6.3049,6.3716,6.45,6.5379,6.5804,6.5804,6.5832,6.6021,6.63,6.6361,6.6518,6.6638,6.6757,6.6257,6.5547,6.6431,6.5895,6.4575,6.4356,6.3873,6.3344,0.0,0.0,0.0,0.0,0.0,0.0,0.0,0.0,0.0,0.0,0.0,0.0,0.0,0.0,0.0,0.0,0.0,0.0,0.0,0.0,3.2309,3.2769,3.2645,3.2109,3.119,3.0777,3.0176,2.9439,2.8958,2.8345,2.7656,2.768,2.7528,2.7267,2.8089,2.8426,2.8474,2.9852,3.1009,3.2049,0.0,0.0,0.0,0.0,0.0,0.0,0.0,0.0,0.0,0.0,0.0,0.0,0.0,0.0,0.0,5.0665,5.2059,5.3319,5.4379,5.6216,5.7996,5.8611,6.089,6.3099,6.3478,6.3044,0.0,0.0,0.0,0.0,6.299,6.3797,6.4726,6.5666,6.7024,6.762,6.6539,6.6802,6.6952,6.6445,6.5099,6.4029,6.3545,6.2191,6.1228,6.0984,6.0867,6.0808,6.0808,6.0808,6.0915,6.1093,6.1093,6.1681,6.2915,6.3124,6.3693,6.4657,6.539,6.5772,6.5804,6.5804,6.5994,6.63,6.63,6.6361,6.6512,6.6697,6.6336,6.5646,6.6474,6.5924,6.4558,6.3972,6.3427,6.2953,0.0,0.0,0.0,0.0,0.0,0.0,0.0,0.0,0.0,0.0,0.0,0.0,0.0,0.0,0.0,0.0,0.0,0.0,0.0,0.0,3.1336,3.2227,3.2123,3.1961,3.1742,3.1424,3.0807,2.9964,2.9341,2.8418,2.7268,2.7641,2.7589,2.7348,2.8626,2.9121,2.9022,3.0252,3.1132,3.1741,3.2058,0.0,0.0,0.0,0.0,0.0,0.0,0.0,0.0,0.0,0.0,0.0,0.0,0.0,4.8411,5.1203,5.2499,5.3256,5.4416,5.6722,5.8825,5.8962,5.9809,6.1008,6.2295,6.2222,0.0,6.2521,0.0,0.0,0.0,6.445,6.5882,6.5888,6.6909,6.742,6.6549,6.6755,6.6409,6.475,6.439,6.3473,6.1673,6.14,6.0919,6.0087,5.9987,5.9987,5.9987,5.9987,6.0344,6.1093,6.1093,6.1396,6.2098,6.2964,6.4068,6.5406,6.551,6.5643,6.5804,6.5804,6.5994,6.63,6.63,6.6361,6.6512,6.6697,6.6661,6.644,6.6727,6.5981,6.4667,6.3892,6.3273,6.283,0.0,0.0,0.0,0.0,0.0,0.0,0.0,0.0,0.0,0.0,0.0,0.0,0.0,0.0,0.0,0.0,0.0,0.0,0.0,0.0,3.0731,3.0853,3.1418,3.1394,3.0569,3.0955,3.0602,2.9424,2.8866,2.8116,2.7233,2.7952,2.8123,2.7782,2.8727,2.9107,2.9156,3.0193,3.1044,3.1705,3.2514,3.316,0.0,0.0,0.0,0.0,0.0,0.0,0.0,0.0,4.3078,4.4699,4.5991,4.6984,4.7959,4.9446,5.0976,5.248,5.3596,5.5838,5.8046,5.8669,5.9889,0.0,0.0,6.3356,6.3729,6.4479,6.4456,0.0,0.0,6.4756,6.5631,6.6383,6.6468,6.6375,6.6189,6.5852,6.5274,6.4354,6.3675,6.2925,6.2146,6.0974,6.0149,5.9805,5.9306,5.9235,5.9769,5.9857,6.0214,6.0873,6.1034,6.1579,6.2545,6.3022,6.4009,6.5477,6.5643,6.574,6.5804,6.5804,6.5895,6.6115,6.6115,6.6146,6.6207,6.6482,6.6548,6.6355,6.6207,6.5593,6.4694,6.3972,6.3324,6.2805,0.0,0.0,0.0,0.0,0.0,0.0,0.0,0.0,0.0,0.0,0.0,0.0,0.0,0.0,0.0,0.0,0.0,0.0,0.0,3.0123,3.0294,3.0107,3.0764,3.06,2.956,3.0036,2.9924,2.9066,2.8338,2.7687,2.7157,2.7837,2.7891,2.7433,2.8664,2.9071,2.9012,3.0099,3.0939,3.1591,3.2354,3.2992,0.0,0.0,0.0,0.0,0.0,0.0,0.0,0.0,4.2632,4.4319,4.5233,4.6279,4.7378,4.8447,5.0118,5.1892,5.2994,5.527,5.7513,5.8433,0.0,0.0,6.3066,6.3896,6.4503,6.5223,6.4742,6.4382,6.4995,0.0,6.5389,6.6014,6.595,6.5658,6.5296,6.4904,6.4456,6.3776,6.3091,6.2435,6.1765,6.0499,5.9503,5.897,5.8436,5.8365,5.884,5.9242,5.9734,6.0427,6.0772,6.1524,6.2679,6.3026,6.3871,6.5219,6.5597,6.5804,6.5804,6.5804,6.5863,6.5985,6.5985,6.5985,6.6052,6.6361,6.6482,6.6416,6.6199,6.5557,6.4676,6.421,6.3492,6.273,0.0,0.0,0.0,0.0,0.0,0.0,0.0,0.0,0.0,0.0,0.0,0.0,0.0,0.0,0.0,0.0,0.0,0.0,0.0,2.9767,2.9941,3.0241,3.0074,2.9633,2.8899,2.8756,2.8789,2.9002,2.7861,2.7214,2.7003,2.7192,2.6887,2.6193,2.8399,2.9068,2.8685,2.9949,3.0835,3.141,3.136,3.2009,3.3114,0.0,0.0,0.0,0.0,0.0,0.0,0.0,4.1549,4.364,4.4955,4.5743,4.6607,4.8686,5.0232,5.1565,5.2752,5.5133,5.7513,5.8359,0.0,0.0,6.2687,6.3451,6.3833,6.4338,6.3881,6.3901,6.5507,6.5669,6.5337,6.4561,6.5286,6.5451,6.3819,6.4048,6.3956,6.281,6.2673,6.1946,6.0087,5.9769,5.9005,5.7441,5.7299,5.7242,5.7133,5.7994,5.8899,5.9681,6.0281,6.1153,6.2271,6.2902,6.3685,6.4626,6.5411,6.5804,6.5804,6.5804,6.5863,6.5985,6.5985,6.5985,6.6052,6.6361,6.6638,6.6786,6.6786,6.5895,6.4592,6.4556,6.3729,6.2603,0.0,0.0,0.0,0.0,0.0,0.0,0.0,0.0,0.0,0.0,0.0,0.0,0.0,0.0,0.0,0.0,0.0,0.0,0.0,2.9219,2.9054,2.8779,2.8832,2.8538,2.7789,2.7967,2.814,2.832,2.7623,2.7284,2.7218,2.6886,2.6746,2.676,2.7576,2.8373,2.9151,3.005,3.0752,3.1412,3.249,3.2935,3.3114,0.0,0.0,0.0,0.0,0.0,0.0,0.0,0.0,0.0,4.4277,4.5885,4.7272,4.7711,4.9505,5.1362,5.1334,5.3671,5.6322,5.7183,5.9368,0.0,0.0,6.2645,0.0,0.0,6.4438,6.4279,6.5385,6.466,6.4365,6.5803,6.4765,6.3884,6.4383,6.3512,6.2621,6.2011,6.1918,6.1559,6.0618,5.9443,5.8444,5.783,5.6805,5.6634,5.767,5.8137,5.891,6.0163,6.1096,6.1907,6.256,6.3658,6.4536,6.5255,6.5633,6.5804,6.5804,6.5804,6.5863,6.5985,6.5985,6.6083,6.6238,6.6421,6.6638,6.6677,6.5555,6.4916,6.4447,6.3348,6.2728,6.2475,0.0,0.0,0.0,0.0,0.0,0.0,0.0,0.0,0.0,0.0,0.0,0.0,0.0,0.0,0.0,0.0,0.0,0.0,0.0,0.0,2.8458,2.8252,2.8129,2.7855,2.7382,2.7662,2.7928,2.8237,2.7687,2.7292,2.7047,2.6433,2.5995,2.5716,2.6527,2.7289,2.8089,2.923,3.0203,3.1019,3.2219,3.2745,3.298,0.0,0.0,0.0,0.0,0.0,0.0,0.0,0.0,0.0,4.3561,4.5236,4.6742,4.7472,4.9568,5.1692,5.1872,5.4371,5.7157,5.795,5.9929,6.1753,6.1885,0.0,0.0,0.0,6.4228,6.4107,6.5285,6.4451,6.407,6.5531,6.4273,6.3273,6.3773,6.2803,6.1923,6.1651,6.1501,6.1077,5.9989,5.8923,5.793,5.7152,5.6235,5.6206,5.7379,5.7917,5.8724,5.9867,6.0768,6.1577,6.2326,6.3041,6.395,6.5048,6.518,6.5454,6.5804,6.5804,6.5867,6.5927,6.599,6.6083,6.6207,6.6421,6.6542,6.6553,6.5345,6.4742,6.4355,6.3085,6.2503,6.2397,0.0,0.0,0.0,0.0,0.0,0.0,0.0,0.0,0.0,0.0,0.0,0.0,0.0,0.0,0.0,0.0,0.0,0.0,0.0,0.0,2.8153,2.8368,2.7795,2.7527,2.7546,2.7781,2.816,2.8711,2.7942,2.7313,2.6831,2.5929,2.4903,2.3864,2.5393,2.6079,2.623,2.7975,2.9424,3.058,3.1155,3.1889,3.2727,3.3429,0.0,0.0,0.0,0.0,0.0,0.0,0.0,0.0,4.2743,4.415,4.5599,4.7592,5.0018,5.2354,5.3393,5.6101,5.8835,5.9661,6.0761,6.1775,6.2277,6.2578,6.3012,6.3881,6.3492,6.3493,6.5149,6.4708,6.4156,6.434,6.3863,6.3272,6.2589,6.2096,6.1756,6.1515,6.1336,6.0496,5.8643,5.832,5.7506,5.5889,5.5713,5.5971,5.6666,5.749,5.8391,5.9236,5.9886,6.0688,6.1746,6.169,6.2563,6.434,6.4372,6.4895,6.5772,6.5804,6.5836,6.5867,6.599,6.6052,6.6083,6.6361,6.6482,6.644,6.5721,6.5048,6.4287,6.3418,6.2785,6.2381,0.0,0.0,0.0,0.0,0.0,0.0,0.0,0.0,0.0,0.0,0.0,0.0,0.0,0.0,0.0,0.0,0.0,0.0,0.0,0.0,2.8066,2.794,2.7704,2.7707,2.7961,2.8445,2.8962,2.9542,2.8069,2.7515,2.7731,2.5702,2.4756,2.4821,2.5012,2.5871,2.7177,2.8415,2.9849,3.1372,3.1847,3.2097,3.2298,3.2874,3.3545,0.0,0.0,0.0,0.0,0.0,0.0,0.0,4.1594,4.3924,4.607,4.6287,4.9157,5.2232,5.205,5.3885,5.6346,5.8268,6.0362,6.203,6.2308,6.2423,6.2756,6.3664,6.3342,6.3344,6.5033,6.4115,6.3503,6.4746,6.3659,6.2781,6.3138,6.2486,6.1651,6.0788,6.0596,6.001,5.8497,5.7736,5.7094,5.6445,5.5853,5.6074,5.7254,5.7653,5.8421,5.9628,6.0659,6.1283,6.143,6.2255,6.3094,6.3948,6.4244,6.4831,6.5542,6.574,6.5962,6.6177,6.633,6.6391,6.6391,6.6452,6.6482,6.6338,6.4989,6.439,6.4215,6.2802,6.2177,6.2196,0.0,0.0,0.0,0.0,0.0,0.0,0.0,0.0,0.0,0.0,0.0,0.0,0.0,0.0,0.0,0.0,0.0,0.0,0.0,0.0,0.0,0.0,2.8113,2.8127,2.8499,0.0,0.0,0.0,2.8512,2.7837,2.7526,2.6377,2.5592,2.5099,2.5369,2.6088,2.7161,2.7789,2.9091,3.0752,3.1251,3.1743,3.2165,3.2709,3.3075,3.3517,3.4509,0.0,0.0,0.0,0.0,0.0,0.0,0.0,4.4167,4.5423,4.8057,5.0669,5.1257,5.3406,5.6139,5.8854,6.072,6.1869,6.166,6.1931,6.2248,6.2364,6.2485,6.2922,6.3815,6.3291,6.2973,6.3763,6.3059,6.249,6.2794,6.1906,6.1007,6.0472,5.9937,5.9116,5.7871,5.7352,5.6782,5.5979,5.5564,5.5819,5.6819,5.73,5.8034,5.909,6.0118,6.0636,6.0574,6.1287,6.2191,6.3251,6.358,6.4344,6.551,6.5707,6.5899,6.6088,6.6207,6.6207,6.6177,6.633,6.6361,6.6089,6.4596,6.4101,6.4101,6.2908,6.2557,6.2803,0.0,0.0,0.0,0.0,0.0,0.0,0.0,0.0,0.0,0.0,0.0,0.0,0.0,0.0,0.0,0.0,0.0,0.0,0.0,0.0,0.0,0.0,2.8573,2.8621,2.8888,0.0,0.0,0.0,2.8835,2.8213,2.7567,2.7337,2.6582,2.5462,2.6139,2.6666,2.7112,2.743,2.8534,3.0147,3.0766,3.1371,3.1991,3.2572,3.2699,3.2746,3.3996,3.4912,3.5661,3.6525,0.0,0.0,0.0,0.0,4.1565,4.4316,4.6547,4.8501,5.0182,5.3121,5.645,5.9434,6.0775,6.1207,6.0693,6.1181,6.158,6.0901,6.1614,6.2459,6.2526,6.2552,6.2552,6.2526,6.2423,6.2328,6.2158,6.1181,6.0364,6.022,5.9194,5.8061,5.6992,5.6863,5.6376,5.5264,5.5169,5.5528,5.6283,5.6976,5.7674,5.8511,5.9334,5.9781,5.9781,5.9943,6.0841,6.2378,6.2888,6.3896,6.5267,6.5604,6.5772,6.5804,6.5958,6.5927,6.5867,6.6115,6.6146,6.5842,6.4561,6.4135,6.418,6.3423,6.3334,6.3629,0.0,0.0,0.0,0.0,0.0,0.0,0.0,0.0,0.0,0.0,0.0,0.0,0.0,0.0,0.0,0.0,0.0,0.0,0.0,0.0,0.0,0.0,2.847,2.885,0.0,0.0,0.0,2.974,2.8537,2.8612,2.9831,2.7915,2.692,2.676,2.7223,2.7728,2.8344,2.9284,3.0319,3.1393,3.1947,3.1805,3.1322,3.2148,3.2319,3.2195,3.3092,3.4017,3.4947,3.5713,3.6341,0.0,0.0,0.0,4.0374,4.1886,4.4256,4.6585,4.7615,5.1238,5.5177,5.7174,5.8635,5.9555,5.9583,6.0187,6.0765,6.0657,6.156,6.2344,6.2265,6.2344,6.237,6.2265,6.2212,6.2195,6.2033,6.1181,6.0259,5.9465,5.8399,5.7306,5.6177,5.5853,5.5548,5.5229,5.5079,5.5587,5.6822,5.7123,5.7886,5.9144,5.9485,5.9654,5.9654,5.9748,6.0334,6.1243,6.2906,6.3912,6.4324,6.5161,6.5643,6.5804,6.5958,6.6021,6.599,6.6016,6.6016,6.5914,6.5049,6.4818,6.4867,6.4076,6.3869,6.4087,0.0,0.0,0.0,0.0,0.0,0.0,0.0,0.0,0.0,0.0,0.0,0.0,0.0,0.0,0.0,0.0,0.0,0.0,0.0,0.0,0.0,2.8464,2.8749,2.885,2.8737,0.0,0.0,2.8511,2.8237,2.8683,2.9856,2.9482,2.9308,2.9308,2.9404,2.9527,2.9674,2.9652,3.0315,3.1487,3.1809,3.2317,3.2828,0.0,0.0,0.0,0.0,0.0,3.4263,3.5036,3.5596,3.6113,3.6759,0.0,0.0,0.0,4.1952,4.4586,4.7815,5.1321,5.4519,5.6555,5.7851,5.8664,5.8796,5.9384,5.9799,5.9366,6.0086,6.1105,6.204,6.2238,6.2265,6.2185,6.2185,6.196,6.1308,6.0422,5.9456,5.8528,5.7473,5.6581,5.5936,5.5648,5.5389,5.5113,5.4961,5.5088,5.5588,5.6102,5.6556,5.7082,5.8211,5.8762,5.866,5.9309,6.02,6.1167,6.2554,6.3425,6.3948,6.4465,6.5054,6.564,6.58,6.5863,6.5863,6.5863,6.5863,6.5792,6.5006,6.4777,6.4895,6.4572,6.4519,6.4776,0.0,0.0,0.0,0.0,0.0,0.0,0.0,0.0,0.0,0.0,0.0,0.0,0.0,0.0,0.0,0.0,0.0,0.0,0.0,0.0,0.0,2.8872,2.8962,2.8888,2.8674,0.0,2.7964,2.7582,2.7704,2.8467,2.993,3.0751,3.1464,3.2089,3.163,3.1224,3.0881,3.0309,3.0751,3.183,3.2217,3.3088,0.0,0.0,0.0,0.0,0.0,3.4172,3.4014,3.4431,3.4852,3.5283,3.5904,3.6457,0.0,0.0,0.0,4.281,4.7267,5.0285,5.264,5.4977,5.6433,5.7371,5.7655,5.8435,5.8933,5.832,5.8931,6.0003,6.1306,6.1551,6.1623,6.1805,6.1841,6.1543,6.0729,5.9799,5.8843,5.7917,5.6649,5.5794,5.5617,5.5279,5.4954,5.4678,5.4672,5.4661,5.4741,5.5193,5.5506,5.5615,5.698,5.777,5.7841,5.8971,6.0102,6.1233,6.1928,6.2695,6.3465,6.3877,6.4397,6.5095,6.5536,6.5707,6.5675,6.5707,6.5707,6.5604,6.503,6.488,6.4939,6.5068,6.5197,6.5361,0.0,0.0,0.0,0.0,0.0,0.0,0.0,0.0,0.0,0.0,0.0,0.0,0.0,0.0,3.3787,3.3578,0.0,0.0,0.0,0.0,0.0,2.8122,2.881,0.0,2.8888,2.8089,2.7681,2.7779,2.6737,2.787,3.1009,3.1058,3.2456,3.4812,3.3445,3.2398,3.1771,3.2095,3.2596,3.3272,3.4114,3.4344,0.0,0.0,3.6393,0.0,3.5052,3.4698,3.4488,3.3943,3.4039,3.4464,3.4996,3.5486,3.6093,0.0,0.0,0.0,4.4432,4.6464,4.8365,5.095,5.3195,5.4975,5.5757,5.7129,5.8248,5.8211,5.8931,5.9615,5.9724,5.9724,5.9977,6.0738,6.0883,6.0793,6.0621,5.9799,5.8843,5.7917,5.6067,5.4866,5.4866,5.4262,5.3878,5.3848,5.4112,5.4548,5.5304,5.5206,5.5449,5.6235,5.6337,5.685,5.7706,5.8769,5.9902,6.1035,6.107,6.159,6.2492,6.3397,6.3849,6.3952,6.506,6.5412,6.5349,6.5445,6.5447,6.5349,6.5409,6.5376,6.5311,6.5636,6.5764,6.5764,0.0,0.0,0.0,0.0,0.0,0.0,0.0,0.0,0.0,0.0,0.0,0.0,0.0,3.6033,3.4994,3.3799,3.1575,0.0,0.0,0.0,0.0,2.8413,2.8825,2.8963,2.8888,2.8198,2.7606,2.7101,2.7136,2.7825,2.919,3.0729,3.1829,3.2574,3.314,3.373,3.4184,3.3331,3.356,3.4516,3.4981,3.5659,3.6413,3.6768,3.7105,3.7243,3.629,3.5643,3.5202,3.4889,3.4929,3.5062,3.5096,3.5396,3.6127,3.7945,3.9411,4.1075,4.3921,4.5917,4.7653,4.9807,5.1752,5.3339,5.4158,5.558,5.6812,5.6912,5.754,5.8083,5.8159,5.8942,5.9661,5.988,5.9916,5.9655,5.8906,5.8446,5.7636,5.6177,5.5086,5.4275,5.3817,5.3166,5.2987,5.3475,5.3444,5.3701,5.4454,5.4324,5.4327,5.46,5.5077,5.6099,5.7672,5.8185,5.8904,5.9937,6.0037,6.0587,6.1522,6.2394,6.3091,6.3752,6.4762,6.5249,6.5316,6.5349,6.5349,6.5316,6.5349,6.5349,6.5316,6.5447,6.548,6.5584,0.0,0.0,0.0,0.0,0.0,0.0,0.0,0.0,0.0,0.0,0.0,0.0,0.0,0.0,3.5571,3.3457,3.1553,2.9917,2.8545,2.8369,2.8385,2.8574,2.8812,2.8888,2.8812,2.8434,2.7802,2.6992,2.7462,2.7917,2.8431,3.0114,3.1124,3.1547,3.2491,3.374,3.5021,3.4232,3.4512,3.5585,3.6175,3.6896,3.7678,3.8193,3.8496,3.8468,3.7764,3.7096,3.6445,3.5972,3.5754,3.5705,3.5503,3.5597,3.6139,0.0,0.0,0.0,4.2502,0.0,0.0,4.8044,4.9581,5.103,5.2436,5.3845,5.4931,5.5281,5.5946,5.6466,5.6551,5.7397,5.8275,5.8888,5.9005,5.8718,5.7853,5.743,5.6613,5.5048,5.4028,5.3245,5.2726,5.2101,5.192,5.241,5.2611,5.2898,5.3342,5.3415,5.3484,5.3551,5.4364,5.5587,5.709,5.7535,5.8358,5.9598,5.9491,5.9937,6.0936,6.1739,6.247,6.3199,6.4319,6.4911,6.5115,6.5182,6.5182,6.5115,6.5182,6.5324,6.5538,6.5638,6.578,6.6065,0.0,0.0,0.0,0.0,0.0,0.0,0.0,0.0,0.0,0.0,0.0,0.0,0.0,0.0,0.0,3.2787,3.183,3.0738,2.9376,2.8559,2.8287,2.8599,0.0,0.0,0.0,2.8711,2.8349,2.7496,2.7631,2.8125,2.8855,2.9366,3.0524,3.2231,3.1653,3.2377,3.4111,3.4759,3.5529,3.6449,3.7633,3.7937,3.7917,4.0376,4.0602,3.9513,3.9387,3.8957,3.8265,3.7077,3.6478,3.6253,3.6158,3.6011,0.0,0.0,0.0,0.0,0.0,0.0,0.0,0.0,4.6643,4.8019,5.0552,5.1792,5.2625,5.3422,5.4277,5.4905,5.4858,5.493,5.5656,5.7758,5.8103,5.798,5.7608,5.6874,5.5889,5.467,5.2916,5.1717,5.154,5.1075,5.0682,5.0564,5.1647,5.2201,5.2101,5.2604,5.2972,5.3179,5.4262,5.5179,5.5962,5.6849,5.8255,6.0116,5.9323,5.9529,6.07,6.15,6.1986,6.2261,6.3729,6.4498,6.4706,6.4877,6.4912,6.4706,6.4911,6.537,6.5935,6.6245,6.6774,6.7306,0.0,0.0,0.0,0.0,0.0,0.0,0.0,0.0,0.0,0.0,0.0,0.0,0.0,0.0,3.5663,3.4329,3.2871,3.1572,3.0701,2.9834,2.9224,2.8963,2.9396,2.95,2.9195,0.0,0.0,0.0,0.0,0.0,0.0,0.0,0.0,0.0,3.0819,3.1589,3.2901,3.3223,3.4776,3.6934,3.6579,3.736,3.8755,3.9504,4.0008,4.0329,3.9841,3.9589,3.9364,3.8365,3.7736,3.7311,3.7008,0.0,0.0,0.0,0.0,0.0,4.0687,0.0,0.0,0.0,0.0,0.0,4.7298,4.8609,4.9947,5.0886,5.166,5.2602,5.3938,5.4132,5.4375,5.5296,5.5929,5.6221,5.5929,5.5423,5.4486,5.2776,5.1824,5.099,5.0174,4.9718,4.9619,4.9877,5.0656,5.1229,5.1525,5.2259,5.2626,5.2555,5.3139,5.3955,5.5008,5.5246,5.6302,5.8186,5.8119,5.8565,5.9495,6.0462,6.1293,6.2056,6.2962,6.3799,6.4498,6.4706,6.474,6.4706,6.474,6.5232,6.5865,6.583,6.6285,6.695,0.0,0.0,0.0,0.0,0.0,0.0,0.0,0.0,0.0,0.0,0.0,0.0,0.0,0.0,0.0,3.5223,3.3897,3.2711,3.1626,3.0839,3.0105,2.9475,2.973,2.9671,2.9145,2.9727,0.0,0.0,0.0,0.0,0.0,0.0,0.0,0.0,0.0,3.0745,3.1913,3.1798,3.3501,3.635,3.6712,3.7605,3.8837,3.9522,4.0032,4.0331,4.0422,4.0523,4.048,3.9634,3.8748,3.7919,3.7604,3.7578,0.0,0.0,0.0,0.0,0.0,0.0,0.0,0.0,0.0,0.0,4.5294,4.6298,4.727,4.8258,4.9111,5.0051,5.1443,5.1637,5.1907,5.2798,5.325,5.3719,5.4429,5.3934,5.3043,5.1736,5.0769,4.9915,4.9233,4.8736,4.8555,4.8761,4.936,4.9919,5.0469,5.1111,5.158,5.1737,5.2053,5.2902,5.4359,5.4359,5.531,5.7292,5.7397,5.7946,5.8944,5.984,6.0636,6.1363,6.2405,6.324,6.3869,6.4288,6.4498,6.4603,6.4848,6.5442,6.6177,6.6383,6.6904,6.7601,0.0,0.0,0.0,0.0,0.0,0.0,0.0,0.0,0.0,0.0,0.0,0.0,0.0,0.0,0.0,0.0,3.4982,3.3913,3.2437,3.1624,3.0911,3.0186,3.004,2.9649,2.8952,2.9785,0.0,0.0,0.0,0.0,0.0,0.0,0.0,0.0,0.0,0.0,3.1047,3.074,3.228,3.5127,3.7126,3.8039,3.8421,3.9927,4.025,4.0009,4.0913,4.1371,4.1453,4.0776,3.9689,3.8621,3.8281,3.8077,3.7978,3.8072,3.8904,0.0,0.0,0.0,0.0,0.0,4.245,0.0,4.4078,4.4414,4.4599,4.5551,4.6341,4.7104,4.7881,4.8069,4.856,4.9898,5.0008,5.0717,5.291,5.2365,5.1487,5.0934,4.9543,4.8557,4.8373,4.78,4.744,4.7473,4.7856,4.8432,4.9151,4.9534,5.0105,5.0799,5.1039,5.2018,5.3672,5.3772,5.4895,5.691,5.6981,5.7565,5.877,5.9457,6.0012,6.0497,6.1917,6.2681,6.3031,6.3901,6.4356,6.4568,6.5088,6.5851,6.6721,6.7345,6.811,6.8806,0.0,0.0,0.0,0.0,0.0,0.0,0.0,0.0,0.0,0.0,0.0,0.0,0.0,0.0,0.0,0.0,3.586,3.4462,3.3752,3.2403,3.1453,3.1154,3.0622,3.013,2.9779,3.0171,3.0171,0.0,0.0,0.0,0.0,0.0,0.0,0.0,0.0,0.0,3.0368,3.1328,3.2576,3.3989,3.478,3.6398,3.8449,3.9124,3.9871,4.0548,4.0773,4.1069,4.1342,4.1231,4.1389,4.1468,4.0266,4.0536,4.1026,3.9856,4.0697,0.0,0.0,0.0,0.0,4.288,4.2715,0.0,4.2562,4.1959,4.1711,4.276,4.2546,4.2596,4.4128,4.4335,4.4511,4.5163,4.5858,4.7405,5.0495,5.0286,4.943,4.8299,4.7461,4.6797,4.6242,4.5925,4.5832,4.6018,4.6969,4.767,4.787,4.8598,4.9167,4.9473,5.0206,5.0991,5.1818,5.2524,5.3841,5.5744,5.6061,5.6949,5.8348,5.8802,5.9355,6.0079,6.1116,6.2019,6.2855,6.4094,6.483,6.5121,6.5259,6.6164,6.738,6.7402,6.8227,6.9406,0.0,0.0,0.0,0.0,0.0,0.0,0.0,0.0,0.0,0.0,0.0,0.0,0.0,0.0,0.0,0.0,0.0,0.0,0.0,3.3537,3.2565,3.2256,3.1395,3.0709,3.0196,3.0608,3.0608,3.0196,0.0,0.0,0.0,0.0,0.0,0.0,0.0,0.0,3.0519,3.1315,3.2197,3.3141,3.4744,3.6603,3.8467,3.9113,3.9892,4.0702,4.0829,4.1134,4.147,4.1304,4.1488,4.1578,4.0603,4.0856,4.1387,4.0568,4.1058,4.1861,4.1533,4.1795,4.217,4.2021,4.202,0.0,0.0,4.118,4.0905,4.1874,4.1052,4.0636,4.2214,4.2078,4.1926,4.2415,4.2801,4.3545,4.4998,4.6795,4.7603,4.6837,4.6304,4.5872,4.5498,4.4886,4.4451,4.4421,4.5123,4.5698,4.5977,4.6474,4.7165,4.8083,4.8619,4.957,5.1001,5.1508,5.279,5.4722,5.5375,5.6328,5.752,5.8319,5.8907,5.9424,6.0735,6.1567,6.2122,6.3947,6.5057,6.5625,6.6006,6.663,6.7354,6.7881,6.8561,6.9285,5.8207,0.0,0.0,0.0,0.0,0.0,0.0,0.0,0.0,0.0,0.0,0.0,0.0,0.0,0.0,0.0,0.0,0.0,0.0,3.5087,3.4083,3.3738,3.2493,3.1491,3.088,3.1138,3.1089,3.0668,0.0,0.0,0.0,0.0,0.0,0.0,0.0,0.0,3.1156,3.1417,3.2092,3.3175,3.5598,3.7163,3.8066,3.8962,3.9759,4.0434,4.093,4.1357,4.1715,4.1414,4.1382,4.1333,4.0705,4.0906,4.1285,4.0923,4.1204,4.1625,4.133,4.1283,4.1312,4.1325,4.1267,4.1185,0.0,0.0,0.0,4.1025,3.9975,3.9238,4.0381,3.9831,3.9342,3.9709,3.9582,3.93,3.9014,4.221,4.4626,4.4884,4.4564,4.4324,4.4233,4.3323,4.267,4.2634,4.2914,4.3301,4.3845,4.4185,4.5029,4.6543,4.6916,4.8095,5.0151,5.0624,5.1839,5.3703,5.4821,5.5842,5.6799,5.7938,5.8596,5.8839,6.0562,6.1289,6.1496,6.3945,6.529,6.5979,6.6876,6.7251,6.7522,6.8698,6.92,6.9323,5.9904,5.8536,0.0,0.0,0.0,0.0,0.0,0.0,0.0,0.0,0.0,0.0,4.9828,4.6861,4.4942,4.4937,4.1278,3.9132,3.9573,3.7346,3.5981,3.5935,3.399,3.2789,3.2531,3.1896,3.1582,3.172,0.0,0.0,0.0,0.0,0.0,0.0,3.0557,3.1073,3.2008,3.2495,3.3566,3.5061,3.6384,3.6682,3.6411,3.7752,3.8678,3.9448,4.0859,4.1632,4.1995,4.2138,4.2501,4.2781,4.1899,4.2301,4.2878,4.153,4.2175,4.3207,4.278,4.3051,4.3194,4.2073,4.1509,4.0884,3.9656,0.0,3.8175,3.8252,0.0,3.6839,3.6872,0.0,0.0,3.5003,3.4824,3.4738,3.4939,3.6401,3.8229,4.037,4.0336,4.0256,4.0414,3.969,3.9565,4.0458,4.0689,4.1032,4.1633,4.2607,4.3617,4.476,4.557,4.6706,4.8294,4.974,5.1182,5.2615,5.4336,5.5626,5.6581,5.7901,5.8525,5.8629,6.0492,6.1289,6.153,6.4531,6.5807,6.6014,6.7428,6.8274,6.8795,6.9653,7.0206,7.0584,6.0574,6.0002,0.0,0.0,0.0,0.0,0.0,0.0,0.0,0.0,0.0,0.0,5.1147,4.895,4.7092,4.6049,4.3388,4.1489,4.0835,3.8572,0.0,3.6847,3.4931,3.3651,3.322,3.2457,3.2228,3.2589,3.1531,0.0,0.0,0.0,0.0,0.0,3.0758,3.1367,3.2684,3.2848,3.3466,3.4486,3.5931,3.6166,3.6024,3.8238,3.9414,3.9951,4.0689,4.1367,4.1807,4.1558,4.1972,4.2481,4.1619,4.191,4.2462,4.1484,4.188,4.2565,4.2095,4.1982,4.1813,4.1094,4.0566,3.9997,3.9125,3.8355,3.7902,3.8291,0.0,0.0,0.0,0.0,0.0,0.0,3.2945,3.2568,3.2194,3.2507,3.4091,3.7755,3.7716,3.7263,3.6879,3.6744,3.7026,3.7824,3.8245,3.8938,4.0022,4.1049,4.2303,4.3753,4.3982,4.5182,4.7465,4.7981,4.9319,5.1427,5.2845,5.43,5.5727,5.6972,5.787,5.8594,6.035,6.1182,6.153,6.4634,6.5876,6.6117,6.8372,6.9076,6.8987,7.0012,7.0456,7.0745,6.1358,0.0,0.0,5.9436,5.9109,0.0,0.0,0.0,5.6486,5.5173,5.4789,5.4063,5.2668,5.0998,4.9507,4.8133,4.5776,4.3962,4.2917,4.0517,3.8864,3.8251,3.6315,3.494,3.4259,3.3319,3.2959,3.3283,3.2114,0.0,0.0,0.0,0.0,0.0,3.1201,3.1854,3.3197,3.3411,3.3862,3.4563,3.6093,3.6909,3.729,3.8845,3.9741,4.0269,4.0587,4.1071,4.1488,4.1125,4.1479,4.2014,4.1472,4.163,4.1944,4.1662,4.1816,4.1957,4.1612,4.1168,4.0621,4.0052,3.9457,3.887,3.8237,3.7806,3.759,3.7826,3.6997,0.0,0.0,0.0,0.0,0.0,0.0,3.0671,3.0114,2.9424,3.047,3.4565,3.4672,3.4211,3.3688,3.364,3.4123,3.5326,3.5575,3.6465,3.8286,3.9361,4.0667,4.2297,4.2453,4.3809,4.6426,4.6529,4.7829,5.0386,5.1699,5.3282,5.5149,5.6284,5.7421,5.8594,6.0278,6.111,6.153,6.4634,6.5876,6.6186,6.8932,6.9632,6.9282,7.037,7.091,7.1162,6.2515,6.1739,6.0931,6.0552,5.9663,5.8696,5.7384,5.7211,5.6929,5.6332,5.6251,5.6007,5.5355,5.3396,5.2352,5.2836,4.8969,4.6593,4.679,4.3797,4.1672,4.0818,3.8677,3.7082,3.6237,3.4647,3.3813,3.3683,3.2928,0.0,0.0,0.0,0.0,0.0,3.2063,3.2617,3.3462,3.4553,3.5519,3.6334,3.7769,3.938,4.0861,3.9096,3.8962,3.9832,4.0457,4.0859,4.1056,4.125,4.1538,4.193,4.2038,4.1884,4.1817,4.2399,4.2359,4.211,4.2078,4.1484,4.0611,3.9493,3.8472,3.7485,3.6495,3.6568,3.6593,3.5712,3.5827,3.5775,3.466,0.0,0.0,0.0,0.0,0.0,0.0,2.6979,2.6974,3.006,3.0572,3.0712,3.0914,3.0017,3.0499,0.0,3.2736,3.3555,3.6264,3.7422,3.8567,3.9864,4.1036,4.2661,4.4851,4.5695,4.7287,4.9665,5.1325,5.3175,5.5149,5.6284,5.7421,5.8594,6.0278,6.111,6.153,6.4634,6.5876,6.6148,6.8734,6.973,6.9825,7.111,7.1908,7.2281,0.0,0.0,6.2276,6.1099,6.044,5.9718,5.8631,5.8947,5.9117,5.8516,5.82,5.7852,5.7228,5.5862,5.4754,5.4351,5.1482,4.9297,4.8193,4.546,4.3344,4.2138,4.0104,3.8495,3.7463,3.5814,3.4835,3.4504,3.3341,0.0,0.0,0.0,0.0,0.0,0.0,3.26,3.3802,3.4844,3.5596,3.6136,3.7155,3.8813,4.0592,3.9639,3.9726,4.0292,4.0249,4.0473,4.0873,4.1402,4.1638,4.1745,4.2149,4.1832,4.1454,4.1771,4.1721,4.1526,4.131,4.095,4.0362,3.9144,3.7757,3.6453,3.5712,3.5655,3.5507,3.4666,3.5105,3.5202,3.3632,0.0,0.0,0.0,0.0,0.0,0.0,0.0,2.3013,2.364,2.5722,2.7088,2.6972,2.6672,0.0,0.0,3.0324,0.0,3.3696,3.5525,3.7244,3.8774,3.9247,4.1,4.4148,4.4425,4.6109,4.9281,5.0055,5.1839,5.4412,5.5257,5.6389,5.7699,5.9782,6.0855,6.1351,6.4446,6.5684,6.592,6.8651,6.9603,6.968,7.0914,7.1706,7.2208,6.316,6.3178,6.2859,6.1744,6.1277,6.0726,5.9893,6.0568,6.0929,6.0105,5.9855,5.9557,5.8871,5.753,5.6377,5.5934,5.3449,5.1129,4.9292,4.7085,4.5029,4.323,4.1699,4.0233,3.8859,3.7222,3.6032,3.5227,3.4143,3.3601,0.0,0.0,0.0,0.0,0.0,3.2971,3.3972,3.5421,3.6176,3.6442,3.7581,3.9139,4.0694,4.0298,4.0199,4.0296,4.0271,4.0503,4.0982,4.1469,4.1773,4.2,4.2434,4.1906,4.117,4.1462,4.1322,4.1033,4.0638,4.0324,3.9889,3.8813,3.749,3.6214,3.5518,3.5446,3.5177,3.4021,3.4395,3.4535,3.3198,0.0,0.0,0.0,0.0,0.0,0.0,2.15,1.9965,1.9505,2.1799,2.3251,2.286,2.3319,2.4392,0.0,0.0,0.0,0.0,3.3633,3.5474,3.7019,3.7801,3.9647,4.2592,4.3294,4.5199,4.8323,4.9162,5.0973,5.3569,5.4376,5.5535,5.7114,5.9191,6.0398,6.1242,6.4332,6.5568,6.5769,6.8576,6.9561,6.9551,7.0859,7.1693,7.2445,6.3536,6.3235,6.2932,6.2571,6.2236,6.1746,6.111,6.205,6.2382,6.1165,6.1189,6.0999,6.0149,5.8444,5.7411,5.777,5.471,5.2063,5.0388,4.8767,4.6768,4.4199,4.3508,4.237,4.0543,3.8933,3.7346,3.5893,3.5227,0.0,0.0,0.0,0.0,0.0,3.3233,3.3604,3.4092,3.6279,3.726,3.7484,3.9038,4.0304,4.1246,4.0943,4.0404,3.9949,4.045,4.0918,4.1335,4.1583,4.2051,4.2624,4.2907,4.2093,4.108,4.1468,4.1193,4.0656,4.008,3.9752,3.9311,3.8476,3.7633,3.6754,3.5906,3.5851,3.5498,3.3799,3.3743,3.3833,3.3286,0.0,0.0,0.0,0.0,0.0,0.0,0.0,1.7933,1.7637,1.8738,1.9324,1.8806,2.0003,2.1469,0.0,0.0,0.0,0.0,3.1811,3.3317,3.4675,3.6704,3.8596,4.0274,4.2334,4.4519,4.6894,4.8705,5.0671,5.2659,5.3603,5.5062,5.6835,5.8574,5.9955,6.1242,6.4332,6.5568,6.5769,6.8583,6.9561,6.9619,7.0883,7.1972,7.2926,6.4602,6.4851,6.4956,6.434,6.3694,6.3096,6.2508,6.2799,6.2887,6.2109,6.1985,6.1795,6.1363,5.9675,5.8662,5.903,5.6178,5.386,5.2677,5.0386,4.8452,4.7127,4.5262,4.3674,4.2369,4.0262,3.8595,3.7365,3.5905,0.0,3.4966,0.0,0.0,0.0,0.0,3.3522,3.455,3.6155,3.783,3.9373,3.9372,4.0054,4.1021,4.1141,4.101,4.0897,4.1094,4.1388,4.1751,4.2378,4.2492,4.2439,4.2865,4.2211,4.1273,4.1198,4.083,4.0262,3.9528,3.9473,3.9433,3.8463,3.7496,3.6578,3.5873,3.5727,3.5495,3.4382,3.4732,3.4776,3.3296,3.1838,0.0,0.0,0.0,0.0,0.0,0.0,1.6937,1.6093,1.5782,1.6337,1.8093,1.8175,1.9184,2.1816,0.0,0.0,2.7814,3.0032,3.19,3.3282,3.5107,3.7292,3.992,4.1794,4.4037,4.658,4.86,5.0375,5.1892,5.3904,5.5228,5.6122,5.8767,6.0282,6.1094,6.4141,6.5451,6.5735,6.8164,6.9594,7.0435,7.2021,7.2626,7.2878,6.5935,6.6585,6.6879,6.6222,6.577,6.512,6.411,6.4302,6.4155,6.3152,6.2671,6.2439,6.2303,6.052,5.9463,5.9693,5.7255,5.5112,5.386,5.1819,5.0003,4.8458,4.6974,4.5454,4.3807,4.203,4.0256,3.8444,3.7123,3.6,3.5089,0.0,0.0,0.0,0.0,3.3879,3.504,3.6705,3.8386,3.9904,3.9855,4.0184,0.0,4.1147,4.1413,4.163,4.1788,4.2008,4.2297,4.28,4.281,4.2608,4.2883,4.2187,4.1219,4.1077,4.066,4.0054,3.9365,3.9195,3.8987,3.8088,3.7435,3.68,3.5969,3.5748,3.5446,3.4495,3.468,3.4545,3.3246,3.1632,0.0,0.0,0.0,0.0,0.0,1.7286,1.5694,1.4872,1.3862,1.3969,1.5803,1.6023,1.711,1.9634,2.0986,0.0,0.0,2.8413,3.0511,3.2191,3.4142,3.6318,3.8792,4.0808,4.3005,4.5371,4.7842,4.9676,5.0886,5.3465,5.4919,5.5604,5.8417,6.0068,6.1021,6.4063,6.5378,6.5735,6.8295,7.0004,7.1314,7.2892,7.3104,7.2912,6.7304,6.8205,6.863,6.7845,6.7788,6.7307,6.5816,6.5975,6.5629,6.4133,6.3384,6.2986,6.2978,6.1091,5.987,5.9983,5.7993,5.6003,5.4394,5.3077,5.1353,4.9012,4.8484,4.7236,4.5009,4.3755,4.198,3.9573,3.8538,3.7059,3.5297,0.0,0.0,0.0,0.0,3.4622,3.5814,3.7619,3.8918,3.98,4.0287,4.0491,4.0593,4.1174,4.1647,4.2141,4.2435,4.2692,4.2915,4.3166,4.3059,4.2855,4.2899,4.211,4.1111,4.1024,4.0539,3.9912,3.9387,3.8883,3.8357,3.7656,3.7453,3.7182,3.6258,3.5917,3.555,3.4635,3.4303,3.397,3.3145,3.1199,0.0,0.0,0.0,0.0,1.836,1.6226,1.4609,1.4081,1.2841,0.0,1.2992,1.3925,1.5235,1.7165,1.8976,2.1365,2.4472,2.6909,2.9194,3.1377,3.3459,3.5473,3.737,3.9603,4.1784,4.3984,4.6761,4.8711,5.0012,5.2626,5.4345,5.5286,5.787,5.9698,6.1021,6.4102,6.5554,6.6083,6.8727,7.0559,7.196,7.3446,7.351,7.3007,6.8364,6.9223,6.9516,6.8113,6.8074,6.7993,6.7393,6.6651,6.5799,6.4752,6.4259,6.3762,6.3257,6.1087,5.9671,5.9928,5.7999,5.6341,5.5274,5.4066,5.2427,5.0201,4.9133,4.7858,4.6212,4.4565,4.3075,4.1665,3.9599,3.8141,3.7339,0.0,0.0,0.0,0.0,3.6097,3.7264,3.8054,3.9018,4.0083,4.0338,4.0643,4.0896,4.1448,4.1845,4.2164,4.2631,4.3012,4.3266,4.3712,4.3286,4.2632,4.2855,4.2181,4.1235,4.0691,4.0112,3.9485,3.9016,3.8568,3.8194,3.7966,3.7751,3.7452,3.7052,3.666,3.6261,3.5921,3.5609,3.49,3.3323,3.0177,2.7018,0.0,2.2089,2.0198,1.909,1.6812,1.4984,1.4195,1.298,1.213,1.1841,1.2614,1.3996,1.6024,1.7529,1.9749,2.3063,2.5427,2.7877,0.0,3.232,3.4374,0.0,3.8808,4.1078,4.3539,4.5968,4.8117,4.9946,5.2126,5.3946,5.5501,5.809,5.9845,6.1058,6.4217,6.6367,6.7837,6.9589,7.032,7.0736,7.347,7.4014,7.3514,7.0787,7.1024,7.1023,7.0273,6.9554,6.8911,6.8539,6.7621,6.6611,6.5399,6.4205,6.343,6.3329,6.1134,5.9757,5.9956,5.8594,5.7268,5.6213,5.5127,5.3727,5.1876,5.0844,4.9558,4.7876,4.6573,4.5071,4.3309,4.145,3.9756,3.8318,0.0,0.0,3.6593,0.0,3.7598,0.0,3.909,3.9905,4.0566,4.0824,4.1106,4.1361,4.1603,4.1895,4.2141,4.2533,4.2852,4.3163,4.3642,4.3139,4.2362,4.2525,4.1918,4.1141,4.0829,4.0371,3.9865,3.9315,3.8763,3.8198,3.7587,3.7416,3.7227,3.6522,3.6244,3.6045,3.5617,3.5302,3.4463,3.2364,2.9141,2.6304,2.4606,2.1993,1.9879,1.899,1.6907,1.5037,1.3874,1.2563,1.1639,1.1324,1.1639,1.2694,1.4718,1.5944,1.828,2.2174,2.4386,2.7067,3.0453,3.2005,3.4172,3.703,0.0,4.0375,4.3605,4.5383,4.7525,4.9981,5.1992,5.3882,5.5678,5.8199,5.9884,6.1133,6.4408,6.6695,6.8256,6.9773,7.0595,7.1159,7.3679,7.4285,7.399,7.2818,7.2511,7.2244,7.1889,7.0766,6.9724,6.9275,6.8429,6.7403,6.6157,6.4386,6.3291,6.3496,6.1464,6.014,6.0176,5.9198,5.8126,5.7058,5.615,5.4913,5.3193,5.2406,5.1269,4.9556,4.8524,4.7033,4.4944,4.3414,4.1553,3.9402,0.0,0.0,0.0,3.8768,3.9091,3.9117,4.016,4.0797,4.1072,4.1232,4.1518,4.1827,4.1784,4.1944,4.2141,4.2462,4.2706,4.297,4.3328,4.297,4.2286,4.222,4.1695,4.1085,4.0944,4.0618,4.0117,3.9532,3.8865,3.8086,3.7177,3.6925,3.6764,3.6002,3.5676,3.5429,3.5028,3.4393,3.3288,3.1082,2.8445,2.6118,2.4657,2.2011,1.9833,1.892,1.6865,1.4949,1.3639,1.2164,1.1264,1.128,1.0992,1.1709,1.3984,1.4883,1.7234,2.1569,2.3442,2.6259,3.0336,3.1741,3.3936,3.7029,0.0,3.9899,4.364,4.4799,4.6967,4.9912,5.1826,5.3749,5.5749,5.8271,6.0303,6.2075,6.4769,6.6746,6.8132,6.9779,7.078,7.1608,7.3843,7.4508,7.4445,7.2926,7.2748,7.2335,7.1057,7.0436,6.9967,6.9292,6.8523,6.7847,6.7154,6.5649,6.4479,6.4109,6.2117,6.0811,6.0822,5.9446,5.8318,5.7661,5.7031,5.5597,5.3193,5.3025,5.2286,5.0783,4.9578,4.8379,4.7127,4.5076,4.3303,4.1777,0.0,0.0,4.0122,4.0501,4.0822,4.1003,4.0897,4.1174,4.1709,4.1411,4.1518,4.1827,4.2007,4.2065,4.219,4.2679,4.29,4.29,4.2922,4.2821,4.2611,4.2314,4.1915,4.1462,4.0899,4.0308,3.9731,3.9112,3.8343,3.7578,3.7102,3.6549,3.6175,3.6445,3.5604,3.4845,3.4934,3.3277,3.1354,2.9997,2.8624,2.6815,2.422,2.2356,2.0753,1.9335,1.6915,1.4849,1.3801,1.2102,1.1249,1.1772,1.0784,1.1432,1.4631,1.502,1.701,2.1331,2.2511,2.5088,2.9469,3.0898,3.2911,3.5663,3.7241,3.9831,4.3469,4.4219,4.6377,4.9702,5.1224,5.3209,5.5572,5.8343,6.1519,6.4719,6.5538,6.6588,6.7825,6.9693,7.0551,7.1128,7.3886,7.4772,7.4713,7.3724,7.2984,7.2284,7.1674,7.0657,6.9869,6.9609,6.8584,6.7757,6.7529,6.6044,6.4749,6.4248,6.2545,6.1453,6.1198,6.0132,5.9026,5.8062,5.7596,5.6322,5.4066,5.3924,5.3322,5.2015,5.1352,5.03,4.8688,4.6994,4.5289,4.3715,4.2876,4.2383,4.2257,4.2188,4.2138,4.2059,4.2155,4.2437,4.2802,4.2304,4.2468,4.3023,4.2758,4.2726,4.2876,4.3107,4.317,4.3165,4.296,4.2706,4.2442,4.2287,4.1771,4.1163,4.1072,4.0526,3.9715,3.8907,3.8671,3.8365,3.7107,3.6895,3.6822,3.6248,3.533,3.4565,3.4389,3.3192,3.1751,3.0208,2.8822,2.7318,2.5481,2.3492,2.1756,2.0505,1.8298,1.6225,1.4731,1.329,1.254,1.2834,1.2064,1.2597,1.5106,1.5164,1.7121,2.1791,2.2885,2.5269,2.936,3.1012,3.3091,3.5781,3.7278,3.9865,4.3573,4.4223,4.6348,4.9809,5.1328,5.3957,5.753,5.9695,6.1734,6.3606,6.5374,6.6352,6.702,6.9723,7.0804,7.1156,7.3545,7.43,7.4325,7.4179,7.3238,7.2426,7.2356,7.1418,7.0482,7.0105,6.9022,6.8107,6.7736,6.641,6.5223,6.4442,6.3069,6.2007,6.1542,6.0563,5.9501,5.8484,5.8071,5.6886,5.484,5.4758,5.4189,5.2995,5.2626,5.1723,5.0266,4.8742,4.7294,4.5794,4.4834,4.4227,4.3861,4.3625,4.3361,4.3122,4.3321,4.3501,4.3555,4.3051,4.3164,4.3701,4.3284,4.3231,4.3384,4.3386,4.3372,4.3341,4.2993,4.2698,4.248,4.2336,4.1755,4.1173,4.1168,4.0669,3.9905,3.8936,3.8963,3.8963,3.7411,3.7315,3.7302,3.6318,3.551,3.4678,3.3873,3.3037,3.1954,3.0338,2.8925,2.7575,2.6083,2.4297,2.256,2.1133,1.9334,1.7479,1.5683,1.437,1.3713,1.3999,1.3493,1.4078,1.6281,1.6561,1.8365,2.2344,2.3564,2.5895,2.969,3.1674,3.3765,3.6153,3.7728,4.0318,4.3778,4.439,4.6515,4.9981,5.2202,5.5485,5.9491,6.0734,6.1911,6.3088,6.5276,6.6254,6.6644,6.9536,7.0867,7.1285,7.317,7.4079,7.4455,7.3831,7.348,7.3057,7.2673,7.2602,7.2166,7.0889,7.0086,6.9136,6.785,6.7056,6.6117,6.4881,6.3595,6.2547,6.1844,6.0592,5.9616,5.9019,5.8395,5.7255,5.5491,5.541,5.484,5.3619,5.3022,5.2425,5.1742,0.0,4.9106,4.8137,4.6384,4.5261,4.4802,4.4722,4.4559,4.4287,4.4313,4.4148,4.3903,4.3504,4.3433,4.3408,4.3389,4.3412,4.3384,4.3386,4.3372,4.3341,4.2993,4.2873,4.2813,4.2425,4.2057,4.1681,4.1073,4.0669,4.0216,3.9363,3.9084,3.8904,3.799,3.767,3.7407,3.6962,3.628,3.5234,3.3639,3.2562,3.1477,3.0156,2.8917,2.7447,2.545,2.4482,2.3179,2.0914,1.9479,1.8123,1.6559,1.5104,1.4445,1.5115,1.4752,1.5641,1.8462,1.963,2.101,2.279,2.4274,2.6765,3.0459,3.2925,3.4936,3.6586,3.8719,4.1192,4.3984,4.4722,4.6782,5.0014,5.409,5.7735,6.0818,6.118,6.2293,6.4031,6.5555,6.644,6.6979,6.9095,7.0492,7.1486,7.2783,7.4274,7.5616,7.3831,7.3269,7.2628,7.205,7.1963,7.1557,7.0279,6.9453,6.865,6.7793,6.7084,6.6117,6.4949,6.4436,6.37,6.2666,6.1331,6.0325,5.972,5.8658,5.7472,5.6061,5.6007,5.5437,5.4216,5.4026,5.3429,5.2425,5.1088,4.968,4.8192,4.7268,4.6724,4.6559,4.6091,4.566,4.5184,4.4993,4.4704,4.4396,4.3942,4.3974,4.4273,4.409,4.4253,4.46,4.4383,4.4273,4.4242,4.3674,4.3372,4.3116,4.2813,4.2358,4.1852,4.1388,4.0785,4.0056,3.9173,3.92,3.9239,3.8084,3.8097,3.8218,3.7632,3.6483,3.513,3.3792,3.2733,3.1792,3.0997,2.9855,2.8564,2.7031,2.5756,2.4283,2.2287,2.0617,1.9377,1.8805,1.7992,1.7659,1.809,1.8085,1.8388,1.9264,2.0588,2.2255,2.4287,2.6278,2.8551,3.1208,3.3755,3.5839,3.7416,3.923,4.1489,4.4219,4.534,4.8398,5.3177,5.511,5.7602,6.0388,6.1046,6.1946,6.3123,6.5459,6.6477,6.6904,7.0071,7.1409,7.1753,7.3217,7.4286,7.5142,7.3761,7.3128,7.2485,7.2079,7.1818,7.1324,7.0279,6.9448,6.863,6.7764,6.7223,6.6326,6.4977,6.4837,6.4263,6.2827,6.1686,6.0788,6.0182,5.9078,5.7879,5.6685,5.6414,5.5844,5.4867,5.4596,5.4107,5.3375,5.1819,5.0324,4.8859,4.7956,4.7489,4.7351,4.6747,4.6159,4.5581,4.5445,4.4996,4.4367,4.4258,4.4258,4.4422,4.4422,4.4694,4.4993,4.4679,4.452,4.4439,4.3825,4.3521,4.3314,4.2966,4.2629,4.227,4.1786,4.1186,4.0432,3.9567,3.9683,3.9782,3.864,3.8667,3.8749,3.7903,3.6768,3.5534,3.4229,3.3315,3.2448,3.1269,3.0474,2.9369,2.754,2.6473,2.518,2.3107,2.1889,2.1081,2.0793,2.0392,2.0233,2.0475,2.0982,2.1203,2.1041,2.3134,2.512,2.666,2.8216,3.029,3.2897,3.5329,3.7253,3.8749,4.0504,4.2424,4.4489,4.6748,5.0091,5.4428,5.5587,5.7706,6.0457,6.1045,6.191,6.3084,6.5495,6.6514,6.6832,6.9871,7.1392,7.1912,7.2974,7.4132,7.5244,7.3761,7.3128,7.2602,7.2544,7.205,7.144,7.0773,6.9789,6.8838,6.7833,6.7431,6.6562,6.5034,6.4865,6.4155,6.2616,6.1749,6.0973,6.0344,5.9436,5.8422,5.7228,5.6658,5.6088,5.5491,5.4894,5.4541,5.4433,5.2425,5.0998,5.0089,4.8599,4.7727,4.744,4.6865,4.629,4.5741,4.5741,4.507,4.4112,4.4635,4.4526,4.4061,4.4583,4.4774,4.4724,4.4467,4.4388,4.4256,4.368,4.3479,4.3395,4.3047,4.2928,4.2765,4.2168,4.1712,4.1223,4.0395,4.0368,4.0295,3.9499,3.9292,3.8993,3.7799,3.7135,3.632,3.4861,3.4193,3.3264,3.1213,3.0762,2.9856,2.7234,2.6757,2.586,2.3472,2.3237,2.3108,2.2605,2.2411,2.2399,2.2514,2.3548,2.4065,2.3661,2.6824,2.9033,2.9662,3.0271,3.2062,3.5299,3.7375,3.9106,4.0445,4.233,4.3878,4.5146,4.8828,5.183,5.4181,5.5689,5.8013,6.0855,6.1216,6.2222,6.3777,6.5706,6.6516,6.6764,6.8888,7.0657,7.207,7.2291,7.3779,7.5797,7.3761,7.3128,7.2456,7.1963,7.176,7.1295,7.0163,6.9569,6.8838,6.7833,6.7431,6.6732,6.5596,6.505,6.4323,6.3229,6.1813,6.0611,5.9808,5.881,5.796,5.7201,5.7038,5.6685,5.6115,5.5952,5.5193,5.3809,5.2614,5.1648,5.0971,4.9722,4.9054,4.891,4.8158,4.7466,4.6887,4.6887,4.6491,4.5913,4.5999,4.5682,4.5207,4.5373,4.5249,4.5046,4.5022,4.4995,4.4917,4.4517,4.4088,4.3608,4.3122,4.2959,4.2716,4.1902,4.1477,4.0974,4.0121,3.9771,3.9571,3.9346,3.9452,3.9284,3.8054,3.7519,3.6916,3.548,3.4378,3.338,3.2398,3.1448,3.0241,2.8318,2.716,2.6077,2.4789,2.4332,2.4361,2.504,2.5498,2.5811,2.5998,2.6881,2.7027,2.6148,2.8836,3.089,3.1808,3.3619,3.5208,3.6408,3.8539,4.0468,4.2092,4.3072,4.5082,4.81,5.0392,5.2908,5.5585,5.6679,5.8702,6.1395,6.1501,6.2507,6.4177,6.6107,6.6881,6.7163,6.992,7.1479,7.2326,7.3077,7.4352,7.5765,7.3831,7.3269,7.2728,7.2166,7.1474,7.0795,7.013,6.9315,6.8453,6.7598,6.7431,6.6883,6.5427,6.5034,6.4267,6.3034,6.1908,6.091,6.0,5.9001,5.8232,5.7608,5.7336,5.7038,5.6712,5.6441,5.5545,5.3999,5.2648,5.1817,5.1496,5.0227,4.9534,4.9298,4.8806,4.812,4.7278,4.7278,4.6882,4.6304,4.6417,4.6234,4.5753,4.566,4.5483,4.5332,4.5043,4.4964,4.4913,4.4626,4.4148,4.3539,4.3134,4.277,4.2431,4.179,4.1785,4.1687,4.068,4.024,3.9997,3.9588,3.9672,3.9557,3.8538,3.8291,3.7766,3.6155,3.5219,3.4372,3.3328,3.2263,3.0982,2.9122,2.8332,2.7437,2.5959,2.6079,2.6706,2.7718,2.8191,2.8764,2.9715,3.0382,3.0521,2.9832,3.2026,3.3585,3.4124,3.6196,3.7586,3.8022,3.9423,4.1143,4.3033,4.4723,4.6947,4.9692,5.1462,5.3549,5.5926,5.7292,5.9217,6.15,6.2333,6.3447,6.4843,6.674,6.7551,6.7762,6.9991,7.1268,7.1978,7.262,7.3796,7.5149,7.386,7.351,7.3028,7.2557,7.1304,7.0371,7.0255,6.9246,6.8154,6.7532,6.7557,6.6935,6.5299,6.5034,6.4295,6.2839,6.228,6.1528,6.0356,5.9463,5.8693,5.796,5.7445,5.7174,5.7174,5.6522,5.5654,5.4623,5.2822,5.1896,5.1869,5.0619,4.974,4.9191,4.9113,4.8486,4.7466,4.7466,4.7007,4.6368,4.6621,4.6512,4.6186,4.5921,4.5689,4.5558,4.4931,4.4722,4.467,4.4466,4.394,4.3333,4.3061,4.2602,4.2065,4.1845,4.2239,4.256,4.1403,4.1017,4.0803,4.0059,3.9942,3.9814,3.9102,3.9054,3.8668,3.6832,3.6366,3.5725,3.412,3.3115,3.1927,2.9895,2.9651,2.9113,2.7306,2.8318,2.9544,3.0367,3.0692,3.1483,3.3125,3.368,3.3824,3.3684,3.541,3.6453,3.6446,3.8353,3.9627,4.0127,4.0499,4.1818,4.4107,4.6782,4.8994,5.0826,5.2367,5.4121,5.5991,5.7872,5.9698,6.1499,6.3131,6.4458,6.5578,6.7409,6.8221,6.8468,6.9742,7.077,7.1516,7.1795,7.2935,7.4509,7.3949,7.351,7.2911,7.1975,7.1644,7.1283,7.0732,6.9731,6.8924,6.8507,6.7772,6.6999,6.6412,6.5836,6.5109,6.3997,6.3372,6.2102,5.978,5.9246,5.8503,5.7363,5.7228,5.7174,5.7174,5.6115,5.5464,5.5274,5.3377,5.2482,5.2455,5.1224,5.0342,4.974,4.9296,4.8695,4.8041,4.8041,4.7989,4.7853,4.7911,4.7623,4.7069,4.6777,4.6251,4.5558,4.5229,4.4964,4.4722,4.4617,4.4098,4.336,4.3074,4.2618,4.2065,4.2016,4.2141,4.2079,4.1363,4.0783,4.0404,4.0803,4.0412,3.9924,3.9607,3.9498,3.9018,3.7612,3.728,3.6776,3.5153,3.4082,3.2855,3.1029,3.0517,3.0183,2.9725,3.0871,3.1973,3.254,3.3373,3.4205,3.5029,3.5459,3.5755,3.5919,3.7205,3.8187,3.8512,4.0313,4.1887,4.3031,4.2667,4.4005,4.7111,4.8894,5.0791,5.2774,5.3649,5.5175,5.7191,5.8905,6.0426,6.1849,6.31,6.4566,6.6179,6.7406,6.8358,6.9067,7.0056,7.1012,7.1829,7.1898,7.3038,7.4576,7.396,7.3621,7.3252,7.2366,7.1763,7.1275,7.0986,6.977,6.8789,6.844,6.769,6.6901,6.6215,6.5836,6.5234,6.4047,6.3372,6.2228,6.0375,5.996,5.9109,5.7781,5.7662,5.7499,5.7201,5.6034,5.541,5.541,5.3697,5.2799,5.2588,5.1857,5.1128,5.0342,4.9766,4.9191,4.8643,4.8329,4.8172,4.8172,4.8172,4.7832,4.7283,4.7021,4.6441,4.5752,4.5337,4.5072,4.4964,4.4776,4.4226,4.3573,4.3101,4.2602,4.2092,4.1726,4.1879,4.1898,4.1341,4.0979,4.0757,4.1055,4.0795,4.0449,4.036,4.0241,3.9801,3.8596,3.8373,3.7987,3.6822,3.5437,3.4272,3.3685,3.2824,3.2269,3.2278,3.3393,3.4306,3.4506,3.5478,3.6438,3.7422,3.775,3.8259,3.9055,3.9871,4.0491,4.0913,4.2404,4.3737,4.4816,4.5474,4.6675,4.8498,5.009,5.173,5.3382,5.4497,5.596,5.7741,5.977,6.1224,6.226,6.4041,6.5652,6.702,6.8074,6.9026,6.9912,7.044,7.1,7.1491,7.2022,7.3055,7.4305,7.407,7.3831,7.3551,7.2844,7.1937,7.122,7.122,6.9802,6.858,6.83,6.755,6.6775,6.6018,6.5892,6.5443,6.4319,6.3648,6.2711,6.1402,6.0914,5.9921,5.8189,5.7933,5.7635,5.7201,5.6034,5.541,5.541,5.3759,5.2861,5.2588,5.2183,5.1557,5.076,5.0315,4.9714,4.9061,4.859,4.8303,4.8172,4.8172,4.7911,4.7466,4.7231,4.6708,4.6073,4.5656,4.5312,4.5072,4.491,4.441,4.3807,4.3363,4.2814,4.2342,4.1897,4.2149,4.2355,4.17,4.1382,4.1307,4.1396,4.1223,4.1066,4.1204,4.1118,4.0752,3.9723,3.9585,3.932,3.8363,3.6891,3.5926,3.6197,3.5286,3.4687,3.4931,3.592,3.662,3.6736,3.7508,3.8457,3.9527,3.9891,4.0478,4.1543,4.1954,4.2395,4.2829,4.3984,4.5263,4.6638,4.8055,4.9044,4.9659,5.1326,5.2806,5.4093,5.5449,5.6815,5.8253,6.0428,6.1779,6.2562,6.4984,6.6704,6.7757,6.8743,6.9697,7.0582,7.0785,7.0949,7.1251,7.221,7.3201,7.4155,7.4436,7.404,7.3621,7.3228,7.232,7.1673,7.1673,6.9971,6.8679,6.8679,6.748,6.6637,6.6539,6.6511,6.6258,6.5583,6.5021,6.4063,6.2741,6.2065,6.0599,5.8216,5.7526,5.7228,5.7174,5.6034,5.541,5.541,5.3573,5.2588,5.2588,5.1908,5.1309,5.0786,5.0734,5.0106,4.9087,4.9035,4.8695,4.8172,4.8172,4.8146,4.8126,4.7863,4.7201,4.6455,4.6429,4.5709,4.4776,4.5072,4.457,4.3912,4.3833,4.3415,4.2996,4.3203,4.3639,4.3778,4.2677,4.2145,4.2039,4.2339,4.1869,4.1534,4.2156,4.2196,4.1858,4.0952,4.0974,4.0701,3.925,3.8308,3.7676,3.756,3.7325,3.7242,3.7669,3.8444,3.9093,3.9452,3.9787,4.0266,4.0905,4.1294,4.1738,4.2206,4.2607,4.3074,4.3605,4.4478,4.6311,4.923,4.9909,5.0591,5.1325,5.3175,5.47,5.5859,5.6815,5.7844,5.8978,6.0947,6.2053,6.2562,6.5389,6.7112,6.7996,6.908,7.0036,7.0785,7.0949,7.1175,7.1571,7.24,7.3389,7.4509,7.4446,7.4179,7.3782,7.2742,7.224,7.1808,7.122,6.9921,6.8998,6.8998,6.7829,6.6945,6.6945,6.6735,6.6202,6.519,6.4676,6.3774,6.2299,6.1751,6.0645,5.8759,5.8069,5.7553,5.7201,5.6387,5.5952,5.5952,5.4889,5.402,5.3458,5.2961,5.2358,5.1592,5.1066,5.0551,5.0106,4.9401,4.8956,4.8721,4.8329,4.8079,4.7968,4.7841,4.7506,4.7036,4.6618,4.6083,4.5492,4.5258,4.4861,4.433,4.399,4.3887,4.3835,4.3957,4.4106,4.4229,4.3949,4.353,4.3123,4.3094,4.2521,4.2054,4.2516,4.238,4.2154,4.1993,4.2055,4.1976,4.1543,4.0796,4.0475,4.1071,4.0336,3.9969,4.0616,4.0739,4.0687,4.0636,4.1157,4.1821,4.2455,4.3136,4.391,4.4725,4.5256,4.5709,4.6045,4.7408,4.9026,5.091,5.131,5.1765,5.2364,5.3647,5.4905,5.6201,5.7124,5.8462,6.008,6.1362,6.2468,6.3564,6.5601,6.7178,6.8294,6.9212,7.0201,7.115,7.1276,7.1431,7.1832,7.3265,7.4108,7.4768,7.4387,7.4248,7.3823,7.2683,7.228,7.172,7.0831,6.9818,6.905,6.878,6.7854,6.7154,6.7014,6.6735,6.6258,6.5415,6.4788,6.383,6.2492,6.1589,6.0593,5.9317,5.8503,5.7879,5.7472,5.6712,5.6305,5.6305,5.5582,5.4943,5.4288,5.3913,5.3386,5.2648,5.203,5.1511,5.0995,5.0211,4.9662,4.9296,4.8878,4.8557,4.832,4.8347,4.8042,4.7607,4.718,4.6749,4.6346,4.5764,4.539,4.5068,4.4491,4.4414,4.4547,4.4458,4.4611,4.4873,4.4966,4.4664,4.4312,4.3922,4.328,4.2856,4.3168,4.2934,4.2711,4.2924,4.2986,4.2975,4.3016,4.2603,4.2433,4.3255,4.2553,4.2124,4.2912,4.2694,4.2469,4.2322,4.2919,4.3512,4.4078,4.478,4.5565,4.6413,4.6959,4.7394,4.7852,4.9415,5.0656,5.151,5.2185,5.2741,5.3238,5.4256,5.5381,5.6645,5.7638,5.9012,6.07,6.1603,6.2778,6.4185,6.5809,6.7069,6.8034,6.9203,7.0152,7.0983,7.1422,7.1895,7.2516,7.3951,7.4763,7.5355,7.4387,7.404,7.3691,7.3298,7.2391,7.1469,7.0802,6.9818,6.8838,6.7833,6.7431,6.7014,6.6665,6.6595,6.6595,6.6595,6.5471,6.4495,6.3778,6.1918,6.0511,5.9914,5.872,5.8069,5.8069,5.6929,5.6305,5.6305,5.5393,5.4943,5.488,5.4564,5.4209,5.3889,5.3889,5.3039,5.1596,5.1596,5.0943,4.9897,4.9897,4.9737,4.9502,4.9475,4.8996,4.8329,4.8219,4.7846,4.7314,4.6727,4.6351,4.6,4.5365,4.5206,4.5128,4.4811,4.5314,4.5952,4.5698,4.5587,4.5451,4.4854,4.423,4.3917,4.4407,4.4008,4.3637,4.3765,4.3834,4.3681,4.3395,4.3325,4.3384,4.3603,4.3647,4.3777,4.4237,4.4323,4.4464,4.4959,4.518,4.5387,4.5664,4.6072,4.6484,4.688,4.7115,4.7655,4.8666,4.9964,5.0821,5.1001,5.2564,5.3615,5.4008,5.5135,5.6299,5.7397,5.8497,5.9632,6.0768,6.1773,6.2912,6.422,6.5977,6.6818,6.7157,6.9053,6.9925,7.022,7.1366,7.2474,7.3616,7.4385,7.5312,7.6203,7.4731,7.4387,7.3892,7.3032,7.242,7.172,7.0831,7.0431,6.9916,6.8866,6.8642,6.8193,6.7141,6.7014,6.6706,6.6046,6.5612,6.4844,6.3499,6.2399,6.1521,6.0947,5.9886,5.9154,5.872,5.7933,5.7526,5.7526,5.6865,5.6313,5.5907,5.5562,5.5092,5.4564,5.4145,5.3376,5.2576,5.1904,5.1178,5.0472,5.0054,4.9973,5.0029,4.9456,4.9206,4.9017,4.8197,4.7687,4.728,4.6898,4.6602,4.6353,4.6391,4.584,4.534,4.6062,4.6115,4.6033,4.6186,4.6211,4.6075,4.5478,4.4881,4.457,4.5068,4.5078,4.4941,4.5091,4.5137,4.506,4.4862,4.4838,4.4928,4.5152,4.533,4.5418,4.5448,4.5303,4.5325,4.5582,4.5836,4.6244,4.6782,4.7497,4.8019,4.8335,4.8826,4.9377,5.0025,5.1275,5.2076,5.2331,5.3515,5.4612,5.5548,5.6003,5.687,5.8183,5.9148,6.0566,6.2301,6.2614,6.3865,6.5778,6.6872,6.7955,6.9053,7.0192,7.0815,7.1106,7.1615,7.2412,7.3398,7.4165,7.5128,7.6056,7.4663,7.4387,7.3852,7.3121,7.2613,7.2099,7.1179,7.1092,7.072,6.9736,6.958,6.9142,6.7956,6.7662,6.7197,6.6367,6.5808,6.4971,6.3719,6.2977,6.2288,6.1685,6.0961,6.0185,5.9371,5.8503,5.8069,5.8069,5.7472,5.6984,5.6658,5.6439,5.5966,5.5387,5.4937,5.4296,5.3433,5.2601,5.1988,5.1413,5.0812,5.0629,5.0635,5.0112,4.9811,4.9605,4.8743,4.8289,4.7916,4.7419,4.6994,4.6698,4.6866,4.6262,4.5656,4.6516,4.6572,4.641,4.6755,4.6998,4.7025,4.6428,4.5668,4.5197,4.5751,4.5658,4.5579,4.5966,4.612,4.6244,4.6246,4.6097,4.6194,4.6729,4.669,4.665,4.6695,4.6565,4.6606,4.691,4.7169,4.7583,4.814,4.8789,4.9285,4.9646,5.0222,5.0866,5.1506,5.2513,5.316,5.3414,5.4783,5.5717,5.6218,5.7352,5.8262,5.8934,5.9663,6.1084,6.2997,6.3067,6.4321,6.6451,6.6911,6.7921,6.9301,7.0188,7.077,7.1184,7.1665,7.2717,7.3922,7.4372,7.5317,7.6439,7.4456,7.404,7.3691,7.3298,7.2915,7.2499,7.1847,7.176,7.1387,7.0428,7.0342,6.9942,6.8806,6.837,6.7904,6.728,6.602,6.5014,6.4401,6.3598,6.2905,6.2302,6.1778,6.1054,5.9996,5.8829,5.8232,5.8232,5.7635,5.7309,5.7255,5.7255,5.6904,5.6132,5.6132,5.5392,5.4223,5.3635,5.3034,5.2433,5.1831,5.1469,5.1207,5.1154,5.0737,5.002,4.9646,4.9308,4.8952,4.814,4.7419,4.6945,4.6998,4.6576,4.6156,4.6484,4.6784,4.7029,4.7325,4.7839,4.8056,4.7568,4.6643,4.5877,4.6334,4.6045,4.5829,4.6482,4.6889,4.7148,4.7338,4.7131,4.7207,4.8068,4.7704,4.7476,4.7881,4.8015,4.8223,4.8621,4.897,4.9286,4.967,4.9996,5.0362,5.0775,5.1351,5.2076,5.3053,5.3642,5.4131,5.4486,5.616,5.6901,5.6519,5.8912,5.9963,5.9722,6.0182,6.1397,6.3206,6.345,6.4669,6.6628,6.6628,6.739,6.8701,6.9548,7.022,7.0756,7.1678,7.3197,7.4829,7.4751,7.575,7.7249,7.492,7.4456,7.411,7.3691,7.334,7.2957,7.2499,7.2398,7.2024,7.1034,7.1188,7.0684,6.8933,6.8609,6.8184,6.728,6.6622,6.6006,6.543,6.4263,6.3322,6.2715,6.1603,6.0837,6.0593,5.986,5.948,5.948,5.891,5.8367,5.7879,5.7879,5.7439,5.6551,5.6263,5.5524,5.455,5.3739,5.3034,5.2433,5.1831,5.158,5.1485,5.1066,5.0752,5.0472,4.952,4.9186,4.8976,4.8315,4.7738,4.7288,4.7791,4.7241,4.6563,4.7318,4.7386,4.7346,4.762,4.792,4.8164,4.8083,4.7674,4.7204,4.6843,4.6857,4.6916,4.6967,4.7397,4.7615,4.7425,4.7478,4.773,4.8155,4.8223,4.8273,4.8456,4.891,4.9268,4.9402,4.9944,5.042,5.0677,5.1058,5.1466,5.1714,5.2041,5.2724,5.3793,5.4273,5.5228,5.6731,5.7493,5.8169,5.8758,5.9688,6.0272,6.0542,6.1523,6.2989,6.4807,6.5163,6.6391,6.8291,6.8429,6.9229,7.0443,7.0656,7.0955,7.1376,7.2205,7.3275,7.441,7.4837,7.6141,7.7804,7.4958,7.4594,7.4179,7.3831,7.351,7.3057,7.2702,7.2602,7.2414,7.1853,7.1776,7.1085,6.9572,6.899,6.8212,6.7001,6.6735,6.6454,6.6145,6.5042,6.4083,6.3473,6.2179,6.1329,6.1057,6.0593,6.0158,5.9887,5.929,5.8693,5.8069,5.8069,5.7482,5.6394,5.6197,5.5617,5.484,5.3805,5.3217,5.2851,5.1962,5.1596,5.157,5.1282,5.1021,5.0707,5.0106,4.9557,4.9042,4.8583,4.8105,4.778,4.8268,4.7712,4.7,4.76,4.7808,4.7905,4.8183,4.8649,4.8978,4.8679,4.8654,4.846,4.7661,4.7509,4.7513,4.7584,4.79,4.8182,4.8141,4.8163,4.8475,4.9175,4.9343,4.9413,4.955,4.996,5.032,5.0379,5.0734,5.1172,5.1604,5.1874,5.2185,5.2657,5.3018,5.3792,5.5181,5.5661,5.6545,5.7983,5.8952,5.9505,5.9655,6.0977,6.1633,6.1622,6.2291,6.3546,6.5329,6.5829,6.7059,6.8787,6.9063,6.9864,7.1012,7.1078,7.1557,7.2273,7.2677,7.3675,7.4893,7.5135,7.6451,7.8231,7.5009,7.4704,7.4327,7.386,7.348,7.3128,7.2773,7.2631,7.2602,7.2602,7.2166,7.1486,7.0412,6.9215,6.8,6.6693,6.6595,6.6595,6.6595,6.5572,6.4652,6.4151,6.277,6.1822,6.1261,6.0961,6.0511,6.0023,5.9534,5.8992,5.8367,5.8286,5.7578,5.6265,5.6158,5.5736,5.502,5.3975,5.353,5.3426,5.2223,5.1753,5.1664,5.1622,5.1309,5.0855,5.0812,5.0106,4.9199,4.8963,4.8668,4.8387,4.8705,4.8195,4.755,4.7837,4.8179,4.8519,4.8774,4.9405,4.9901,4.9469,4.9473,4.9474,4.8724,4.8211,4.7889,4.8009,4.8258,4.8581,4.8859,4.8893,4.9203,5.0316,5.0453,5.0559,5.0713,5.1016,5.1287,5.1481,5.157,5.1924,5.2609,5.2712,5.3013,5.3712,5.4191,5.5172,5.6811,5.7225,5.792,5.9028,6.0257,6.0684,6.0256,6.2275,6.3105,6.2668,6.2888,6.3831,6.5437,6.611,6.7303,6.8856,6.9342,7.0141,7.1012,7.1211,7.1938,7.2953,7.3098,7.4138,7.5543,7.5818,7.7072,7.8817,7.5457,7.5219,7.4861,7.3949,7.3761,7.3551,7.3199,7.2844,7.2602,7.2602,7.2544,7.205,7.079,6.8953,6.7516,6.6665,6.6595,6.6595,6.6595,6.5181,6.4166,6.3778,6.222,6.1248,6.092,6.0851,6.0728,6.0647,6.0565,6.0213,5.9643,5.9127,5.8132,5.6851,5.6345,5.5736,5.5072,5.4393,5.4105,5.4001,5.2825,5.2164,5.1921,5.1654,5.1382,5.1064,5.0845,5.0368,4.9766,4.9748,4.9408,4.8956,4.9015,4.8623,4.8126,4.85,4.8789,4.9049,4.9392,4.9729,5.0039,5.0293,5.0133,4.9967,5.0072,4.9262,4.8339,4.7861,4.8156,4.8581,4.8859,4.9268,4.9776,5.0375,5.084,5.1173,5.1452,5.1865,5.2108,5.2153,5.2736,5.334,5.3816,5.402,5.4412,5.5175,5.5633,5.6741,5.8558,5.8288,5.8963,6.0968,6.0952,6.1267,6.2037,6.2859,6.338,6.3462,6.3936,6.4743,6.5865,6.6917,6.7971,6.903,7.0118,7.0778,7.1012,7.1211,7.1874,7.283,7.3519,7.4352,7.5403,7.7297,7.8707,7.979,7.4661,7.4484,7.4255,7.3539,7.348,7.334,7.2915,7.2702,7.2602,7.2602,7.2311,7.1805,7.1015,6.9104,6.7592,6.6693,6.6595,6.6595,6.6595,6.5921,6.5305,6.486,6.3278,6.2341,6.2205,6.1466,6.1098,6.1098,6.0892,6.0457,5.9887,5.929,5.84,5.7223,5.6437,5.5802,5.5313,5.4537,5.421,5.4131,5.3321,5.2917,5.2763,5.263,5.2552,5.2294,5.1507,5.0864,5.0342,5.0002,4.974,4.9479,4.9191,4.9113,4.9146,4.9159,4.9372,4.9663,5.0009,5.0167,5.0319,5.0431,5.0629,5.0711,5.0458,5.0253,4.9792,4.8682,4.8483,4.8581,4.8859,4.9326,4.9892,5.0405,5.0994,5.1509,5.1787,5.2246,5.2608,5.2743,5.3277,5.3714,5.3919,5.4359,5.49,5.5602,5.6218,5.7368,5.9063,5.921,5.9878,6.135,6.1608,6.2003,6.2537,6.3152,6.3637,6.3929,6.4358,6.5058,6.5935,6.7195,6.8282,6.9235,7.0391,7.1015,7.1179,7.134,7.2191,7.3414,7.3776,7.4935,7.6674,7.8561,7.9466,7.9828]}]]